GFSMW_con_mlcape_000.txt.gz
CAPE
460 492 529 702 725 786 1028 1225 1406 1589 1544 1412 1299 1397 1177 1178 1154 1072 928 836 686 748 710 535 427 242 213 146 173 145 123 84 66 28 1 1 0 0 0 3 0 0 0
253 257 331 515 433 508 897 1084 1429 1553 1558 1509 1334 1345 1263 1259 1211 1117 1053 877 825 754 582 311 175 173 138 57 13 35 53 79 144 38 0 0 3 2 0 0 0 0 0
104 146 155 278 417 398 706 840 1084 1444 1536 1412 1287 1354 1315 1444 1336 1329 1090 1181 899 605 467 301 53 16 0 0 0 0 19 87 117 95 19 0 0 0 0 0 0 0 0
108 113 115 154 298 334 483 608 813 1114 1344 1341 1418 1457 1394 1227 1078 932 1138 1283 802 551 233 0 0 0 0 0 0 21 70 80 16 27 56 3 16 0 0 0 0 0 0
107 130 126 135 141 254 377 456 624 764 1076 1270 1351 1503 1438 1287 690 332 435 872 381 187 0 0 0 0 0 0 0 0 0 0 5 1 0 0 0 0 0 0 0 0 0
102 105 90 88 150 175 287 392 487 568 911 1040 1241 1434 1443 1143 812 250 77 415 307 0 0 0 0 0 0 0 0 0 0 0 12 30 0 0 0 0 0 0 0 0 0
188 163 124 138 212 279 346 430 467 610 854 1097 1354 1522 1490 1172 904 226 21 192 36 0 0 0 0 0 0 0 0 0 0 0 0 18 0 0 0 0 0 0 0 0 0
301 335 258 238 299 362 420 493 583 703 856 1247 1438 1618 1649 1373 1147 394 38 98 0 0 0 0 0 0 0 0 0 0 0 0 0 20 8 0 0 0 0 0 0 0 0
288 440 389 351 419 469 573 606 682 877 908 1154 1414 1325 1592 1420 1375 99 0 0 0 0 0 0 0 0 0 0 0 0 0 0 0 0 0 0 0 0 0 0 0 0 0
249 368 526 558 609 620 706 797 768 859 944 1090 1023 1069 1293 1318 474 0 0 0 0 0 0 0 0 0 0 0 0 0 0 0 0 0 0 0 38 40 6 0 0 0 0
118 274 581 725 778 731 741 933 890 1063 1085 1001 851 710 920 786 1 0 0 0 0 0 0 0 0 0 0 0 0 0 0 0 0 12 27 26 33 37 23 0 0 0 0
79 146 485 728 840 805 801 984 1070 1109 1191 1049 801 539 535 305 0 0 0 0 0 0 0 0 0 0 0 0 0 0 0 0 0 0 29 46 53 28 30 21 3 0 0
33 87 287 583 742 775 920 1048 1209 1137 1196 1107 638 459 341 257 22 0 0 0 0 0 0 0 0 0 0 0 0 0 0 0 0 9 31 24 31 0 0 0 0 0 11
29 79 124 308 476 556 720 1016 1214 1230 1159 868 614 541 409 335 41 0 0 0 0 0 0 0 0 0 0 0 0 0 0 0 5 27 48 10 1 0 0 0 0 0 5
5 52 104 161 287 383 463 669 920 1100 1051 833 612 647 500 189 8 12 2 0 2 15 5 0 0 0 0 0 0 0 0 3 44 41 27 4 0 0 0 0 0 0 0
24 27 62 130 186 216 281 500 741 902 988 858 726 572 218 79 0 18 71 58 171 89 23 3 0 0 0 2 0 19 23 28 56 34 6 0 0 0 0 7 15 11 0
36 46 23 31 26 48 164 346 577 824 957 919 839 546 155 77 11 3 0 109 204 93 6 4 4 9 22 16 22 35 37 55 31 12 0 0 0 0 0 0 0 20 56
33 35 23 12 2 2 90 231 446 696 884 930 907 484 278 59 0 0 0 62 1 0 2 19 43 24 85 69 46 74 28 26 26 6 0 0 0 0 0 0 0 3 1
29 73 84 55 11 54 197 349 513 713 841 930 880 585 354 254 127 0 0 3 2 17 47 97 120 93 102 136 133 41 46 26 14 1 0 0 0 0 0 0 0 0 0
33 16 29 43 16 113 329 421 620 798 867 854 832 652 395 200 45 0 0 0 14 24 43 96 95 79 89 133 22 50 39 30 0 0 0 0 0 0 0 0 0 0 0
104 141 197 270 248 265 408 299 508 708 787 687 662 677 536 151 9 0 0 1 18 26 56 14 0 5 6 46 44 7 41 8 0 0 0 0 0 0 0 0 0 0 0
0 5 5 11 80 244 511 466 500 613 617 561 475 391 419 301 20 0 0 0 0 1 1 4 0 0 0 0 0 13 6 0 0 0 0 0 0 0 0 0 0 0 0
81 232 229 200 185 317 601 458 529 544 503 376 293 192 55 23 0 3 0 0 0 0 8 10 7 14 0 0 0 0 0 0 0 0 0 0 0 0 0 0 0 0 0
77 226 349 390 510 479 469 524 467 433 367 277 73 3 0 0 0 0 0 0 0 0 0 0 49 31 0 0 0 0 0 0 0 0 0 0 0 0 0 0 0 0 0
288 319 393 351 539 477 506 470 397 280 250 77 28 13 0 0 0 0 0 0 0 0 10 52 17 0 2 0 0 0 0 0 0 0 0 0 0 0 0 0 0 0 0
454 460 494 526 533 520 547 315 194 222 101 42 11 0 0 0 0 0 0 0 0 0 0 0 0 0 0 0 0 0 0 0 0 0 0 0 0 0 0 0 0 0 0

GFSMW_con_mlcape_003.txt.gz
CAPE
912 1115 1336 1407 1589 1674 1663 1662 1684 1683 1374 1448 1298 1390 982 1849 1797 1760 1265 1230 1046 1109 956 862 870 980 743 726 646 635 483 216 368 197 1 34 74 13 21 34 0 0 0
898 1045 1166 1151 1310 1544 1558 1649 1717 1819 1477 1766 1885 1819 1753 1836 1671 1819 1814 1622 1504 1459 1330 1111 766 571 396 402 399 331 223 237 377 153 16 0 21 31 0 0 0 0 0
557 709 836 976 1092 1270 1454 1525 1700 1827 1977 2192 2222 1977 1864 1868 1765 1875 1921 1765 1680 1441 1253 838 542 324 114 4 201 140 184 93 286 272 65 0 1 0 0 0 0 0 0
380 454 549 723 927 1007 1150 1296 1610 1780 2098 2361 1982 1842 1519 1503 1691 2071 2017 1961 1734 1248 958 746 82 127 75 118 86 34 302 297 67 134 194 73 34 0 0 0 0 0 0
225 299 429 479 641 840 876 1089 1381 1626 1993 2254 2128 1960 1849 1861 2106 1947 1405 1863 1669 1149 720 165 0 26 91 134 0 138 67 141 25 28 78 21 0 0 0 0 0 0 0
233 286 337 334 396 588 658 884 1126 1290 1551 1853 2139 1994 1927 2092 2078 1698 922 911 1244 687 432 0 0 115 147 59 0 19 0 0 42 96 34 0 0 0 0 0 0 0 0
181 217 330 340 378 482 636 775 937 1084 1308 1579 1862 1987 1908 2131 2201 1781 1216 775 538 623 270 0 0 107 99 2 0 0 0 0 0 83 32 35 2 0 1 6 4 0 0
134 203 296 377 392 481 557 672 800 900 1164 1239 1415 1773 1917 2140 2257 1869 1313 844 596 510 96 0 0 63 1 0 0 0 0 0 0 29 20 48 51 48 48 44 28 8 1
184 223 351 422 474 532 642 723 809 887 1026 1178 1405 1644 1949 2155 2202 1955 1516 1116 522 320 50 0 7 17 0 0 0 0 0 0 0 41 86 34 42 58 70 67 47 30 10
296 402 501 496 544 664 791 888 919 977 1032 1212 1470 1628 2018 2150 2210 2154 1656 820 358 155 62 1 5 0 0 0 0 0 0 0 0 0 68 96 82 108 109 107 84 43 28
219 423 702 628 617 756 876 1022 1042 1100 1162 1211 1421 1639 1820 1978 2089 1904 1809 643 194 120 34 20 5 6 8 3 0 0 0 0 0 42 39 91 74 51 105 129 88 74 55
171 505 763 786 772 836 900 1015 1187 1212 1309 1290 1387 1470 1802 1369 903 1273 775 65 36 97 25 40 35 38 76 82 20 0 0 0 0 0 43 72 106 141 138 76 70 56 83
136 434 729 911 945 989 1045 1108 1294 1373 1475 1537 1480 1432 1379 1100 1180 637 354 0 0 0 58 40 22 34 74 141 162 3 0 0 13 27 44 99 177 72 43 69 41 17 45
85 281 474 760 919 1084 1141 1164 1313 1480 1586 1597 1655 1463 1077 977 544 320 28 0 3 31 20 2 9 41 107 104 47 0 0 0 19 47 83 163 70 33 32 44 42 69 71
67 191 218 407 788 1116 1183 1228 1313 1456 1582 1675 1724 1474 1077 682 271 163 2 0 0 0 0 0 0 16 59 44 3 9 63 166 199 176 219 102 130 42 9 3 0 36 62
72 172 238 401 532 698 795 980 1205 1419 1575 1623 1565 1255 886 400 233 111 0 0 0 0 0 0 0 23 58 30 9 26 209 359 442 281 87 87 58 15 0 0 0 4 30
146 181 265 399 461 513 649 647 813 1042 1241 1321 1352 1044 643 370 241 112 2 0 0 0 0 3 44 115 108 82 38 38 185 322 298 155 157 158 107 27 41 0 0 5 4
292 232 150 183 183 176 284 421 700 873 1084 1215 1219 940 581 479 283 173 38 0 0 0 4 22 234 240 260 161 63 36 197 218 248 203 153 160 124 111 17 2 0 10 38
62 161 148 103 53 60 159 352 519 679 930 1084 1207 803 534 560 393 246 96 0 0 0 7 62 86 124 206 41 51 95 116 116 96 173 192 64 35 0 0 0 0 0 0
221 213 113 45 56 73 152 170 299 587 879 1232 1212 809 571 477 448 433 317 128 25 6 28 45 60 100 154 56 75 7 27 55 69 125 39 0 0 0 0 0 0 0 7
225 188 128 78 105 309 347 311 481 601 1084 1176 1063 811 714 671 525 488 254 41 9 19 41 81 170 120 147 114 29 0 29 42 104 103 61 0 0 0 0 0 0 0 0
188 338 243 307 361 379 305 284 448 808 990 1053 947 890 731 594 440 292 86 46 91 128 130 211 204 31 69 0 0 1 20 86 100 164 22 0 0 0 0 0 0 0 0
313 427 389 423 489 557 629 345 542 624 851 881 878 776 693 386 266 233 161 85 71 69 95 99 38 43 51 11 0 1 0 0 5 0 0 0 0 0 0 0 0 0 0
496 815 823 682 630 696 627 678 571 743 767 767 693 648 691 544 341 219 59 15 4 9 0 0 15 83 38 7 0 0 0 0 0 0 0 0 0 0 0 0 0 0 0
489 602 562 625 864 838 826 719 772 767 849 727 726 612 631 414 296 82 1 0 0 0 7 15 128 253 135 23 0 0 0 0 0 0 0 0 0 0 0 0 0 0 0
1116 1019 944 668 666 821 791 732 736 757 798 710 614 428 178 38 0 0 0 0 0 0 0 0 97 0 14 0 0 0 0 0 0 0 0 0 0 0 0 0 0 0 0

GFSMW_con_mlcape_006.txt.gz
CAPE
487 713 1000 1103 1102 1289 1583 1763 1620 1763 2026 1373 1075 1102 947 1097 1216 1143 1848 1732 1573 1497 1577 1135 1157 1217 1077 633 313 65 13 0 30 0 10 19 26 20 10 11 0 0 0
491 801 1040 1009 1012 1305 1651 1858 1928 1939 2066 1527 1282 1110 1219 1045 1333 1422 1662 1728 1761 1805 1479 1381 1291 1188 194 318 45 14 2 7 20 16 7 5 29 31 21 0 0 0 0
583 663 792 939 986 1178 1670 1886 2088 2227 2256 1478 1437 1776 1728 1756 1556 1646 1831 2069 2099 2006 1876 1728 838 651 9 1 35 31 9 3 75 70 4 2 3 0 20 14 0 0 0
652 715 719 835 933 1063 1433 1894 2236 2453 2380 2168 1590 1565 1472 965 684 990 936 1594 2058 1863 1775 1335 747 21 0 2 32 7 1 18 11 12 9 0 14 7 8 19 5 0 0
422 617 722 644 896 1015 1273 1668 2225 2472 2513 2381 2412 2073 1946 940 802 911 1469 1712 1518 1684 1002 1164 233 0 0 64 37 8 18 8 0 7 16 24 5 0 0 0 8 10 10
109 324 492 540 719 903 1120 1351 1887 2476 2640 2662 2639 2470 1819 1461 815 1298 1030 563 622 980 1026 1116 307 0 0 51 26 0 0 0 1 16 40 11 8 11 4 1 1 5 4
81 121 318 503 697 840 994 1257 1638 2239 2505 2578 2481 2578 2470 2178 1839 1727 1013 327 279 369 685 1221 413 49 126 72 0 0 0 0 2 7 15 23 20 25 19 15 12 16 24
113 97 218 394 676 820 979 1210 1455 2062 2386 2401 2505 2689 2710 2443 2130 1899 972 481 240 124 208 1190 354 110 62 66 0 0 0 9 8 5 17 14 25 17 25 23 36 24 24
256 99 217 367 574 784 1056 1340 1676 2014 2182 2237 2425 2669 2814 2616 1843 1651 1843 954 672 170 630 715 351 69 106 12 0 0 1 0 0 2 6 26 13 17 38 50 43 32 12
310 185 221 348 531 776 976 1317 1597 1893 2080 2081 2237 2329 2480 2659 2459 2232 1989 1274 1144 952 521 488 147 47 57 4 12 0 0 0 0 0 0 3 10 37 48 56 51 37 16
421 405 323 353 622 691 827 1192 1555 1799 2024 2057 2135 2111 2137 2278 2612 2549 2678 2408 2015 1147 660 489 151 105 70 12 9 6 0 0 0 0 0 19 98 49 33 40 25 28 35
373 578 577 616 643 828 747 886 1173 1587 1903 2009 2273 2165 2132 2178 2390 2826 2611 2120 2210 813 633 387 187 112 77 45 90 26 0 0 0 0 0 63 77 86 89 79 55 30 25
437 688 744 880 963 939 1040 1068 1346 1523 1678 1963 2143 2142 2065 2240 2276 2584 2300 2296 1263 43 55 0 15 123 93 58 98 142 88 4 0 0 16 58 90 79 57 64 20 43 47
501 765 804 1064 1196 1224 1514 1566 1461 1609 1771 1872 2197 2335 2256 2142 2343 2270 1467 952 146 0 0 0 0 0 149 122 117 131 148 8 0 35 90 142 201 91 94 79 79 99 82
381 817 1017 1327 1631 1578 1704 1841 1866 1825 1852 2046 2152 2395 2495 2473 2274 1876 1062 531 0 0 0 0 0 0 103 64 65 104 55 41 72 116 182 252 379 130 123 47 14 50 27
375 939 1211 1438 1780 1823 1999 2109 2121 2002 2114 2231 2352 2372 2654 2518 2090 1507 735 543 5 0 0 0 0 0 0 0 0 40 66 113 232 312 404 386 235 241 120 24 0 0 0
456 785 1157 1387 1795 1898 2134 2139 2126 2099 2156 2332 2395 2500 2603 2285 1864 1294 892 521 42 0 0 0 0 0 39 5 0 17 31 126 253 518 397 252 116 186 233 151 39 0 0
735 820 979 1333 1505 1498 1621 1652 1841 1940 2078 2290 2321 2386 2262 2033 1701 1292 901 545 92 0 21 115 46 3 23 133 48 23 139 272 614 591 390 178 139 159 187 188 92 68 79
969 990 993 1187 1236 1043 1269 1363 1527 1714 1885 2078 2132 2106 1917 1728 1411 1183 1024 835 417 171 339 417 284 212 254 203 80 74 183 353 545 241 139 64 57 140 9 2 20 25 9
691 787 710 921 887 822 960 1165 1308 1621 1798 2023 2083 2003 1715 1680 1464 1267 1251 824 716 571 383 447 407 378 596 70 42 65 280 267 153 49 130 73 74 0 0 0 0 0 0
826 866 784 637 721 795 987 1082 1257 1369 1671 1966 2125 1871 1682 1761 1730 1462 1129 962 749 534 624 500 415 474 162 486 45 0 141 106 119 144 242 166 0 0 0 0 0 0 0
619 528 740 1027 1176 1209 1374 1249 1350 1877 2049 2136 2092 1763 1678 1509 1539 1209 919 608 565 680 587 471 600 589 843 463 57 15 19 77 183 386 216 1 0 0 0 0 0 0 0
516 648 1007 1342 1578 1793 1819 1793 2238 2050 2077 1727 1606 1560 1548 1245 954 825 593 596 607 736 655 598 683 628 739 63 0 0 0 4 298 242 15 0 0 0 0 0 0 0 0
817 841 962 1038 1109 1444 1559 1856 1338 1583 1732 1350 1475 1290 1075 1093 800 789 780 894 835 734 739 743 378 114 203 125 21 0 0 0 2 0 0 0 0 0 0 0 0 0 0
925 855 951 1367 1370 1603 1674 1618 1486 1369 1369 1301 1349 1136 922 795 970 589 306 599 119 168 268 264 0 12 210 347 131 50 65 64 11 0 0 0 0 0 3 5 1 0 0
1341 1477 1546 1779 1887 1884 1782 1747 1502 1569 1571 1205 1091 977 992 1024 1011 494 46 0 0 0 0 0 59 29 66 0 0 0 0 0 0 0 0 0 0 0 1 2 0 0 0

GFSMW_con_mlcape_009.txt.gz
CAPE
329 455 689 725 707 849 1096 1386 1514 1713 1595 1345 1438 1320 1037 1143 960 742 2033 2250 1875 1741 1578 1532 1394 1319 1094 758 161 27 3 5 22 0 22 20 11 30 35 11 0 0 0
110 434 694 718 714 926 1089 1552 1744 2039 1966 1753 1638 1567 926 884 675 888 1255 1541 1812 1708 1696 1726 998 1137 465 271 72 1 0 5 28 11 3 10 33 23 21 0 0 0 0
24 287 558 730 811 922 1187 1723 2214 2310 2459 2011 1947 1754 1598 1384 1429 1171 1726 1687 1873 1819 2046 1874 1665 1114 226 0 90 2 1 1 21 8 1 7 21 6 18 11 0 0 0
61 124 572 824 796 909 1242 1706 2363 2500 2579 2325 1841 1679 1210 870 373 443 505 1181 2008 1575 1803 1823 839 645 0 6 4 1 0 0 1 7 1 0 0 0 14 12 12 0 1
127 123 425 691 786 870 1146 1656 2409 2691 2678 2611 1976 1515 1259 693 765 379 842 1163 1975 1163 1035 895 630 153 0 4 74 1 1 56 0 1 8 21 0 0 0 0 16 22 27
125 337 292 550 675 815 1052 1545 2518 2939 2972 3044 2385 1967 1956 1092 596 517 909 1157 1000 1165 878 543 549 114 0 69 52 31 7 0 10 3 7 13 6 15 14 5 4 12 13
155 187 446 523 753 925 1164 1530 2363 3180 3144 2834 2759 2637 2516 2263 1592 1592 1200 942 315 585 1145 721 860 283 46 124 60 28 5 3 0 0 8 21 12 14 11 11 10 20 28
381 128 253 543 941 923 1367 1551 2044 3010 3262 2933 2886 2925 2824 1936 1459 1581 1411 771 479 426 1361 1124 784 380 73 153 94 8 0 3 0 0 0 1 11 27 17 22 30 18 21
299 231 153 314 613 782 1287 1566 1991 2642 2967 2592 3253 3151 3012 2698 1574 1508 1797 1433 753 410 292 967 680 422 54 151 37 0 24 5 2 3 6 1 5 8 12 26 41 39 23
196 342 213 254 425 687 1082 1532 1947 2511 2480 2576 2963 2993 2993 3206 2783 2752 2257 1748 1109 750 611 966 719 316 90 201 72 10 0 1 0 0 0 2 0 2 15 20 30 28 20
108 389 332 287 371 495 757 1258 1623 2090 2471 2551 2541 2655 2712 2851 3084 2888 2530 2514 1627 1634 880 1137 732 167 145 143 106 79 6 13 24 0 0 0 9 0 5 10 16 3 15
71 277 424 382 418 502 509 782 1045 1324 2062 2338 2711 2793 2772 2783 2773 3107 3019 2759 2148 2041 1333 1018 806 182 88 53 118 100 37 0 0 0 0 6 24 140 297 1 31 29 1
38 172 414 437 582 581 619 473 887 860 1308 2064 2403 2720 2616 2871 2746 3067 3008 3124 2960 2413 1582 1119 863 187 122 102 129 128 91 70 18 4 11 49 157 157 83 134 54 27 34
216 160 479 599 791 906 944 765 728 623 1017 1549 1701 2334 2760 2795 2760 2970 3079 3188 2980 2675 1592 1041 752 248 226 121 142 139 175 281 261 101 78 144 209 236 256 241 246 173 85
280 519 727 1094 1394 1371 1503 1349 1055 1121 1200 1714 1900 2299 2912 2838 2760 2720 3184 3197 3004 2569 1585 839 470 412 122 138 248 58 51 249 315 88 92 194 287 279 361 315 170 194 87
4 638 920 1089 1820 1839 2187 2028 1770 1870 1790 2324 2366 2717 3287 3118 3011 3037 3248 3112 2693 2203 1292 514 108 12 0 0 5 92 1 207 238 125 251 448 514 236 124 126 144 91 46
0 465 904 1245 1732 1858 2299 2443 2482 2230 2307 2597 3049 3072 3578 3515 3576 3376 3084 2687 2013 1627 774 246 0 0 27 2 2 0 7 63 221 366 492 592 541 166 209 258 157 83 38
0 130 819 1412 1944 1949 2031 2256 2557 2790 2966 3098 3082 3340 3504 3700 3609 3256 2779 2129 1733 1398 712 194 4 95 118 29 0 0 10 21 63 285 587 750 736 664 269 101 58 179 317
3 311 1071 1511 2176 2141 2380 2620 2609 2851 2913 3001 3104 3237 3289 3455 3202 2841 2479 1812 1587 1435 720 258 80 383 488 165 10 23 60 233 437 619 731 930 907 295 78 56 35 71 98
49 778 1274 1651 2239 2308 2331 2434 2443 2554 2670 2851 2911 3013 3136 3003 2744 2494 2161 1827 1764 1336 934 502 555 765 790 378 109 150 314 417 566 612 1022 475 78 54 40 48 16 75 135
941 1485 1531 2179 2176 2127 1984 2192 2147 2141 2122 2296 2495 2742 2737 2676 2441 2112 2023 1917 1638 1294 895 625 738 920 863 675 209 128 362 446 568 721 554 365 68 4 0 0 0 19 0
1238 1395 1623 1851 1827 1843 1908 1900 1909 2132 2344 2463 2557 2677 2554 2322 2203 1914 1994 1722 1304 1156 1121 981 1156 1078 939 597 178 11 19 138 469 435 331 413 4 0 0 0 0 0 0
1457 1395 1403 1447 1350 1700 1948 2121 2524 2514 2574 2651 2780 2518 2100 1903 1968 1900 1747 1222 1076 827 998 855 1101 1111 950 668 34 1 0 7 51 158 11 7 0 0 0 0 0 0 0
1046 1148 1309 1664 2005 2007 2112 2987 2858 2764 2822 2462 1976 1852 1619 1575 1294 1321 1047 801 720 868 1083 1116 1063 1036 816 556 67 0 0 0 2 0 0 0 0 0 0 0 0 0 0
1042 1171 1440 1686 1901 2166 2408 2132 2423 2562 2268 2313 2017 1676 1476 1281 934 655 611 826 287 498 777 766 860 544 95 10 20 5 11 85 53 54 15 1 0 4 10 12 10 7 8
1131 1370 1397 1691 1984 2145 2141 2130 2116 2198 2019 2016 1765 1409 1169 1044 843 504 37 0 0 0 0 0 32 24 5 0 0 0 0 0 0 0 0 0 2 16 20 22 25 17 2

GFSMW_con_mlcape_012.txt.gz
CAPE
151 324 426 435 480 885 1293 1195 1059 1245 2313 2224 1376 1383 1636 1137 1241 1101 1372 2075 2023 1979 1564 1683 1368 1509 966 587 205 40 0 0 5 0 9 30 13 12 22 0 0 0 0
78 280 522 498 581 894 1085 1518 1416 1741 1577 1858 1737 1404 1312 1307 1138 1366 1704 1937 2095 1925 1259 1340 1461 1393 1081 677 117 1 0 1 15 0 0 18 35 32 2 0 0 0 0
8 242 510 543 714 882 1338 1611 1933 1999 1982 1938 1720 1615 1485 1560 1545 1276 1761 1769 2053 1562 1442 1820 1619 1282 180 88 95 40 10 0 126 3 2 25 31 42 26 4 0 0 0
6 133 480 730 772 905 1397 1790 2029 2014 2492 1793 2026 1579 1374 1539 1179 1193 1278 1709 1972 1775 1703 1575 1700 868 79 384 48 13 0 51 11 18 1 0 0 12 44 43 17 5 0
23 20 429 668 755 967 1461 1801 2371 2332 2459 2324 1875 1920 1578 1134 1073 434 724 2005 1811 1533 2005 1636 1003 539 0 121 158 39 1 124 2 0 43 25 0 0 0 0 21 33 32
92 69 327 570 807 979 1550 1566 2587 2713 2626 2915 1965 2180 1574 1188 1375 1136 1572 1737 2033 1449 1194 1087 873 283 1 308 143 73 88 0 38 0 4 21 6 8 18 13 2 0 22
192 167 237 702 924 1050 1370 1777 2503 2783 2804 2802 2799 1873 2146 1309 1451 1717 1061 1328 1255 1665 1297 848 763 406 43 393 146 280 166 71 0 84 0 25 8 7 1 0 10 16 18
317 292 359 621 1031 1030 1313 1754 2409 2735 3113 2676 3267 2668 2045 2571 1935 1572 1492 1514 948 644 1256 828 859 688 225 158 250 254 59 65 37 0 0 0 3 8 23 15 14 0 0
423 233 543 589 1041 1106 1244 1644 2505 2959 3337 3254 3250 3114 2509 2638 2731 1710 1662 2015 999 1225 1202 968 1413 626 556 360 371 104 61 70 101 88 15 0 0 8 7 24 13 14 6
457 471 332 810 1003 1238 1283 1710 2102 3041 3562 3481 3324 3305 3439 2628 2202 1895 1824 1470 1760 771 1446 1302 1155 876 421 301 368 73 183 64 27 25 12 45 26 0 6 30 15 27 45
89 410 465 491 948 1344 1395 1705 1960 2867 3449 3524 3349 3318 3298 3275 2437 2900 2184 2539 1505 1335 1413 1332 1195 934 604 359 300 53 21 49 51 15 4 1 18 0 7 76 11 0 2
19 124 548 484 722 1035 1274 1627 2021 2511 3129 3339 3233 3304 3367 3378 3283 2499 3087 2561 2755 2048 1092 1289 1276 1045 503 350 243 5 10 168 95 62 23 0 0 20 30 77 4 9 70
7 142 334 545 634 772 1029 1465 1820 2232 2914 3069 3045 3206 3189 3376 3289 3369 2747 3384 2680 2363 1781 1556 1290 1179 496 448 316 86 54 45 1 6 9 0 14 153 108 240 100 88 62
13 309 267 753 690 793 975 1288 1663 1941 2403 2814 2854 2926 3084 3174 3088 3298 3480 3036 3188 2753 2404 1844 1584 1358 646 447 242 343 358 143 43 147 63 47 154 190 148 88 150 190 142
187 109 303 606 865 1017 1077 1124 1285 1472 1654 2285 2646 2884 3151 3138 3162 3110 3442 3500 3360 3361 2932 2467 1861 1577 803 513 540 514 425 349 299 473 98 52 296 404 366 357 249 353 157
16 311 222 934 1452 1308 1243 1195 1130 1279 1370 1637 2230 2527 2935 3304 3165 3291 3180 3579 3510 3664 3292 2781 1929 1580 870 256 271 397 473 395 429 383 406 120 161 125 206 103 136 184 86
0 215 724 902 1626 1965 1607 1365 1244 1366 1280 1619 2085 2215 2652 3179 3379 3293 3290 3396 3601 3513 3252 2943 1926 1328 730 25 1 141 314 112 253 774 430 250 282 579 619 187 127 114 97
0 0 210 1205 1390 2226 2165 2011 1725 1585 1548 2035 2269 2519 2954 3386 3488 3464 3422 3556 3665 3469 3057 2531 1647 751 282 76 9 2 4 9 257 405 434 291 312 681 571 374 387 233 68
187 18 0 1106 1509 2120 2139 2603 2346 1951 2561 2268 3416 3004 4172 4133 4058 4026 3966 3822 3462 2875 2383 1818 889 298 183 39 22 4 0 2 150 247 262 450 605 722 483 431 332 49 116
0 18 27 1294 1761 2295 2443 2623 2918 2787 2404 3255 3344 4021 4147 4407 4361 4150 3798 3080 2498 2120 1801 1285 749 319 278 458 235 59 98 49 201 278 231 297 439 482 295 167 90 115 99
11 220 1623 1863 2203 2615 2810 2824 3055 3295 3289 3710 3739 3861 4009 4147 4085 3719 2990 2308 1986 1988 1568 1059 692 567 355 711 416 167 265 317 321 224 464 594 412 284 81 25 105 89 0
393 1209 2081 2500 3028 2867 3064 3258 3219 3466 3552 3611 3669 3746 3797 3484 3263 2793 2262 2163 1924 1664 1382 973 744 719 819 473 324 103 127 323 344 492 478 435 158 67 17 0 0 0 0
1690 2099 2993 3078 3030 3208 3126 3078 3053 2924 3013 3081 3350 3410 3141 2857 2643 2259 1998 1926 1731 1325 1078 1155 1069 925 740 762 222 70 0 5 100 276 99 2 0 0 0 0 0 0 0
2014 2369 2398 2545 2636 2749 2905 3077 3058 3166 3176 3269 3076 2782 2409 2258 2112 2043 1969 1572 1340 1127 1130 1123 1119 927 1026 719 267 110 0 0 0 0 0 0 0 0 0 0 0 0 0
2021 2097 2218 2608 2844 3425 3185 3228 3343 3271 2883 2639 2382 2043 1745 1635 1418 762 887 1138 341 586 1125 958 865 791 765 750 264 0 0 0 0 0 0 0 0 0 0 0 1 6 8
2159 2272 2453 2706 2836 2759 2780 2991 3011 2457 2258 2090 1854 1549 1466 1170 734 468 138 0 0 0 0 12 587 8 42 0 0 0 0 0 0 33 147 59 94 95 62 35 38 29 26

GFSMW_con_mlcape_015.txt.gz
CAPE
139 374 365 339 518 659 702 822 946 1270 1019 916 1009 572 666 1052 896 807 941 925 1040 1114 1349 1240 1033 1333 953 482 234 16 0 0 0 0 3 4 24 5 0 0 0 0 1
58 261 332 336 484 690 704 600 615 1657 1412 1246 1004 777 1445 1501 976 487 606 1161 1114 1533 1209 769 766 996 1071 356 10 0 0 0 1 0 0 12 12 26 0 0 0 0 0
79 152 227 316 329 610 781 709 540 1162 1726 1561 1158 1044 1138 1325 1589 1113 1527 1554 1733 1365 1039 1138 1010 924 349 182 0 0 0 0 8 0 0 6 7 20 1 4 0 0 0
77 124 273 319 325 610 901 916 845 902 1476 1772 1430 1106 791 524 990 1277 1145 1496 1681 1398 1216 1335 1209 737 41 0 0 23 0 9 0 0 0 0 0 10 21 9 0 5 0
25 90 362 331 424 553 798 1184 1078 1087 1307 1546 1414 1196 863 590 1058 1253 1385 1623 1812 1519 1484 1291 1208 499 2 89 58 20 1 41 11 0 0 0 0 2 0 16 23 25 9
0 43 236 422 398 748 1050 1359 1420 1314 1649 1428 1609 1301 1071 1027 1088 912 1040 1280 1538 1049 1294 1217 837 316 0 34 62 63 23 58 21 0 0 0 0 0 0 0 0 6 16
5 0 171 507 514 806 1128 1472 1559 1597 1871 1668 1340 1683 1612 1347 1066 633 1202 1375 1457 1254 1619 1288 500 250 1 108 93 63 54 60 9 7 0 0 0 0 0 0 0 0 2
29 4 106 389 662 740 1156 1624 1754 1650 1852 1968 1709 1317 1955 1575 1101 981 1852 1370 1265 1331 1125 880 462 245 23 319 148 148 61 80 0 15 0 0 0 0 0 0 0 0 0
6 40 89 324 649 737 1235 1449 2167 2004 2098 2210 2190 1881 1592 1891 1690 1356 1342 1598 1269 1362 1248 818 518 262 138 8 282 178 45 115 17 0 0 0 0 0 0 0 0 0 0
12 60 84 319 620 767 1132 1428 2111 2203 2298 2113 2457 2258 1940 1804 1701 2020 1534 1427 1310 1100 996 992 633 520 252 120 185 139 84 0 81 35 2 0 0 1 0 0 0 0 0
47 95 141 358 709 908 1174 1442 1894 2398 2463 2567 2379 2618 2212 2247 1820 1912 2117 1272 1599 1124 925 1016 867 614 430 227 202 136 57 24 4 18 0 8 1 5 0 4 0 0 0
51 137 279 380 877 1042 1076 1408 2171 2388 2579 2710 2716 2705 2627 2591 2305 1854 2091 1775 1394 1515 1269 1005 998 848 548 296 194 124 91 3 81 0 0 0 13 8 0 4 3 32 34
134 415 285 629 976 1132 1098 1464 1996 2580 2831 3013 3007 2899 2719 2862 2674 2263 2097 2140 1796 1596 1469 1288 970 864 718 451 306 157 71 17 18 19 0 3 0 0 1 40 38 63 62
0 167 406 609 943 1232 1228 1359 1829 2542 2917 3199 3130 2998 2830 2705 2835 2918 2250 2236 2761 2234 1664 1345 1137 917 779 533 422 260 125 2 37 121 105 101 6 0 61 121 123 103 75
11 45 507 499 928 1209 1313 1413 1706 1939 2769 2982 3116 2932 2904 2910 2995 2957 3080 2512 2422 2792 2411 1783 1311 1119 862 593 497 324 172 129 0 178 64 25 16 2 59 157 99 95 103
27 166 419 575 608 886 1128 1419 1611 1916 2246 2777 2892 2888 2870 2958 2997 3091 3019 3189 2840 2706 2715 2361 1805 1486 1248 842 613 421 331 236 223 103 156 236 128 127 279 380 285 244 125
170 374 417 669 700 758 949 1257 1550 1718 1997 2354 2734 2769 2699 2885 2962 3040 3025 3158 3306 3165 3139 2850 2371 1871 1589 843 489 448 374 330 332 243 267 553 348 128 146 167 216 201 145
45 84 169 980 998 980 943 1145 1397 1725 1825 1897 2422 2557 2707 2674 2998 3078 3153 3116 3331 3355 3368 3158 2775 2291 1550 792 450 203 277 320 303 365 490 306 285 179 288 398 394 219 146
10 0 422 429 1774 1442 1124 1126 1234 1519 1583 1648 1851 2262 2397 2713 2990 3194 3220 3241 3339 3417 3313 2850 2410 1957 1232 618 120 8 11 115 103 112 215 381 367 302 248 184 156 191 165
0 0 0 229 632 1763 1729 1337 1261 1377 1343 1418 1728 2051 2205 2641 3079 3273 3290 3405 3350 3007 2794 2498 1994 1283 864 267 177 16 3 0 0 3 35 264 238 238 132 42 73 61 88
0 0 0 373 818 1634 2148 1889 1590 1363 1733 1411 2607 2384 2769 3358 3446 3573 3446 3117 2712 2668 2426 1900 1113 712 629 403 153 36 79 164 174 92 76 120 74 148 82 75 102 121 36
881 38 117 236 860 1917 2349 2538 2195 2101 2133 3272 3014 3816 4003 4189 3742 3558 2827 2513 2477 2089 1566 1289 1038 739 502 387 216 330 246 362 275 224 253 191 255 112 75 70 4 0 0
1528 2320 1589 1610 2280 2467 2666 2920 3467 3301 3149 3380 3837 3858 3772 3541 3310 2805 2288 2023 1807 1633 1405 1195 925 769 782 564 405 210 51 12 216 192 149 6 18 16 11 0 0 0 0
1953 2739 3097 3204 3179 3242 3292 3356 3466 3497 3532 3481 3352 3154 3017 2675 2297 1931 1742 1649 1509 1352 1138 878 846 843 655 461 237 33 0 0 0 0 1 2 0 0 0 0 0 0 0
2542 2661 2913 3118 3259 3345 3309 3284 3359 3308 3197 2888 2587 2469 2292 1839 1113 541 873 1146 483 740 840 931 942 778 634 624 321 6 0 0 0 0 0 0 0 0 0 0 0 0 0
2278 2850 3048 3112 3171 3159 3110 2970 2821 2783 2489 2179 1995 1905 1420 1018 772 623 318 0 16 9 271 789 575 128 422 323 8 0 0 0 0 0 0 0 0 0 0 0 2 0 5

GFSMW_con_mlcape_018.txt.gz
CAPE
462 369 203 268 455 584 707 858 692 580 642 567 927 673 502 502 591 924 720 1187 1257 1231 740 709 1084 1056 881 434 185 4 0 0 0 0 0 7 9 4 0 0 148 92 235
326 363 302 324 331 522 814 888 752 623 560 691 765 658 391 446 413 757 735 780 805 1023 819 898 958 922 681 257 19 0 0 0 0 0 0 0 13 0 0 0 23 16 23
209 257 272 366 371 561 650 785 801 769 641 669 663 635 581 636 862 964 790 762 851 1010 937 1092 732 612 771 457 27 0 0 0 0 0 0 0 0 16 0 0 0 0 0
63 141 279 199 368 487 608 645 913 1002 942 956 772 811 435 793 1094 1176 999 872 1085 1057 1228 806 755 284 413 169 0 0 0 0 0 0 0 0 0 0 0 0 0 0 0
43 20 167 228 210 431 507 543 698 1128 1148 1146 977 889 656 739 791 953 1167 1302 1345 1220 1142 938 865 377 105 0 0 0 0 9 0 0 0 0 0 0 0 0 0 0 0
42 1 83 147 173 320 535 522 489 1048 1228 1255 1177 945 831 761 602 424 802 1231 1421 1431 1146 1056 993 289 107 25 9 0 0 15 11 0 0 0 0 0 0 0 0 0 0
23 0 21 102 130 208 535 699 634 633 1171 1200 1176 1135 1015 904 699 252 758 1189 1393 1351 1296 1131 878 347 85 0 3 3 0 0 1 0 0 0 0 0 0 0 0 0 0
25 8 19 113 115 234 561 892 811 742 1046 1220 1212 1186 1143 990 725 487 768 1116 1141 1289 1169 975 707 425 125 0 0 5 0 0 0 0 0 0 0 0 0 0 0 0 0
0 0 9 86 183 258 635 844 994 952 1141 1155 1186 1243 1217 1089 891 923 1256 1257 1279 1173 1035 955 851 468 120 48 26 49 11 23 1 0 0 0 0 0 0 0 0 0 0
5 2 0 110 266 241 671 962 1181 1103 1243 1390 1292 1240 1334 1421 1195 1180 1167 1163 1389 1294 1047 1032 831 433 179 72 34 32 67 14 9 0 0 0 0 0 0 0 0 0 0
43 26 37 67 196 364 713 1141 1285 1291 1464 1646 1620 1516 1289 1259 1522 1468 1454 1267 1205 1223 1110 964 733 478 243 114 54 20 53 20 0 7 0 0 0 0 0 0 0 0 0
53 39 61 60 163 490 747 1097 1520 1479 1534 1715 1816 1767 1667 1600 1370 1365 1485 1556 1509 1143 1157 1062 835 585 408 229 118 89 50 19 0 0 14 5 0 0 1 4 0 6 0
22 15 13 54 211 512 713 1159 1484 1703 1823 1882 1936 2113 1992 1929 1794 1478 1529 1560 1526 1387 1144 955 906 704 601 400 301 191 55 10 6 0 0 0 0 0 15 10 0 22 45
11 5 45 73 292 580 728 1143 1334 1942 1999 2197 2038 2078 2207 2089 2075 1955 1692 1686 1616 1569 1387 1163 1077 934 654 494 458 324 170 32 28 0 0 0 0 9 1 2 0 34 74
0 4 9 148 383 713 838 1112 1427 1810 2124 2261 2376 2192 2257 2356 2348 2304 2075 1849 1842 1741 1625 1389 1261 1036 899 705 563 407 280 101 62 38 0 34 60 29 19 8 0 72 99
21 0 14 164 290 705 917 1032 1346 1990 2237 2395 2402 2590 2482 2458 2448 2571 2532 2176 2016 2132 1912 1635 1503 1368 1115 897 663 586 430 270 126 77 0 2 69 139 83 9 8 49 143
0 0 42 237 457 766 948 1045 1407 1902 2400 2408 2655 2758 2706 2604 2559 2586 2659 2691 2381 2207 2185 2091 2010 1824 1548 1192 824 604 489 443 334 146 69 11 197 206 209 169 147 175 114
0 17 118 323 611 820 1048 1104 1336 1733 2294 2493 2641 2866 2751 2676 2693 2730 2740 2751 2835 2593 2481 2330 2160 2141 1956 1510 1025 659 534 465 402 350 182 136 207 253 237 115 102 123 62
0 0 396 428 530 783 1018 1171 1328 1690 1909 2353 2513 2687 2724 2628 2722 2662 2755 2808 2929 2949 2854 2874 2620 2393 1648 1506 1057 792 550 466 407 314 327 412 383 342 158 100 208 117 49
0 0 27 328 686 708 761 1020 1241 1531 1747 1959 2261 2550 2626 2573 2625 2743 2785 2844 2941 2926 3019 2943 2739 2450 1746 1117 1064 721 431 398 219 201 233 142 100 190 21 133 145 93 9
0 0 0 87 944 889 745 768 969 1212 1491 1829 1967 2348 2542 2532 2559 2796 2861 2923 2956 2937 2714 2480 2026 1681 1747 1035 670 226 133 33 1 0 0 14 0 88 49 74 38 51 32
46 0 0 0 38 632 1057 915 891 962 1295 1563 1630 1789 2210 2347 2606 2842 2941 2907 2779 2643 2196 1763 1737 1641 1078 786 403 147 42 27 57 201 180 70 34 28 0 28 45 39 14
997 791 19 0 0 262 695 852 1029 1089 1258 1289 1574 1762 2000 2386 2782 2807 2664 2570 2452 2144 1760 1549 1507 988 587 347 197 71 30 95 358 306 145 32 0 0 0 0 19 0 0
1985 2458 2341 663 561 707 1594 1137 1341 1538 1653 1724 2324 2615 2564 2689 2676 2476 2316 2276 2031 1769 1565 1318 1021 734 625 419 142 50 2 0 47 4 0 0 0 0 0 0 0 0 0
563 622 1754 2716 2521 2096 2413 2666 2269 2488 2456 2629 2538 2575 2114 1991 1304 630 1094 1370 1214 1443 1261 909 764 695 620 493 270 139 30 1 0 0 0 0 0 0 0 0 0 0 0
14 82 0 266 606 311 2802 3068 2792 2562 2456 2453 2123 1274 1001 590 397 601 48 0 23 481 661 638 642 397 526 414 199 2 0 0 0 0 0 0 0 0 0 0 0 0 0

GFSMW_con_mlcape_021.txt.gz
CAPE
458 359 266 199 130 344 484 467 627 670 635 589 703 511 552 621 651 690 737 841 899 897 919 572 766 574 708 654 356 92 0 0 0 0 0 5 0 5 0 45 130 230 421
519 465 316 280 205 223 375 461 507 551 617 485 677 713 628 605 563 634 658 851 948 990 943 597 734 827 877 483 204 1 0 0 0 0 0 0 0 0 0 16 39 34 128
387 508 376 214 302 281 403 472 479 513 463 406 547 702 651 560 510 392 676 609 973 1133 1053 762 708 850 670 435 87 3 0 0 0 0 0 0 0 0 0 3 19 17 20
295 274 343 215 237 312 407 494 539 529 418 343 443 435 500 404 378 380 480 744 756 761 857 866 849 698 566 335 149 1 0 0 0 0 0 0 0 0 0 0 0 0 0
193 225 236 254 227 251 424 566 573 521 492 367 447 436 418 274 323 397 534 898 871 655 799 837 855 398 406 491 149 4 0 0 0 0 0 0 0 0 0 0 0 0 0
169 184 201 188 265 255 423 570 568 563 559 460 489 512 527 363 348 391 724 979 1131 1104 1037 894 843 518 103 113 44 0 0 0 0 0 0 0 0 0 0 0 0 0 0
76 106 129 169 178 338 503 513 473 623 674 618 615 633 632 484 453 526 694 834 912 1145 1202 1061 894 633 224 93 4 0 0 0 0 0 0 0 0 0 0 0 0 0 0
3 21 55 64 148 185 429 512 470 679 847 817 797 751 741 594 530 504 543 490 692 1003 1252 1213 1024 738 209 82 46 0 0 0 0 0 0 0 0 0 0 0 0 0 0
0 9 26 13 72 108 228 454 439 539 971 973 945 839 759 697 636 621 652 679 532 1121 1178 1196 1080 734 371 98 38 0 0 0 0 0 0 0 0 0 0 0 0 0 0
1 5 5 28 43 100 112 398 493 458 646 999 997 894 803 817 787 760 786 653 527 1038 998 1121 1071 691 406 176 51 2 0 1 0 0 0 0 0 0 0 0 0 0 0
0 0 18 18 34 59 70 292 557 559 540 851 987 972 895 960 907 879 838 790 853 1084 1119 1070 1022 676 468 256 135 59 0 0 0 0 0 0 0 0 0 0 0 0 0
0 4 33 31 38 76 98 336 549 670 670 809 923 953 982 1086 1065 967 964 837 873 1078 1141 1124 971 719 604 394 248 146 35 2 0 0 0 0 0 0 0 0 0 2 0
0 0 1 0 7 42 157 429 637 777 867 922 1060 1059 1028 1025 1108 1194 1194 1121 970 1168 1042 1034 1076 842 691 500 223 175 135 52 28 0 0 0 0 0 0 0 5 7 3
0 0 0 1 13 13 159 429 769 913 1036 1166 1255 1274 1271 1186 1089 1176 1276 1318 1203 1134 1209 1151 1034 1014 848 633 414 261 203 114 108 18 4 0 0 0 0 2 10 5 3
0 0 0 0 0 7 188 448 767 1116 1194 1274 1451 1411 1483 1458 1445 1370 1261 1277 1287 1310 1141 1165 1154 1044 894 760 619 484 394 352 269 38 31 14 0 0 0 1 8 0 1
0 0 16 41 4 21 157 378 762 1120 1423 1441 1506 1631 1698 1687 1698 1723 1619 1498 1410 1408 1264 1176 1125 1137 1128 895 730 656 567 438 339 296 153 46 0 0 5 12 20 26 8
0 0 0 6 14 24 221 402 700 1076 1582 1613 1707 1774 1781 1804 1874 1941 1922 1792 1666 1621 1415 1353 1309 1181 1396 1137 1006 753 648 495 346 366 311 156 53 0 1 43 39 16 3
0 0 0 0 1 109 289 511 789 1143 1473 1737 1890 2051 2005 1891 2015 2109 2104 2080 1895 1825 1795 1528 1436 1431 1468 1280 1039 971 790 609 487 459 423 376 254 99 16 73 117 39 6
0 0 0 0 32 156 340 734 927 1107 1606 1802 1959 2134 2264 2206 2150 2118 2159 2288 2236 1952 1977 1822 1671 1688 1732 1544 1507 1116 839 702 684 560 587 363 319 226 111 283 180 21 36
0 0 0 0 28 216 555 854 982 1226 1495 1843 2007 2249 2396 2385 2320 2244 2256 2318 2404 2357 2117 2149 2093 2036 2069 1753 1621 1376 1077 886 992 912 484 368 350 308 225 323 176 10 23
0 0 0 0 147 419 796 979 1070 1162 1394 1835 2110 2349 2546 2516 2444 2403 2389 2469 2504 2598 2499 2511 2413 2294 2234 1731 965 1204 1210 1158 890 642 298 119 85 3 0 4 47 19 2
861 740 0 0 263 383 697 898 1074 1112 1313 1562 1883 2188 2351 2568 2446 2459 2484 2601 2651 2741 2796 2575 2350 2269 1749 1106 680 1250 872 493 330 89 2 1 20 0 0 0 2 0 0
1139 1651 1454 1147 137 20 680 728 876 1125 1308 1404 1578 1770 2206 2420 2416 2474 2515 2619 2672 2727 2273 2258 2228 1728 1156 755 696 726 225 105 67 6 14 20 0 0 0 0 0 0 0
418 1246 1237 805 780 1270 1001 873 862 852 1111 1328 1408 1554 1951 2295 2332 2496 2607 2664 2719 2445 2078 1925 1709 1294 1045 632 185 107 0 0 0 1 0 0 0 0 0 0 0 0 0
57 161 878 1553 1572 807 915 832 1127 1187 936 1113 1296 1398 1739 2133 2415 1804 2242 2547 1841 1754 1496 1171 956 1070 628 399 203 47 6 0 14 0 0 0 0 0 0 0 0 0 0
0 0 0 0 0 16 25 345 990 2021 1302 1072 1358 1705 1924 1282 1037 1102 775 72 303 729 418 526 135 218 194 178 133 41 10 0 0 0 3 0 0 0 0 0 0 0 0

GFSMW_con_mlcape_024.txt.gz
CAPE
213 152 104 197 191 224 312 374 464 438 405 175 63 41 364 557 658 424 388 520 619 733 840 725 687 484 503 588 393 124 0 0 0 0 0 0 0 0 0 41 176 302 432
308 250 127 100 143 194 258 338 377 481 506 336 355 370 492 492 662 458 542 628 647 775 831 693 647 523 561 548 301 64 0 0 0 0 0 0 0 0 0 33 41 82 183
372 307 252 142 65 108 210 279 356 436 523 477 425 397 420 396 431 561 566 521 691 801 818 685 653 600 672 622 326 56 0 0 0 0 0 0 0 0 0 2 12 26 26
441 324 290 207 119 39 89 209 261 391 435 478 404 306 359 378 357 552 505 512 638 775 822 878 790 641 703 480 285 29 0 0 0 0 0 0 0 0 0 0 0 0 0
439 417 340 243 188 95 48 120 175 241 334 413 438 327 331 426 352 416 427 406 470 617 883 991 840 727 691 471 201 75 0 0 0 0 0 0 0 0 0 0 0 0 0
344 396 290 296 173 123 117 170 231 236 316 341 420 321 245 225 245 324 302 279 413 575 675 695 690 701 518 365 265 131 0 0 0 0 0 0 0 0 0 0 0 0 0
288 261 217 129 190 126 142 208 306 335 342 316 322 322 233 228 199 257 317 176 393 697 809 771 764 751 481 284 160 60 0 0 0 0 0 0 0 0 0 0 0 0 0
193 251 229 109 116 146 158 246 326 337 374 332 306 320 284 268 251 249 283 224 318 763 925 997 972 811 605 364 121 4 0 0 0 0 0 0 0 0 0 0 0 0 0
0 42 177 126 56 101 140 231 342 365 401 417 360 322 349 343 318 310 346 395 542 647 844 844 952 880 680 504 203 49 17 0 0 0 0 0 0 0 0 0 0 0 0
0 0 4 28 37 50 119 206 322 335 410 494 491 452 447 453 433 403 430 438 518 673 702 735 1007 947 756 524 278 114 50 0 0 0 0 0 0 0 0 0 0 0 0
0 0 0 3 4 11 46 162 288 356 388 597 628 630 601 597 514 472 525 543 567 666 810 671 953 899 819 625 428 179 96 13 0 0 0 0 0 0 0 0 0 0 0
0 0 0 0 5 2 13 63 253 336 363 650 793 797 755 735 625 564 605 638 652 719 806 624 909 923 709 709 627 465 215 83 1 0 0 0 0 0 0 0 0 0 0
0 0 0 0 0 0 2 29 149 350 397 454 832 912 883 812 765 680 710 682 801 853 836 712 858 952 895 692 628 551 502 270 98 1 0 0 0 0 0 0 0 0 0
0 0 0 0 0 0 7 18 121 303 497 519 675 855 918 893 863 846 820 770 849 893 957 895 1029 1031 1014 824 680 579 630 496 272 93 5 12 0 0 0 0 0 0 5
0 0 0 0 0 0 4 37 155 287 522 617 679 852 930 965 975 1029 983 985 957 982 1002 915 953 1047 956 935 846 662 678 611 433 218 80 53 10 2 0 0 0 0 0
0 0 0 0 0 0 46 121 214 398 569 692 723 904 1065 1046 1005 1010 1102 1116 1157 1180 1087 1054 940 1067 1112 921 760 913 825 619 527 447 273 158 62 2 0 0 0 0 0
0 0 0 0 0 26 110 186 301 556 739 797 924 1077 1206 1246 1219 1189 1103 1080 1118 1217 1191 1176 1102 1001 1196 1024 893 845 934 909 716 590 430 331 229 113 42 1 0 0 0
0 0 0 0 0 26 35 173 338 623 801 987 1047 1259 1412 1453 1483 1487 1367 1278 1228 1178 1243 1225 1211 1145 1107 997 890 843 984 988 862 741 619 644 564 343 198 115 8 0 3
0 0 0 0 0 0 23 146 340 581 842 1107 1202 1353 1536 1598 1626 1645 1622 1630 1558 1430 1398 1356 1288 1338 1283 936 825 806 970 977 1032 864 696 726 602 357 197 141 58 0 13
0 0 0 0 0 0 0 129 352 593 696 1113 1327 1528 1623 1629 1690 1777 1856 1870 1837 1707 1608 1514 1455 1481 1535 1058 915 935 1160 1181 1156 880 791 681 606 369 124 175 112 205 99
0 0 0 0 0 0 0 53 227 395 651 1063 1528 1773 1864 1826 1830 1913 2118 2130 2144 2010 1779 1698 1604 1662 1626 1393 1066 1009 1363 1467 1195 1201 910 668 443 240 99 116 123 19 7
783 279 0 0 0 0 66 215 340 501 821 1163 1497 1715 1967 2129 2164 2086 2167 2163 2271 2225 2040 1852 1890 1868 1819 1750 954 981 1426 1311 1490 1367 859 566 159 32 0 0 0 0 3
1238 1374 906 702 238 0 247 407 586 702 876 1100 1527 1893 2112 2275 2300 2335 2281 2255 2244 2314 2257 2128 2088 2085 1706 853 999 1117 1246 1186 1118 781 360 4 0 0 0 0 0 0 0
2 185 437 606 458 696 1201 982 977 1051 699 948 1287 1674 2125 2290 2530 2413 2375 2389 2323 2242 2049 1820 2236 1886 1005 891 692 721 379 329 252 0 0 2 0 0 0 0 0 0 0
0 0 0 0 0 0 0 0 55 1226 1961 1192 919 1326 1822 2209 2477 1887 1857 2317 2377 2421 2448 2031 1678 1098 761 469 146 2 50 62 16 0 0 14 0 0 0 0 0 0 0
0 0 0 0 0 0 0 0 0 0 464 1135 1245 1151 1475 1936 1460 1076 700 831 1216 1374 770 331 147 1 0 0 28 9 4 0 0 57 64 14 0 0 0 0 0 0 0

GFSMW_con_mlcape_027.txt.gz
CAPE
259 232 228 324 366 432 528 558 589 600 562 481 278 123 5 47 288 597 644 764 1001 1182 1353 1337 1472 1340 1089 1232 1034 733 247 9 0 0 1 7 31 25 40 462 259 726 778
384 327 307 340 407 466 533 609 646 785 643 580 398 195 87 150 745 1169 1253 1108 1083 1207 1427 1393 1436 1332 1177 1024 1074 546 102 4 0 2 4 1 0 2 1 305 204 385 151
485 382 332 306 424 461 523 542 622 842 814 600 656 534 628 744 908 1188 1161 1002 1222 1307 1359 1506 1429 1372 1245 1298 1211 550 141 19 36 0 9 0 0 3 0 43 117 128 47
574 542 415 354 348 465 494 546 642 814 945 942 788 573 358 272 643 922 1158 1192 1200 1299 1385 1540 1395 1311 1360 1326 1228 522 196 8 2 0 0 0 25 0 0 0 19 19 18
640 593 552 426 391 359 394 501 606 739 854 1004 883 818 678 641 825 898 981 1164 1217 1230 1412 1557 1406 1402 1415 1374 1071 466 249 74 0 0 0 0 0 0 0 0 0 0 5
645 684 635 600 495 386 278 427 606 576 771 873 891 875 910 790 783 861 797 877 1085 1141 1191 1544 1618 1714 1482 1366 1230 631 445 179 6 31 3 0 0 0 0 0 0 0 0
654 673 684 604 587 517 428 313 502 516 627 666 783 863 826 909 748 753 829 901 922 971 1154 1268 1411 1454 1257 1311 1133 736 495 244 42 0 51 43 0 0 0 0 0 0 0
525 657 717 744 661 593 535 445 476 538 599 595 616 767 840 960 909 815 851 952 916 962 1139 1287 1403 1384 1289 1219 956 776 498 169 96 26 0 33 37 0 0 0 0 0 0
446 480 649 697 626 679 549 527 490 605 657 625 631 662 804 840 882 852 892 901 1049 1005 1256 1305 1418 1541 1481 1278 999 692 387 141 78 46 21 0 33 20 0 0 0 0 0
99 307 590 607 593 536 608 476 543 590 724 737 720 735 759 830 884 940 820 885 1032 1067 1096 1365 1554 1556 1418 1349 1139 923 508 243 152 70 56 37 17 12 12 0 0 0 0
0 0 251 584 638 500 504 526 575 672 771 809 821 798 813 875 901 945 932 921 1061 1117 1209 1341 1363 1475 1322 1353 1264 1146 745 434 370 126 47 48 22 2 3 0 0 0 0
0 0 29 187 362 523 441 521 597 729 790 866 932 909 928 956 923 909 946 994 1005 1123 1215 1356 1382 1445 1348 1385 1293 1261 966 696 548 353 59 22 11 0 0 0 0 0 0
0 0 4 30 136 347 458 424 538 626 797 958 1002 1089 1076 1069 1044 1011 1055 1088 1108 1140 1189 1344 1377 1426 1426 1361 1264 1339 1271 906 772 550 249 46 34 0 0 0 0 0 0
0 0 0 1 23 135 302 397 482 634 765 904 1015 1080 1121 1143 1169 1160 1177 1172 1215 1158 1206 1329 1440 1460 1425 1369 1333 1262 1372 1188 948 780 508 287 107 28 0 0 0 2 0
0 0 0 0 1 72 229 267 445 605 736 925 974 1081 1214 1339 1367 1274 1247 1298 1363 1242 1277 1298 1419 1482 1376 1268 1354 1307 1428 1348 1138 993 784 531 323 127 48 2 41 62 22
0 0 0 0 0 24 149 252 343 489 732 826 808 1040 1387 1471 1438 1402 1358 1339 1363 1352 1455 1451 1442 1441 1397 1191 1078 1304 1431 1369 1311 1302 1143 789 345 132 21 1 5 90 83
0 0 0 0 0 0 96 186 297 490 660 766 879 1070 1279 1449 1502 1531 1533 1420 1481 1445 1410 1404 1453 1474 1526 993 754 824 1393 1448 1470 1480 1444 1128 626 321 209 35 0 0 0
0 0 0 0 0 0 23 250 421 471 673 842 1046 1221 1278 1378 1511 1601 1601 1619 1614 1541 1518 1475 1475 1503 1584 1071 683 651 1251 1470 1509 1566 1550 1320 1001 715 517 530 250 53 5
0 0 0 0 0 0 0 190 422 607 765 823 1034 1202 1194 1373 1572 1544 1566 1688 1741 1764 1732 1751 1659 1567 1642 1107 814 642 1084 1538 1581 1664 1554 1292 1160 856 432 608 538 239 197
0 0 0 0 0 0 9 175 366 631 711 874 962 1138 1408 1519 1558 1696 1777 1827 1769 1794 1828 1843 1782 1637 1690 1183 846 797 1309 1490 1596 1659 1446 907 1082 824 432 572 661 644 468
0 0 0 0 0 0 0 0 255 511 702 1186 1545 1716 1751 1803 1882 1980 2080 2125 2113 2080 1974 1937 1831 1721 1580 1817 853 825 1407 1506 1571 1505 1159 1258 647 612 248 304 918 720 638
8 0 0 0 0 12 3 3 163 738 1107 1351 1499 1765 1865 1903 2014 2120 1936 2194 2303 2344 2394 2293 2083 2022 2019 1550 933 760 1076 1477 1552 1150 1207 1421 724 384 272 183 566 297 129
879 388 4 0 3 254 623 638 718 852 1132 1244 1529 1853 2128 2268 2269 2412 2390 2316 2221 2229 2308 2230 2143 2059 1803 1863 1205 845 670 1118 1291 1113 1178 1095 545 302 41 42 49 0 40
1073 707 617 718 833 901 773 844 1166 1281 1145 1310 1494 1801 2077 2394 2631 2719 2598 2429 2166 1180 511 2247 2212 2044 1858 1663 542 477 568 788 884 673 252 158 57 5 1 0 0 82 55
0 19 33 30 10 20 11 4 96 1427 2166 1642 1504 1766 2211 2331 2721 2767 2713 2540 2282 2220 1972 2282 2268 2281 1625 720 128 132 26 47 11 11 19 5 0 0 0 1 1 10 0
0 0 0 0 0 0 0 0 1 0 157 687 1184 1306 1650 2127 2483 2868 2207 1220 1476 2067 1846 2205 2257 1563 600 0 14 108 22 0 0 16 0 1 0 24 2 0 0 0 0

GFSMW_con_mlcape_030.txt.gz
CAPE
494 356 385 423 510 622 714 775 808 901 1076 980 769 475 117 22 5 84 360 848 1439 1780 2107 1601 1354 1633 1279 1064 1037 883 694 86 48 0 14 26 33 32 36 41 31 39 46
600 449 400 411 410 557 659 901 888 1000 1163 1005 828 366 71 35 49 158 689 1386 1627 1977 2084 1800 1426 1579 1384 1449 1486 945 341 87 0 9 23 20 17 18 32 30 24 10 15
713 547 368 349 370 477 691 941 1237 1315 1468 985 883 648 244 172 219 388 1160 1715 1990 1982 2260 1629 1094 1682 1514 1262 1644 1287 728 49 0 43 30 6 17 15 6 35 29 12 16
810 725 483 414 394 520 729 895 1329 1573 1749 1405 825 810 232 86 189 438 902 1238 1754 1854 1988 1943 1772 2213 1599 1602 1631 1414 831 494 0 0 0 33 150 12 18 2 15 6 12
816 862 717 438 458 558 692 910 1310 1665 1710 1805 1121 1131 910 320 221 372 906 1693 1751 1861 1716 2020 2206 2205 2010 1767 2132 1564 1234 578 4 0 0 0 0 0 2 26 17 16 15
772 857 923 697 511 596 761 877 1332 1689 1732 1730 1682 1524 1451 1044 502 732 791 968 1096 1422 1691 1806 2161 2207 2072 2068 2162 1913 1394 979 186 0 5 0 0 0 0 1 0 14 24
688 818 971 996 733 601 758 872 1219 1664 1696 1620 1707 1715 1699 1702 1396 1351 1165 1081 805 736 1186 1872 2001 1961 2368 2083 2140 2168 1432 1366 626 82 4 0 0 0 0 0 0 0 5
719 788 950 1084 1078 832 907 969 1142 1573 1714 1603 1829 1962 2007 1595 1668 1628 1255 1217 930 927 994 1598 1806 1958 1971 2183 2093 2082 1687 1136 954 338 38 1 15 16 0 0 0 0 0
672 835 889 1044 1149 1190 1211 1272 1333 1593 1670 1584 1897 2051 2060 1860 1301 1557 1865 1391 1475 1147 1252 1393 1845 1817 1965 2100 2177 1904 1770 899 911 275 291 37 4 39 4 0 0 0 0
569 772 903 968 1110 1270 1316 1378 1495 1437 1593 1688 1791 1778 1876 2037 1866 1951 1964 1744 1559 1595 1265 1575 1676 1774 1979 2256 2307 1845 1768 1473 832 318 82 175 0 21 22 0 0 0 0
358 499 614 802 986 1212 1383 1467 1559 1588 1622 1725 1855 1819 1780 1840 1977 1951 2011 2098 1827 1942 1871 1781 1787 1677 2069 2296 2413 2100 1717 1767 1316 795 253 283 141 9 0 6 2 0 0
0 36 249 514 738 1021 1212 1399 1442 1525 1616 1684 1893 1874 1924 1918 1803 1979 2008 2147 2027 2015 2163 2070 2030 1864 1820 2062 2239 2254 1711 1872 1628 1402 949 382 242 282 49 15 27 0 0
0 17 21 88 486 820 1065 1068 1372 1317 1398 1756 1797 1813 1841 1865 1931 2102 2081 2162 2123 2172 1873 2175 2280 2113 1954 2015 2103 2199 2229 1970 1938 1705 1445 936 300 293 38 59 0 0 0
0 0 0 21 163 519 1042 1265 990 1164 1196 1444 1648 1848 2040 1947 2016 2188 2135 2188 2255 2279 2227 2198 2534 2375 2165 2035 1982 2011 2144 2175 2011 2018 1778 1356 901 479 425 158 94 7 0
0 0 33 101 363 490 900 1475 1106 1037 1115 1449 1578 1898 2156 2261 2223 2194 2206 2246 2379 2308 2367 2352 2433 2581 2194 1965 2181 2104 2012 2236 2140 2104 2068 1766 1404 842 725 532 269 140 170
0 0 0 0 181 592 975 1013 1414 1144 1137 1504 1688 1861 2214 2422 2343 2374 2319 2355 2339 2386 2417 2313 2494 2461 2219 1811 1559 2053 1973 2348 2288 2242 2193 1994 1323 919 456 324 223 334 344
0 0 0 0 140 454 712 885 1197 1196 1273 1498 1857 1963 2240 2368 2429 2515 2509 2394 2379 2502 2432 2407 2431 2527 2553 1733 1419 1396 1786 2266 2279 2322 2398 2206 1931 1289 1094 274 85 42 115
0 0 0 0 2 92 8 574 816 1295 1413 1671 1829 2079 2206 2424 2627 2619 2586 2554 2584 2526 2673 2626 2605 2598 2735 2137 1337 1210 1556 2218 2295 2335 2493 2513 2310 1933 1460 1273 474 197 204
0 0 0 0 0 0 0 32 807 1100 1460 1692 1854 1998 2208 2235 2465 2683 2610 2745 2644 2594 2637 2565 2730 2855 2814 2246 1616 1277 1566 1723 2427 2353 2436 2565 2574 2354 1275 1409 1181 971 769
0 0 0 0 0 0 5 209 640 965 1507 1622 1786 2029 2242 2305 2337 2654 2758 2754 2670 2554 2475 2542 2696 2765 2912 2581 1677 1457 1707 1796 1860 2436 2561 1983 2352 2088 1265 1213 1370 1339 1327
0 0 0 0 0 97 244 298 669 910 1492 1751 1814 2108 2369 2477 2527 2798 2805 2802 2726 2484 2714 2711 2702 2872 2890 2798 1760 1390 1783 1896 1929 1704 2055 2172 1638 1280 1008 754 1066 1183 1428
279 728 91 0 0 231 88 178 448 1062 1727 1884 2005 2337 2631 2391 2340 2847 3040 2864 2810 2816 2661 2577 2645 2666 2904 2564 1881 1523 1307 1884 2036 2019 1687 2025 1301 781 545 405 689 682 773
738 1245 0 14 895 1282 896 569 1041 1520 1686 2002 2223 2412 2688 2807 2648 2994 3135 2968 3015 2633 2599 2286 2794 2499 2821 2693 2128 1270 1064 1072 1702 1986 1978 1602 795 466 227 255 255 403 637
1995 1782 1072 869 1433 1974 2122 2302 2112 2071 2051 2090 2260 2492 2743 2847 2812 2689 2945 2710 2570 2823 2590 2664 2777 2652 2743 2760 2586 1433 808 960 810 1044 853 477 326 92 53 37 104 284 303
1098 1237 1512 1513 1440 1554 1623 1849 2418 3053 2424 2581 2704 2781 2744 2819 3019 3044 2829 2771 2760 2774 2873 2811 2648 2604 2583 2639 2541 1367 925 904 598 183 149 13 26 2 0 38 102 162 173
727 679 680 706 756 694 691 701 725 866 1551 2070 2056 1997 2042 2298 2671 2745 3068 1848 2037 1942 2176 2332 1968 1848 1990 1869 1529 524 601 217 7 204 105 24 5 9 6 48 47 121 108

GFSMW_con_mlcape_033.txt.gz
CAPE
388 350 398 315 266 292 400 643 801 998 1083 1023 850 630 400 352 70 22 108 547 982 1451 1896 1779 1870 1341 1458 1302 1003 884 404 148 3 3 13 24 17 22 30 39 34 29 9
604 328 349 232 234 475 699 1053 1229 1549 1429 1154 1074 679 522 101 15 0 299 567 1155 1598 2019 1889 1462 1625 1200 1331 1573 935 645 8 0 55 19 18 10 23 31 20 12 18 13
802 520 325 267 260 501 929 1238 1504 1702 1644 1359 1298 1008 588 260 44 49 219 803 1515 1704 2297 1979 1313 1701 1736 1435 1725 1161 430 133 0 24 65 24 13 3 0 5 21 1 5
830 769 387 315 275 414 749 1318 1743 1813 1867 1732 1099 945 476 136 58 134 146 778 1663 1680 1984 1425 1359 1828 1400 1429 1770 1327 953 189 0 0 0 108 214 101 6 7 8 10 5
846 847 717 331 281 345 560 1009 1839 1990 1769 1845 1453 1035 816 136 120 139 325 811 1756 1822 1520 2001 1494 1821 2098 1499 1437 1745 1470 523 66 0 0 0 0 0 20 7 11 0 8
711 898 894 567 326 307 462 935 1776 2200 2215 2314 1664 1825 977 660 228 190 391 729 933 1697 2011 1788 2285 2041 2161 1691 2126 2162 1891 1305 183 0 0 0 0 2 0 4 14 19 14
524 848 956 849 568 427 571 881 1620 2216 2456 2521 2233 1929 1989 1523 1659 1067 460 628 684 611 1507 1952 1914 1894 2441 2001 2001 2549 2028 1722 1005 206 19 0 10 0 0 0 0 0 13
533 798 974 1073 925 728 889 1052 1614 2301 2568 2428 2436 2293 2436 1928 1470 1374 907 802 703 574 906 2171 2019 2096 2182 2280 2351 2375 2192 1667 1488 828 45 63 46 42 20 0 0 2 0
331 613 939 1138 1237 1024 1200 1270 1556 2158 2547 2306 2522 2651 2632 2365 1846 1762 1825 1806 1390 783 1261 1946 2240 2142 2156 2290 2390 2029 2438 1704 1545 988 594 107 8 39 28 0 0 0 0
163 539 831 1091 1341 1261 1303 1474 1674 2178 2347 2161 2415 2592 2819 2853 2423 2365 2469 1937 1940 1782 1842 1499 1815 2155 2228 2318 2530 2012 2226 2126 1234 542 503 423 8 5 33 0 0 0 0
45 403 825 1019 1263 1358 1338 1516 1749 2128 2442 2360 2378 2396 2641 2744 2883 2410 2622 2561 2583 2647 1846 2288 2029 2171 2305 2388 2693 2295 2011 2268 1983 1077 755 534 414 26 10 18 2 0 0
7 335 807 819 955 1267 1400 1560 1712 1787 2452 2521 2457 2459 2567 2671 2710 2853 2484 2813 2806 2655 2833 2499 2554 2424 2407 2443 2653 2622 1496 2244 2238 1965 1232 749 467 421 164 48 49 22 31
13 340 583 663 839 1045 1392 1524 1829 1694 1805 2221 2437 2714 2618 2682 2556 2774 2913 2765 2900 2950 2773 2825 2906 2746 2482 2428 2872 2850 2582 2311 2340 2251 2093 1581 991 677 182 73 29 39 64
0 66 108 183 616 859 1463 1758 1688 1729 1791 1926 2059 2348 2807 2672 2762 2757 3037 2961 3042 3028 2955 2827 2990 3012 2912 2645 2750 2819 2811 2664 2550 2494 2449 2246 1719 985 838 513 205 180 91
0 0 5 98 254 823 1415 1788 1582 1802 1796 2065 2171 2339 2695 2966 2968 2890 2972 3111 3131 3143 3089 2989 2995 3330 3180 2643 2712 2556 2753 2794 2828 2649 2706 2601 2257 1508 1118 762 637 381 159
0 0 0 0 176 367 1223 1568 1906 1715 1790 2171 2203 2473 2783 3096 3202 3212 3129 3293 3152 3252 3215 3110 3072 3062 3159 2536 2171 2695 2766 2815 2938 2857 2819 2580 2202 1651 1134 808 964 906 662
0 0 0 0 60 301 698 1125 1878 2055 1714 1986 2422 2424 2769 3125 3350 3428 3434 3313 3341 3347 3230 3193 3321 3211 3258 2626 1942 1894 2694 2884 2754 2902 2928 2854 2193 2095 1718 861 696 542 561
0 0 0 0 0 0 95 865 1032 2189 2193 2101 2239 2568 2683 3080 3395 3561 3535 3562 3557 3452 3461 3476 3458 3409 3454 3034 2135 1710 2101 2649 2750 2841 3015 3016 2348 2469 2153 1876 981 728 517
0 0 0 0 0 0 0 114 963 1481 2260 2421 2410 2442 2888 3039 3378 3436 3536 3649 3602 3547 3510 3570 3598 3569 3477 3107 2644 1928 2003 2314 2524 2684 2951 3013 3006 2848 1955 2182 2068 1437 912
0 0 0 0 0 0 0 0 50 758 2050 2182 2704 2750 3077 3217 3364 3534 3673 3731 3702 3567 3421 3480 3608 3636 3659 3386 2717 2304 2398 2263 2500 2613 2809 2652 2929 2947 2139 2137 2308 2066 1496
241 42 21 0 0 0 0 122 154 312 1324 2194 2640 3038 3119 3440 3422 3492 3722 3860 3824 3401 3534 3448 3530 3600 3549 3694 2812 2327 2712 2478 2373 2502 2610 2934 2340 2447 2098 1927 2305 2211 1972
431 171 144 641 805 30 118 801 907 1080 1782 1992 2480 2815 3201 3183 3151 3457 3742 4011 3906 3710 3605 3651 3599 3671 3751 3358 3072 2367 2351 2695 2431 2474 2525 2732 2383 1772 1675 1596 2077 1802 1780
420 0 84 1127 250 351 451 890 1433 2237 2236 2611 2906 3039 3273 3499 3188 3624 3787 3683 3800 3466 3494 3396 3724 3644 3665 3756 3072 2201 2040 2151 2406 2483 2638 2289 1785 1424 1122 1401 1122 1085 1276
1085 1610 1634 1320 711 1713 2090 1802 1816 2268 2392 2920 3131 3313 3508 3541 3462 3010 3399 3295 3212 3343 3256 3175 3301 3331 3399 3211 3623 2857 1739 1454 1711 1994 2119 1510 1142 1070 974 668 649 687 796
1957 1719 2144 2314 2483 2831 3064 3119 3186 2801 2731 2787 2834 2895 2841 3099 3457 3447 2781 3117 3157 2931 3063 3133 2967 2972 2998 2929 3094 3357 3163 1906 1533 1766 1008 671 648 654 584 451 287 165 305
1427 1600 1694 1748 1622 1564 1584 1668 1721 2924 3334 3114 3105 2910 2736 2866 3085 3118 3401 2703 2567 2291 2161 1666 1688 2639 2189 2082 2132 2562 2349 1976 1395 1318 1082 809 675 602 412 308 154 106 234

GFSMW_con_mlcape_039.txt.gz
CAPE
400 465 528 410 297 165 158 49 204 328 192 361 213 447 48 374 534 174 837 655 821 1148 1095 1030 853 1020 969 735 424 77 25 15 0 0 22 29 28 29 26 68 157 95 107
464 401 168 290 385 371 243 95 337 473 334 505 355 569 849 424 534 145 794 815 1015 1194 1234 941 1007 1189 1090 1038 950 734 129 46 0 11 31 5 4 7 20 26 37 23 39
461 400 197 168 368 366 273 328 280 642 538 572 603 433 861 735 581 278 111 1037 975 1348 1219 1207 1187 1345 915 727 624 796 492 0 0 0 65 17 1 1 11 3 12 13 2
371 430 278 232 253 509 378 279 374 653 765 762 813 597 461 745 693 308 82 413 851 760 1106 1457 975 1212 1180 1027 662 650 576 0 0 0 9 32 22 0 0 0 0 0 0
266 403 359 345 213 463 593 389 380 576 996 932 897 883 777 771 494 363 57 168 303 520 1342 1439 1246 1211 1577 1162 789 1558 674 190 7 0 0 0 0 0 0 0 1 0 0
305 341 429 341 312 491 656 655 472 569 965 1064 1091 807 1072 729 689 217 98 215 529 568 1035 1822 1470 1342 1325 1165 1202 1339 854 682 333 16 0 0 0 0 0 0 2 0 0
440 346 477 333 363 482 598 798 689 627 1037 1034 861 1378 974 895 477 469 119 324 899 923 1126 1880 1615 1474 1293 1467 1209 1198 1416 570 557 410 2 16 0 0 0 0 0 0 0
350 485 450 398 368 359 628 998 969 894 1036 1252 1025 791 1662 1257 802 819 456 179 766 1135 1160 1600 1755 1490 1310 1284 1698 1611 1449 1286 439 638 63 12 51 30 0 0 0 0 0
643 667 496 474 353 402 792 952 1328 1123 1238 1488 1512 1030 958 1969 1177 528 1105 770 482 991 1215 1417 1868 1771 1487 1118 1503 2253 1649 1920 1523 438 449 82 38 87 35 3 0 0 0
696 916 660 575 437 386 709 1077 1546 1484 1443 1511 1706 1546 908 924 2047 1120 538 1373 634 426 1301 1449 1740 1795 1587 1380 1228 2146 2155 1799 1922 1506 828 161 90 68 78 53 6 0 0
706 1072 940 755 607 464 718 948 1322 1770 1791 1724 1529 1742 1579 1055 1460 1911 953 824 1315 1353 583 1363 1792 1662 1728 1700 1578 1599 2080 2104 2073 1859 1485 949 159 7 28 97 40 26 0
356 1161 1182 1026 863 648 734 914 1077 1632 1761 1862 1730 1843 2116 1926 1201 1810 2103 690 1397 1104 1928 1688 1770 1989 1771 1716 2109 2012 1896 1857 1747 2036 1615 1240 825 184 0 171 59 19 43
334 1150 1355 1282 1110 861 741 895 1057 1392 1831 2056 2123 1990 1967 2270 1858 1543 1644 2271 1286 1744 1311 2232 2186 2073 2110 2051 1936 1946 1866 1813 2090 1933 1802 1399 1032 488 248 18 281 215 24
395 1115 1278 1429 1374 1133 954 936 993 1341 1877 2076 2222 2251 2272 2295 2423 2107 1668 1426 2254 1898 2194 1819 2350 2405 2157 2069 2182 2066 1945 1982 1656 2117 2297 1910 1399 1086 711 390 43 230 315
326 942 1185 1307 1573 1462 1236 1189 1115 1245 1537 2160 2336 2369 2464 2350 2334 2351 2443 2153 1549 2231 2210 2348 2396 2448 2455 2373 2196 2173 2126 2048 2000 1649 2031 2343 2057 1592 1173 823 421 38 127
202 526 975 1263 1538 1690 1602 1464 1457 1417 1466 1977 2229 2559 2554 2519 2313 2362 2296 2608 2565 2026 2259 2440 2311 2545 2684 2633 2293 2300 2310 2285 2195 2040 1815 2161 2421 2231 1783 1324 1054 687 149
0 0 0 500 1473 1708 1800 1788 1809 1680 1717 1715 2160 2447 2661 2555 2552 2428 2588 2549 2647 2834 2496 2238 2578 2433 2657 2635 2569 2473 2505 2440 2489 2409 2378 2026 2263 2443 2401 1823 1511 1218 1029
0 0 0 0 0 551 1932 1845 1902 2094 1959 1937 1955 2188 2541 2700 2651 2693 2612 2774 2821 2930 3036 3011 2734 2831 2834 2648 2473 2493 2750 2626 2548 2767 2716 2598 2446 2417 2484 2487 2033 1595 1296
94 127 147 37 0 0 6 2049 2060 2182 2325 2222 2217 2213 2540 2687 2855 2788 2925 2947 2964 3061 3099 3306 3264 3136 3092 2873 2637 2389 2681 2771 2714 2721 2819 2923 2806 2695 2413 2594 2378 2046 1628
430 240 119 147 143 316 270 1023 2195 2328 2347 2469 2613 2533 2563 2709 2758 2899 2915 3069 3216 3161 3246 3212 3434 3389 3315 3183 2751 2642 2765 2765 2745 2698 2626 2635 2806 2766 2461 2579 2565 2321 1974
863 815 440 259 303 277 299 863 1292 1976 2035 2272 2437 2773 2941 2948 3012 3034 3157 3267 3400 3487 3468 3515 3510 3660 3604 3518 3116 2736 3056 3043 2888 2743 2616 2554 2435 2439 2495 2385 2692 2506 2203
1246 1755 1220 743 273 139 1088 644 183 1415 2028 2254 2278 2169 2346 2637 3082 3277 3437 3601 3664 3693 3688 3722 3763 3728 3725 3644 3396 2969 2925 3228 3234 3171 2973 2686 2314 2129 2183 2189 2545 2454 2232
662 1769 2000 2238 2001 983 858 844 1446 1601 2103 1825 2058 2486 2565 2596 2616 2988 3326 3729 3918 3973 3940 3906 3923 3907 3829 3779 3603 3334 2983 2938 3148 3377 3270 3088 2814 2306 1808 1893 2083 2199 2298
110 1321 1866 2197 3103 2829 2325 2236 2423 2221 1504 2149 3013 2582 2940 3253 3176 3254 3382 3613 3906 3975 4021 4006 3915 3767 3697 3734 3711 3482 2821 2504 2469 2985 3124 3102 2903 2769 2274 1835 1255 1354 1983
0 141 1310 1749 2162 2367 2545 2509 2529 2799 2981 1624 2769 3440 3336 3363 3425 3435 3661 3731 3780 3836 3823 3759 3694 3616 3687 3375 2184 2298 2681 2633 2330 2211 2391 2877 2947 2732 2549 1853 1624 1222 1293
0 0 925 1392 1438 2016 1896 1696 1736 2324 2971 3394 3133 3809 3526 3536 3592 3704 3385 1252 2281 2312 2211 2103 3304 1687 1112 599 634 595 738 914 903 1477 1981 2219 2525 2786 2705 2573 2288 1347 1320

GFSMW_con_mlcape_042.txt.gz
CAPE
207 167 195 85 126 117 63 0 0 119 242 88 63 6 6 51 221 400 393 345 529 796 983 783 612 885 785 689 127 22 32 0 0 25 19 17 22 24 46 53 126 79 71
307 189 144 101 91 107 107 22 0 20 141 11 15 30 0 2 116 277 365 382 581 687 679 615 694 713 865 787 487 393 28 1 0 12 0 0 0 0 26 36 100 21 63
434 303 250 142 86 108 121 65 12 0 0 51 35 43 19 0 98 268 290 511 668 797 878 624 604 848 941 819 589 556 156 0 0 8 4 0 0 0 3 15 61 20 15
430 371 364 331 169 151 101 71 84 51 29 164 62 12 0 19 184 159 135 444 703 936 1053 876 675 1158 1006 791 593 407 391 0 0 0 9 23 0 0 0 0 0 3 1
425 364 395 400 358 232 203 102 228 164 143 264 181 107 78 256 556 357 288 241 639 943 1021 903 1051 880 1176 831 700 384 567 0 0 0 0 0 0 0 0 0 0 0 0
399 377 279 154 367 353 309 172 367 259 269 337 324 225 166 131 395 523 352 173 439 663 786 849 1011 1031 982 1111 911 879 831 399 0 0 0 0 0 0 0 0 0 0 0
278 419 270 149 307 421 353 306 261 469 418 396 452 368 291 263 211 423 309 201 141 302 592 863 1095 1248 1180 1079 807 969 1114 480 229 34 0 0 0 0 0 0 0 0 0
323 370 366 232 159 466 457 332 322 401 616 471 439 511 486 459 410 486 364 154 133 221 345 639 1155 1547 1339 1142 1031 1141 1088 996 506 294 53 23 35 14 0 0 0 0 1
429 332 417 302 254 384 553 520 379 345 620 622 608 693 662 636 601 593 393 240 216 503 501 689 958 1499 1426 1216 1186 1120 1218 1254 715 320 380 67 25 48 69 0 1 0 0
528 392 366 374 347 372 525 636 559 426 480 814 671 593 785 1103 865 656 598 536 264 508 774 876 1170 1361 1446 1302 1241 1386 1371 1506 1465 1103 325 257 105 51 60 63 1 0 0
567 450 363 467 404 363 588 745 739 643 667 780 948 799 597 626 1394 1245 600 529 836 615 673 1005 1147 1353 1407 1429 1292 1144 1516 1678 1591 1582 1386 610 68 36 44 43 31 13 0
646 561 475 544 468 414 628 678 977 879 861 888 1013 1113 1146 857 670 1270 1390 850 572 695 895 974 1290 1484 1557 1543 1430 1176 1211 1672 1652 1691 1631 1550 1236 537 12 22 38 51 0
718 628 570 563 564 430 520 856 968 1117 1060 1120 1194 1323 1386 1288 979 745 1255 1429 1034 782 911 1392 1098 1129 1394 1656 1626 1447 1270 1315 1570 1763 1709 1567 1571 1323 804 35 0 34 82
605 801 753 667 639 474 491 785 993 1416 1419 1448 1442 1327 1442 1576 1436 1145 888 1419 1529 999 713 1313 1490 1810 1665 1596 1620 1656 1535 1451 1594 1623 1658 1546 1499 1510 1341 915 274 6 17
594 974 911 833 778 620 497 735 908 1229 1555 1615 1646 1555 1464 1626 1857 1652 1389 1182 1416 1749 1274 1029 1547 1718 1930 2024 1845 1701 1577 1649 1711 1648 1723 1784 1697 1641 1572 1420 1155 624 227
536 1058 1034 1005 961 816 667 744 865 1072 1434 1590 1646 1689 1779 1706 1748 1929 1850 1647 1462 1304 1717 1766 1680 1620 1997 2071 2036 2075 1902 1789 1778 1696 1664 1613 1744 1675 1562 1513 1542 1248 1070
558 1062 1132 1122 1141 1041 877 796 894 981 1406 1550 1693 1882 1912 2065 2040 2032 2094 2101 1871 1700 1239 1434 1789 1762 2075 2171 2049 2041 2184 2138 2071 1991 1938 1916 1857 1807 1793 1383 1409 1525 1361
84 505 918 1161 1323 1311 1132 984 949 1027 1135 1486 1789 1922 2198 2180 2258 2226 2163 2136 2237 2247 2002 1584 1627 1784 1923 1999 2035 2104 2308 2279 2232 2254 2236 2201 2210 2084 2035 2063 1754 1428 1451
21 82 149 347 996 1605 1649 1464 1355 1355 1315 1366 1477 2011 2176 2390 2383 2410 2330 2299 2340 2351 2434 2413 2213 1930 2015 2048 1952 1942 2222 2322 2492 2464 2420 2476 2497 2443 2079 2181 2229 2077 1722
571 149 114 143 208 226 1049 1760 1820 1806 1712 1650 1692 1692 2191 2356 2468 2439 2489 2495 2510 2587 2579 2610 2728 2735 2625 2380 2207 2108 2378 2364 2412 2594 2681 2460 2538 2625 2395 2371 2346 2391 2367
1382 1551 908 446 234 354 266 776 1795 1997 2053 2000 1837 1860 1869 2218 2414 2541 2586 2645 2718 2657 2707 2767 2790 2876 2987 3029 2510 2270 2732 2786 2712 2684 2700 2716 2521 2255 2236 2329 2678 2592 2563
1085 1699 2177 1439 1019 330 740 409 1022 1963 2114 2100 2270 2210 2214 2210 2420 2512 2649 2726 2724 2867 2914 2884 2949 3014 3035 3061 2746 2539 2592 3003 3094 3089 2999 2922 2679 2340 2076 1865 2113 2318 2301
105 1033 1750 2428 2467 2010 1902 1799 1980 1805 2016 2309 2450 2458 2609 2689 2717 2704 2699 2796 2900 2958 3065 3144 3177 3253 3365 3416 3137 2884 2767 2800 3121 3313 3284 3212 2984 2698 2232 1948 1963 1758 1833
0 243 1191 1381 2021 2081 2284 2247 2191 2254 2258 1145 2240 2267 2415 2554 2681 2894 2906 2962 3131 3257 3336 3441 3493 3523 3572 3604 3624 3108 2661 2449 2369 2593 2942 2963 2840 2665 2551 2221 1693 1291 1440
0 0 407 818 1378 1766 1608 1447 1315 1423 2331 2541 1979 1652 2587 2087 2238 2413 2434 3070 3240 3330 3424 3612 3709 3721 3625 3442 3140 3206 3158 2798 2518 2383 2279 2508 2536 2734 2727 2642 2370 1999 1401
0 0 4 363 775 1381 1151 1069 965 1217 1495 2421 2710 2902 2847 2985 3100 2466 1835 550 1207 2276 3144 3312 3527 1678 1989 1706 1594 1583 1268 1076 919 1290 1634 1699 1622 1711 1836 2094 2349 2453 2051

GFSMW_con_mlcape_045.txt.gz
CAPE
138 75 138 146 10 0 0 0 0 0 37 27 88 171 145 213 432 427 606 605 1023 1031 473 376 356 630 552 482 152 32 8 17 15 21 14 12 17 33 60 62 90 60 20
143 115 96 119 46 0 0 0 0 0 48 27 221 108 45 4 166 318 511 484 696 1109 883 471 572 676 638 516 263 15 4 0 0 15 2 2 0 4 18 49 99 84 57
135 134 115 114 53 38 0 0 0 0 16 34 59 76 42 0 20 187 313 382 439 616 733 435 514 708 707 548 442 312 0 0 0 0 0 0 0 0 0 15 34 86 53
191 153 147 111 103 0 5 0 0 0 0 35 46 40 20 0 0 2 179 289 452 538 670 597 336 702 626 496 634 484 254 0 0 0 19 0 0 0 0 0 1 25 17
233 198 149 115 121 33 38 0 0 0 0 18 29 0 0 0 0 0 13 281 354 551 651 780 633 462 879 794 703 382 210 0 0 0 0 0 0 0 0 0 0 0 0
399 329 226 172 174 110 52 21 3 0 0 2 6 0 0 0 0 0 0 99 344 429 623 807 753 749 714 876 743 548 136 106 0 0 0 0 0 0 0 0 0 0 0
506 443 362 291 306 194 115 49 36 31 5 0 6 0 0 0 0 0 0 25 196 325 485 724 829 818 818 854 825 755 640 518 92 0 0 0 0 0 0 0 0 0 0
391 494 392 360 340 338 185 85 58 71 27 22 26 47 29 5 2 0 56 202 197 264 320 614 747 681 892 1041 853 748 750 780 496 208 10 7 0 0 0 0 0 0 0
110 194 500 316 280 381 315 222 112 137 96 72 94 116 94 100 54 29 5 142 186 268 170 287 570 701 894 1201 1102 832 862 1011 836 489 335 68 31 43 27 0 0 0 0
66 100 331 329 181 359 378 311 200 245 251 174 173 210 210 216 215 153 64 62 261 264 247 198 297 485 718 1159 1312 1003 888 1062 1120 898 430 360 215 41 35 81 20 0 0
122 68 144 348 247 338 471 348 300 253 306 398 322 302 346 359 390 364 272 265 205 305 412 356 475 619 634 909 1271 1260 1161 998 1099 1245 1131 729 335 261 145 30 48 49 4
102 127 153 308 326 251 428 469 330 270 247 433 449 435 497 558 619 507 405 336 460 320 336 505 576 787 877 895 1112 1218 1313 1292 1143 1342 1461 1215 1257 777 291 42 36 32 15
14 149 270 283 378 330 246 464 490 374 265 331 546 564 542 507 620 943 899 542 456 542 556 698 843 740 969 1116 1110 1142 1272 1303 1311 1220 1379 1443 1385 1098 1198 1012 530 11 0
0 78 359 353 405 376 266 398 567 530 457 456 518 737 804 740 563 515 792 1064 890 741 747 696 701 1054 1069 1143 1271 1295 1358 1394 1419 1386 1334 1424 1451 1364 1219 1125 1099 954 394
0 67 340 390 428 382 297 445 548 738 687 693 726 795 947 1028 985 787 652 846 1107 925 842 996 1061 881 1148 1258 1120 1186 1268 1401 1424 1396 1369 1444 1533 1423 1433 1314 1027 838 821
56 174 356 469 465 434 391 414 673 879 982 912 884 893 974 1139 1180 1130 1103 888 1006 1189 968 757 775 1090 1104 1252 1317 1573 1560 1505 1507 1430 1417 1449 1564 1558 1398 1328 1415 1325 972
51 309 404 500 504 494 428 496 753 964 1230 1220 1192 1237 1233 1241 1369 1434 1422 1256 1071 1111 1247 1178 939 884 1131 1122 1201 1361 1675 1737 1731 1702 1629 1622 1653 1627 1715 1419 1286 1194 1248
82 250 551 630 567 549 488 492 733 938 1315 1474 1521 1574 1604 1539 1501 1637 1740 1677 1508 1353 1225 1187 1437 1420 1428 1311 1182 1307 1603 1818 1885 1875 1842 1842 1868 1882 1849 1867 1851 1533 1386
125 433 755 753 716 727 639 616 796 966 1134 1353 1541 1685 1759 1759 1848 1769 1739 1837 1934 1874 1700 1577 1354 1257 1495 1473 1428 1387 1673 1756 1919 2060 2063 2123 2112 2074 1875 2033 2106 2120 2096
622 473 673 924 1077 1003 848 805 886 964 1108 1306 1503 1630 1767 1873 1929 1990 1958 1980 2092 2084 2189 2213 2172 1843 1643 1541 1392 1323 1704 1729 1880 2088 2226 2148 2206 2187 2045 2134 2206 2327 2279
1275 1160 670 724 815 1033 1250 1234 1192 1229 1248 1134 1190 1536 1794 1904 2058 2084 2149 2168 2189 2247 2291 2305 2332 2400 2311 2235 1705 1513 1982 2064 2140 2240 2329 2376 2303 2144 2078 2069 2501 2536 2532
1042 1305 1217 1091 449 326 1352 1495 1561 1478 1533 1501 1395 1415 1533 1900 2119 2215 2271 2329 2379 2394 2415 2446 2467 2498 2584 2508 2284 2002 1923 2378 2532 2657 2693 2700 2561 2314 2118 1921 2047 2187 2174
239 924 1481 1804 1916 1884 1761 1909 2210 2242 2109 1951 1976 1845 1739 1731 1998 2241 2343 2415 2447 2510 2538 2550 2573 2599 2676 2750 2631 2436 2209 2172 2618 2955 3091 3043 2901 2617 2088 1737 1677 1508 1518
0 121 960 1461 1556 1438 1403 1330 1479 1976 2112 1977 2309 2263 2311 2198 2102 2209 2294 2399 2559 2597 2633 2706 2815 2852 2897 3019 2967 2528 2349 2236 2120 2375 2775 2735 2619 2635 2728 2605 2263 1788 1735
0 0 154 611 1123 1024 882 909 1108 1278 1668 1994 2071 2181 2139 2413 2507 2195 2076 2569 2648 2690 2768 2801 2855 2912 3039 3175 3304 3385 3037 2782 2673 2436 2279 2569 2645 2825 2673 2319 2088 2007 1680
0 0 1 216 640 865 852 936 1077 1224 1166 1379 1737 1955 2438 2464 2327 1886 1269 163 804 1648 2447 2798 3253 2187 2381 2853 2832 2702 2616 2579 2221 2315 2592 2393 1840 1672 1489 1351 1297 1299 1329

GFSMW_con_mlcape_048.txt.gz
CAPE
28 32 35 0 7 25 0 0 0 0 0 0 0 0 0 135 282 139 402 390 463 764 520 436 481 566 359 383 291 41 26 46 20 18 18 14 12 47 34 37 20 12 56
40 48 52 1 0 0 0 0 0 0 0 0 0 0 0 55 285 272 371 530 558 1029 772 420 395 457 503 311 156 56 29 6 5 12 2 11 3 10 18 31 57 72 62
55 60 47 66 0 0 0 0 0 0 0 0 0 0 0 10 72 191 312 446 567 909 1082 900 626 563 460 405 390 92 16 0 6 4 0 0 0 0 0 7 34 52 63
91 91 60 51 43 12 0 0 0 0 0 0 0 6 64 98 18 51 151 296 430 470 720 801 522 562 578 572 538 370 107 0 0 0 9 0 0 0 0 0 0 2 41
95 110 104 65 41 0 5 0 0 0 0 0 0 0 16 0 0 0 36 167 228 383 517 630 579 363 674 562 593 622 152 0 0 0 1 0 0 0 0 0 0 0 0
110 117 98 93 60 37 0 0 0 0 0 0 0 0 0 0 0 0 0 5 167 235 390 627 675 646 569 728 648 603 206 51 0 0 0 0 0 0 0 0 0 0 0
124 107 110 100 95 68 0 0 0 0 0 0 0 0 0 0 0 0 0 0 0 139 256 462 589 690 682 755 737 728 578 115 51 0 0 0 0 0 0 0 0 0 0
243 184 158 147 114 99 64 14 0 0 0 0 0 0 0 0 0 0 0 0 0 0 190 325 524 648 784 822 823 783 800 660 380 312 20 0 0 0 0 0 0 0 0
189 338 339 224 161 135 92 58 37 0 0 0 0 0 0 0 0 0 0 0 0 0 150 307 375 556 723 743 881 889 803 765 754 657 453 148 49 2 0 0 0 0 0
103 123 376 333 261 190 155 77 48 30 19 0 0 0 0 0 0 0 0 0 0 43 184 309 424 410 560 620 808 1055 993 839 958 963 796 564 343 137 30 40 1 0 0
129 134 282 340 286 252 235 129 66 52 33 26 32 43 40 16 13 7 12 13 0 0 171 279 283 293 292 462 673 946 1280 1097 912 1048 1126 925 574 363 291 102 25 15 0
107 120 121 181 321 237 268 280 130 66 76 89 93 98 101 92 79 69 60 67 17 5 56 349 348 326 322 457 607 646 1118 1328 1193 996 987 1088 1204 1073 899 681 238 22 12
70 134 121 88 255 197 203 300 254 190 133 173 195 174 191 208 171 176 177 162 166 78 92 293 420 424 502 578 705 842 908 1289 1382 1334 1209 1132 1133 1191 1234 1099 975 684 256
0 7 70 74 133 248 212 325 323 276 217 248 368 343 331 325 334 335 327 266 283 333 248 232 376 464 449 671 747 889 1044 1113 1255 1381 1484 1447 1312 1176 1247 1173 1113 1093 884
0 0 2 73 114 287 208 370 397 332 280 285 437 486 447 430 429 498 627 663 408 357 383 372 364 575 688 782 1054 1118 1028 1185 1251 1276 1422 1560 1544 1359 1257 1323 1155 1004 844
0 0 0 37 164 288 316 336 459 465 369 331 400 510 536 509 462 396 445 701 822 720 643 592 578 472 654 684 637 951 1294 1115 989 972 1106 1326 1438 1404 1283 1181 1308 1565 1289
0 0 0 13 198 308 342 334 471 566 536 475 430 488 618 710 702 650 557 502 551 822 842 815 788 750 788 703 662 684 975 1263 1364 1398 1460 1463 1445 1375 1509 1294 1207 1250 1281
0 0 24 141 240 324 334 306 461 666 653 616 656 700 752 843 909 967 949 865 725 688 903 1002 960 852 806 699 599 617 960 1057 1139 1285 1375 1470 1651 1752 1747 1760 1779 1705 1545
120 0 150 234 273 361 339 355 578 713 851 843 876 934 990 982 1039 1131 1154 1153 1136 1054 969 1059 1178 1168 1064 808 658 604 964 1150 1170 1388 1480 1496 1504 1671 1528 1723 1750 1824 1971
697 208 328 358 364 378 358 464 654 825 1033 1056 1134 1269 1283 1235 1204 1184 1252 1424 1522 1436 1403 1370 1342 1277 1367 1281 1013 959 1247 1191 1311 1509 1625 1568 1703 1806 1693 1859 2006 2145 2224
591 675 500 577 547 500 464 561 662 847 981 1197 1370 1462 1527 1519 1510 1501 1533 1610 1702 1805 1862 1833 1809 1790 1576 1559 1217 1063 1559 1644 1699 1691 1703 1853 1740 1627 1656 1674 2172 2321 2423
366 663 1025 929 543 566 621 674 741 746 835 1035 1234 1433 1550 1694 1777 1810 1917 1947 1924 1966 2023 2073 2151 2226 2262 1954 1721 1445 1318 1801 1941 2042 2067 2166 2066 1958 1903 1665 1718 1873 1892
146 461 927 992 858 1048 1008 1048 1319 1162 990 989 1116 1265 1491 1661 1900 1941 1963 2073 2147 2186 2218 2269 2312 2346 2329 2393 2023 1853 1604 1638 1956 2210 2411 2429 2406 2327 1973 1801 1727 1469 1369
0 55 491 705 786 957 1374 1654 1892 1949 1860 1622 1463 1318 1416 1569 1815 2031 2126 2141 2240 2330 2366 2364 2393 2397 2434 2502 2528 2250 1927 1465 1584 1643 2101 2120 2179 2325 2474 2434 2160 1776 1619
0 0 195 566 616 663 859 1058 1217 1600 1976 2057 2104 2151 2029 1734 1737 1707 1852 2300 2390 2314 2408 2482 2525 2583 2628 2616 2698 2710 2680 2644 2548 2254 1999 2293 2416 2577 2529 2407 2066 1724 1497
0 0 9 335 564 652 734 1010 1023 909 989 1296 1658 1832 2266 1912 2241 1638 1133 150 517 1065 1530 1974 2541 2159 2244 2710 2734 2761 2731 2635 2473 2438 2809 2726 2606 2456 1788 1434 1014 392 54

GFSMW_con_mlcape_051.txt.gz
CAPE
0 0 0 35 244 340 271 163 65 0 0 0 0 0 0 111 295 533 662 797 814 862 1105 1088 1227 1049 346 430 633 237 90 73 90 73 58 29 34 176 187 316 255 215 275
0 0 0 4 62 268 278 207 78 28 0 0 0 146 307 457 844 863 701 948 896 1166 1291 950 919 620 643 731 641 425 59 63 59 74 59 55 29 30 88 244 319 454 393
0 0 0 0 48 101 174 189 112 26 0 1 65 85 325 314 480 729 744 783 1019 1242 1472 1137 1028 629 503 862 870 621 171 21 47 56 49 23 22 17 13 95 347 522 509
2 4 6 0 7 80 92 135 140 65 0 0 28 28 141 209 434 672 824 882 1013 1119 1561 1641 1387 1118 1170 788 1045 868 489 2 14 26 56 9 14 12 12 50 111 244 358
42 35 70 41 55 54 61 35 99 69 41 16 103 60 129 285 508 458 584 805 954 1097 1150 1296 1302 1062 1185 851 1022 1004 841 208 4 15 102 128 7 0 16 2 45 111 194
150 124 88 73 84 96 18 0 32 48 48 59 40 116 195 244 268 334 369 550 783 835 1007 1196 1250 1288 1180 1257 1278 1283 1141 423 5 0 78 122 134 49 0 0 23 24 122
303 192 171 128 83 136 75 24 0 31 50 84 18 95 172 234 108 258 267 283 487 755 784 943 1138 1207 1284 1351 1471 1443 1344 742 448 3 0 2 34 42 43 24 73 82 213
340 314 226 205 213 124 140 71 31 44 36 53 89 87 152 185 184 257 201 251 207 370 851 826 1017 1110 1369 1470 1606 1555 1564 1442 890 787 244 133 32 0 33 49 95 189 351
404 353 333 275 258 221 193 127 105 68 65 75 129 171 170 174 170 226 284 234 248 172 538 591 754 978 1101 1304 1549 1531 1701 1656 1613 1475 1337 855 597 257 109 69 86 166 206
476 451 401 362 304 242 265 205 177 121 118 89 153 226 266 269 272 317 206 231 247 182 108 453 741 1004 1049 1246 1536 1459 1710 1810 1667 1570 1670 1502 1283 848 537 396 263 187 227
302 483 594 510 415 314 287 300 239 225 185 106 104 188 313 338 327 311 303 294 279 287 270 409 632 927 1099 1213 1284 1293 1507 1791 1956 1809 1701 1691 1721 1386 1010 748 575 382 267
145 296 491 641 571 501 416 312 291 300 272 244 190 155 268 311 328 318 351 385 335 356 396 452 653 848 973 1147 1163 1071 1169 1562 1878 2018 1897 1705 1767 1638 1664 1376 1094 823 699
136 275 259 413 661 653 618 491 400 322 351 335 287 272 288 333 333 382 443 482 445 372 398 501 489 706 930 1016 1102 1093 1223 1508 1698 2082 2143 1960 1946 1900 1751 1960 1687 1534 1375
0 93 199 375 651 694 710 672 581 475 424 407 404 450 457 461 452 494 546 578 581 473 470 565 614 654 1069 1240 1274 1274 1298 1451 1678 1866 2143 2246 2232 2144 2153 2174 2111 2015 1807
0 8 66 134 299 698 697 766 783 635 523 519 535 562 574 606 613 682 713 750 754 706 629 635 701 761 926 913 1182 1330 1379 1357 1530 1806 1967 2110 2123 1944 2036 2187 2228 2170 1991
24 1 0 99 194 319 675 666 781 764 680 660 686 712 722 715 737 810 883 904 844 833 859 860 872 838 891 575 644 1003 1392 1669 1722 1565 1788 1956 1665 1406 1155 1186 1371 1801 2230
6 61 28 0 106 148 527 604 755 851 800 749 806 910 916 882 901 952 1053 1132 1098 1038 929 956 1036 998 1064 662 408 480 977 1382 1706 1921 1938 1825 1672 1635 1759 1680 1173 1058 1124
0 22 220 4 6 136 362 635 832 904 883 825 855 1009 1056 1036 1063 1095 1126 1162 1343 1423 1317 1275 1311 1214 1277 916 517 323 706 1262 1545 1592 1724 1959 1986 2111 2025 1927 2124 2394 2487
15 300 613 58 13 325 567 728 955 1013 944 875 907 982 1107 1126 1205 1202 1163 1125 1111 1153 1264 1482 1536 1402 1381 996 704 595 925 1107 1372 1643 1726 1751 1712 1786 1610 1634 1571 1800 2219
187 626 277 106 219 567 740 844 966 1073 982 975 1059 1047 1084 1169 1316 1355 1362 1411 1402 1302 1286 1316 1568 1619 1547 1326 684 587 1149 1243 1249 1589 1748 1462 1438 1638 1492 1510 1615 1727 2035
318 1082 613 543 607 737 767 797 1022 1111 1205 1305 1324 1348 1312 1342 1447 1563 1719 1799 1800 1808 1816 1709 1772 1777 1705 1819 1142 672 1246 1427 1577 1558 1540 1708 1490 1358 1180 1240 1943 2247 2547
302 735 969 643 797 741 768 896 988 1330 1506 1591 1546 1580 1582 1572 1713 1786 1876 1962 2083 2141 2203 2195 2216 2226 2216 1721 1516 1049 1004 1717 2016 2243 2341 2463 2082 1711 1503 1273 1457 1638 1774
183 691 1010 1004 1276 1004 1106 1157 1338 1480 1544 1639 1717 1822 1936 1941 2072 2122 2119 2127 2248 2217 2378 2447 2477 2523 2603 2734 1911 1427 1138 1177 1683 2266 2507 2338 2198 1945 1666 1594 1522 1352 1486
75 583 991 1103 1211 1499 1622 1842 1753 1461 1334 1468 1695 1842 1933 2019 2169 2331 2393 2423 2502 2508 2530 2648 2686 2708 2804 2875 2948 2319 1601 1081 1079 1228 1810 2067 1970 2111 2368 2150 1713 1523 1676
0 75 507 695 857 1068 1161 1207 1661 2398 1969 1690 1544 1602 1810 1855 2304 2380 2411 2508 2634 2634 2740 2804 2888 2939 2982 3037 3026 3089 2919 2604 2196 2093 2117 2247 2356 2480 2397 2338 2301 2093 1637
0 0 0 135 581 591 403 382 405 575 1412 2044 2251 2278 1962 1562 1858 2503 1497 278 606 1148 1673 2137 2713 3068 2721 2791 2588 2386 2530 2540 2300 2354 2842 2942 2721 2608 2574 2342 1871 1222 826

GFSMW_con_mlcape_054.txt.gz
CAPE
0 0 0 0 0 0 0 99 45 82 132 72 138 304 350 507 727 805 1136 1417 1328 1411 1054 927 926 612 591 816 953 597 518 88 88 49 58 45 106 201 147 102 33 131 186
0 0 0 0 0 29 40 89 161 197 254 17 15 146 264 431 646 959 1298 1487 1403 1608 1471 1190 965 500 369 774 832 661 144 92 72 57 44 37 3 25 45 72 136 169 200
29 0 0 0 0 58 130 183 266 284 285 0 0 221 524 818 1085 1186 1072 1418 1520 1568 1736 1525 1117 889 833 349 483 845 385 86 86 331 55 11 40 13 4 142 195 364 303
50 7 0 21 0 32 312 285 511 468 384 66 0 173 352 251 278 603 587 937 1570 1535 1701 1844 1414 1090 836 1012 563 1067 623 353 48 63 26 172 23 38 73 44 142 245 259
38 27 5 74 29 0 74 389 624 737 449 328 18 55 277 0 159 384 843 1203 1756 1689 1536 1893 1888 1357 664 854 1220 1075 943 205 69 27 29 143 14 27 52 72 148 169 193
189 68 45 62 116 77 55 220 555 892 744 404 170 201 175 42 45 409 609 698 819 1337 1669 1714 1909 1792 1101 1050 1138 1280 1348 1000 509 4 99 44 82 114 103 48 154 133 158
474 282 106 135 151 131 89 151 411 813 858 627 287 127 217 403 392 631 430 322 337 539 962 1728 1882 1587 1875 1673 1583 1402 1689 1810 758 477 0 43 104 211 243 197 117 200 293
638 564 420 239 296 307 225 202 386 746 876 672 818 683 561 200 413 680 419 420 269 313 538 1536 1584 1754 1703 1641 1833 1591 1403 1710 1311 1441 572 35 68 100 145 220 244 287 463
590 704 649 520 350 411 489 491 600 741 813 633 963 993 803 541 391 628 737 561 628 279 423 827 1418 1360 1524 1690 1710 1419 1864 1782 1813 1492 1438 1185 445 368 232 244 254 244 342
466 561 788 717 579 434 464 553 553 718 806 652 835 835 675 805 719 698 750 800 581 789 415 714 923 887 1171 1591 1802 1399 1658 1987 1704 1540 1558 1651 747 721 573 492 414 358 333
430 501 740 807 749 615 490 598 595 664 669 745 774 797 775 790 935 827 947 1147 1068 895 1148 784 675 664 1347 1528 1707 1542 1409 2080 2092 1791 1623 2098 2196 1435 796 716 667 538 469
187 504 631 690 785 794 667 591 583 634 704 749 964 922 995 980 912 1085 1025 1195 1367 1214 1280 1153 988 794 1056 1502 1791 1672 1184 1581 1880 2080 2046 1951 1732 2214 2056 1243 963 632 674
48 269 510 638 728 891 844 715 687 555 645 810 762 746 800 875 931 1107 1141 1286 1396 1432 1264 1282 1284 1128 1033 1404 1755 1790 1593 1474 1692 1891 2029 2018 2076 2023 1705 1587 1321 1256 1544
26 126 270 368 800 870 1086 1053 830 687 535 722 703 798 856 908 868 1155 1345 1295 1444 1516 1492 1354 1349 1349 1118 1018 1408 1569 1702 1635 1690 1903 1981 2260 2393 2458 2611 2661 2506 2441 2274
0 3 71 270 724 1007 1309 1300 1006 919 759 913 811 959 1197 1157 1194 1346 1461 1413 1490 1537 1620 1568 1418 1452 1322 879 1102 1290 1397 1617 1746 1784 2146 2230 2409 2480 2649 2630 2686 2732 2380
70 29 5 228 490 812 1313 1495 1433 1184 1076 1227 1143 1236 1557 1473 1478 1555 1682 1697 1603 1594 1715 1589 1545 1483 1351 777 586 993 1114 1271 1674 1848 2003 2169 2166 2283 2091 1973 1772 1818 2567
103 152 226 161 78 601 1005 1375 1674 1396 1316 1519 1486 1501 1707 1710 1717 1761 1826 1758 1748 1760 1878 1799 1715 1715 1704 1053 560 484 786 960 1365 1841 1900 1849 1537 1933 2273 1957 1697 1560 1389
20 139 292 409 647 91 388 1008 1373 1607 1667 1782 1717 1732 1863 1880 1956 1963 1963 2024 1910 1948 1970 1986 2052 2003 1956 1473 949 548 899 1119 1340 1559 1742 2059 1877 1729 1688 1934 2052 2207 2419
27 110 223 536 811 945 113 568 1119 1516 1791 1875 1863 1928 1989 1954 1958 1987 2037 2030 2092 2111 2094 2097 2163 2130 2113 1526 1153 888 1085 1166 1498 1612 1845 2000 2127 2089 1882 1995 1849 1858 1900
202 295 659 1032 1049 1123 157 390 1010 1300 1842 1883 1922 2022 2078 2135 2101 2154 2195 2268 2190 2232 2169 2231 2340 2320 2398 2133 1250 1021 1331 1271 1284 1593 2012 1704 1733 1904 1754 1916 1732 1722 1608
372 830 1416 1274 903 716 182 718 1173 1431 1802 1711 1712 1884 2125 2264 2309 2415 2446 2400 2211 2084 2219 2169 2297 2461 2401 2519 1617 996 1536 1322 1250 1214 1021 1212 1145 1287 1182 1151 1782 1892 1965
750 1381 1396 1142 674 656 633 1402 1578 1556 1764 1749 1782 2067 2197 2085 2144 2534 2519 2470 2452 2439 2534 2441 2416 2273 2440 2171 1942 1418 1298 1601 1607 1409 1204 1607 1604 1374 1307 1242 1453 1532 1561
109 1271 1577 1475 1236 1068 1118 1451 1751 1789 1921 1962 2101 2123 2215 2206 2251 2514 2671 2631 2705 2578 2576 2589 2544 2410 2471 2762 2123 1485 1286 1290 1553 2031 2259 2322 2356 2138 1919 1690 1720 1438 1848
0 54 1071 1371 1784 1756 1675 1779 2001 2002 2134 2228 2317 2384 2536 2484 2294 2502 2645 2558 2563 2611 2542 2642 2644 2665 2707 2886 3181 2559 1503 1144 1188 1350 1935 2411 2406 2445 2586 2786 2270 2247 2621
0 0 0 531 599 709 940 1390 2138 2096 2247 2384 2458 2620 2662 2606 2751 2696 2492 2751 2713 2166 2814 2720 2877 2970 3045 3127 3263 3449 3531 2875 2138 2164 2367 2524 2536 2709 2996 3128 3150 3183 2713
0 0 0 0 13 32 185 489 1238 1708 2410 2233 2212 2309 2368 2683 2728 2876 2286 557 844 1186 1633 1744 2349 3231 2923 2912 2968 3024 3010 2800 2610 2548 2975 2920 2878 2969 3057 3088 2976 2687 2323

GFSMW_con_mlcape_057.txt.gz
CAPE
138 39 12 4 3 7 0 1 83 371 328 482 418 390 400 536 716 716 1240 1487 1533 1173 1462 1243 991 1054 898 151 288 30 119 47 10 9 34 12 4 46 54 42 85 41 121
140 66 9 5 0 4 0 56 176 531 389 347 402 477 492 329 409 438 1079 1280 1128 1442 1113 943 940 908 707 958 587 616 99 60 23 36 72 28 3 38 63 24 20 111 165
187 93 16 0 1 2 0 181 406 540 547 245 299 484 533 487 408 695 932 1286 1369 1310 1546 1182 1214 1018 1195 737 935 908 785 254 22 25 109 37 30 69 2 31 156 240 354
213 156 92 23 15 2 93 256 481 690 654 380 0 382 328 232 287 655 600 1033 1421 1350 1472 1410 1324 1414 1077 807 845 970 971 551 34 13 13 85 115 112 205 76 121 246 295
197 162 150 128 47 6 177 179 636 824 622 522 175 244 421 181 231 247 1190 975 1586 1565 1294 1732 1335 1513 1200 1323 1153 1348 1051 318 283 34 25 40 4 54 142 324 179 214 174
240 190 126 165 139 47 126 305 784 1063 1049 900 201 446 133 312 18 87 898 518 1199 1348 1474 1516 1691 1439 1094 1439 1479 1396 1179 1284 419 506 125 43 42 77 61 35 107 127 169
257 233 163 106 240 157 115 435 973 1333 1339 1085 481 458 604 372 793 724 386 361 205 368 1358 1661 1929 1734 1754 1696 1437 1725 1395 1531 864 667 69 114 114 160 174 145 173 207 296
428 289 224 168 301 361 353 343 948 1417 1493 1195 931 457 784 194 188 357 350 258 122 153 1878 1926 1571 1764 1822 1771 1839 1612 1502 1599 1452 1344 591 227 71 79 115 258 370 436 522
499 554 403 259 279 427 605 511 760 1323 1491 1079 1269 1143 789 327 9 70 756 769 333 319 364 1175 1581 1481 1397 1625 1614 1245 1847 1923 1847 1470 1585 1074 343 365 227 260 304 367 536
436 547 761 565 398 429 487 654 805 1280 1378 1194 1514 1363 1193 1075 517 638 1502 869 951 789 694 670 887 1419 1414 1447 1878 1332 1359 1888 1652 1185 1602 1463 799 629 607 488 416 375 332
297 492 833 860 717 593 534 624 746 1014 1202 1253 1354 1093 1204 1196 894 1461 1508 1629 1290 1474 1319 1256 1075 1164 1235 1309 2112 1744 1505 1641 1711 1814 1568 1996 2025 1601 1007 679 535 493 481
156 447 556 787 878 858 762 740 718 744 1112 1260 1495 1239 1344 1077 944 905 1475 1679 1701 1670 1777 1783 1504 1342 946 1418 2028 1772 1160 1794 1784 1768 1866 1730 1804 2310 2173 1767 1401 857 951
66 278 406 527 931 992 987 825 814 798 841 1226 1310 1362 1290 1298 1018 1470 1403 1580 1862 2112 1747 1891 2031 1695 1115 1520 2024 2162 1920 1651 1721 1746 1903 1972 2098 2285 1907 2188 1340 1072 1439
18 113 304 499 800 1041 1318 1257 933 873 763 895 1008 1242 1457 1481 1363 1533 1717 1808 2010 2194 2198 2178 2174 2018 1738 1406 1492 1939 2124 1991 1704 1855 1987 2073 2201 2452 2735 2568 2627 2356 2111
23 70 154 517 1157 1198 1575 1505 1195 1148 975 998 1009 1171 1507 1668 1766 1554 1916 1964 2138 2271 2385 2453 2349 2298 1877 1570 1506 1783 1998 2135 1964 1903 2104 2088 2248 2192 2690 2550 2621 2526 2609
0 0 57 253 562 932 1575 1833 1544 1470 1216 1275 1168 1183 1563 1774 1746 1708 1874 2094 2183 2330 2475 2404 2468 2383 1759 1278 1058 1325 1518 1841 2022 2160 2199 2234 2097 1971 1934 2137 2259 2241 2673
26 53 85 62 193 566 1076 1556 1867 1611 1587 1562 1593 1441 1671 1839 1836 1871 1987 2178 2251 2352 2515 2566 2554 2576 2471 1334 926 700 1174 1625 1850 2017 2239 2204 1493 1948 2496 2306 2114 2040 1843
161 201 297 300 282 333 631 978 1560 1932 1827 1830 2075 1739 2017 2054 2090 2164 2231 2383 2492 2364 2539 2611 2644 2700 2721 2023 1095 723 965 1094 1422 1978 2114 2278 2072 2128 2329 2604 2469 2558 2717
434 394 363 344 454 628 384 456 1163 2124 2032 2320 2035 2262 2103 2417 2491 2433 2493 2684 2690 2661 2615 2774 2792 2814 2831 1984 1409 1020 1108 1208 1487 1772 1789 2109 2508 2650 2082 1814 1901 2297 2672
433 647 733 736 825 942 977 888 611 1525 2287 2364 2313 2462 2373 2628 2750 2815 2870 2911 2842 2826 2506 2667 3010 3121 3162 2722 1640 1281 1611 1391 1448 1907 2123 1893 1752 2027 2110 2265 2338 2466 2724
301 495 1229 1298 1422 1594 1336 1225 693 1145 2037 2384 2538 2810 2697 2812 3007 3129 3145 3176 3137 2558 2938 2780 2936 3054 2882 3275 2104 1347 1921 1516 1496 1447 1170 1491 1487 1359 1137 1167 2076 2327 2605
0 68 1512 1890 1768 1693 1714 1817 1543 1095 1959 2286 2558 2775 2937 2719 2757 3148 3263 3250 3217 3100 3299 3169 3227 2822 3318 2831 2369 1764 1566 1966 1758 1332 744 943 769 748 952 1007 1182 1266 1380
0 2 819 2522 2318 1611 1050 1576 1411 1739 2193 2449 2660 2782 2937 3018 2827 3143 3350 3193 3220 2776 2730 2864 2653 2439 2342 2821 2300 1718 1706 1728 1858 1876 1351 1109 1350 1496 1041 911 1314 1523 2007
0 2 77 687 1438 1624 2078 2029 2171 2176 2573 2632 2763 2860 2913 3010 2897 3020 3151 2916 2750 2729 2611 2510 2443 2260 1930 1592 2095 2079 1348 1325 1571 1739 1845 1954 2055 2109 2640 2944 2233 2355 2781
4 2 3 4 4 32 428 915 1845 2355 2331 2666 2653 2754 2712 2713 2877 2927 2828 2747 2720 2473 2605 2255 1925 1694 1993 2153 2469 2816 3072 2399 2019 2174 2212 2147 2166 2483 2852 3150 3243 3383 3393
11 0 1 0 1 0 0 18 420 1875 2411 2583 2692 2671 2598 2776 2806 2813 2105 806 1295 1276 1470 1384 1842 2633 1949 2110 2214 2527 2900 3009 2499 2204 2604 2849 2964 3141 3192 3250 3561 3570 3457

GFSMW_con_mlcape_060.txt.gz
CAPE
65 2 11 0 16 2 0 154 289 585 421 608 700 447 419 273 865 715 747 1613 1610 1275 1678 1128 935 1222 48 279 485 55 58 147 28 27 45 25 22 16 313 239 83 30 800
72 1 5 2 10 0 0 98 307 662 371 784 774 803 299 441 57 1043 1365 1213 1557 1393 1551 1197 893 943 347 320 908 83 33 294 21 25 175 129 5 103 20 177 187 209 207
173 41 0 2 0 11 2 36 369 655 432 764 487 763 1069 1093 449 1310 1288 1411 1403 1463 1449 1320 1282 861 1070 956 916 802 828 479 51 12 86 97 51 253 20 0 374 99 284
220 151 4 8 0 53 111 110 597 1043 381 675 325 559 706 559 64 1284 1243 1144 1610 1434 1777 1346 1630 1112 692 916 658 1058 728 131 131 48 33 85 135 69 130 283 430 267 404
217 208 73 16 0 100 153 268 484 1033 616 470 708 437 633 445 852 677 543 1495 1595 1630 1597 1523 1512 1266 996 1094 1119 890 1081 1211 755 370 3 19 90 197 142 227 304 263 493
242 273 179 67 24 56 121 357 504 721 802 305 538 642 251 729 482 376 1053 1490 1568 1730 1747 1715 1534 1677 1311 1186 1390 1561 1249 1218 1063 808 509 12 85 93 131 292 114 369 175
268 297 291 220 107 55 200 366 575 620 883 775 222 971 483 373 686 875 1081 901 1555 1200 1547 1964 1531 1525 1605 1331 1522 1379 1674 1411 1547 901 647 612 191 129 324 174 562 261 321
279 328 328 342 239 192 183 424 799 714 851 1283 331 401 980 261 344 1087 267 869 473 1099 1504 1757 1577 1672 1624 1661 1479 1627 1797 1505 1383 1157 811 592 800 49 111 202 413 514 786
14 398 438 323 456 375 270 483 824 1012 1153 846 1231 216 823 825 316 648 669 577 566 935 1720 1625 2193 1764 1934 1696 1587 1357 1356 1669 1449 1396 1238 784 782 738 175 237 352 487 483
2 42 588 442 526 482 547 443 935 1221 1437 1311 1415 1051 118 843 497 161 626 538 828 272 1939 2085 1844 1851 2006 1940 1879 1659 1438 1455 1541 1773 1694 1320 822 1009 1099 650 658 581 491
3 128 200 605 485 598 692 628 636 1479 1691 1686 1413 1316 1042 531 324 634 79 1111 643 1729 798 1707 1814 1854 1647 2076 1967 1388 1690 1544 1526 1817 2034 1548 1436 1400 1939 1604 796 578 770
290 16 0 1 592 576 688 936 795 991 1638 1785 1589 1470 1402 918 719 135 1006 977 1255 1053 1984 1244 1900 1387 1853 1868 1821 2008 1432 1747 1666 1849 1479 2120 2495 2228 1649 1683 1738 1883 1754
85 5 62 192 691 589 693 870 947 922 1446 1755 1622 1637 1575 1490 1049 723 356 1326 1443 1954 1545 2094 1590 1986 1688 1646 1696 2159 2063 1696 2321 2279 2102 1873 1975 1997 2592 2344 2053 1582 1667
231 256 329 409 909 825 817 885 876 963 1064 1527 1585 1565 1598 1510 1370 1439 658 1578 1706 1501 1805 1831 2285 2139 1961 1625 1600 2377 2383 2087 1906 2284 1835 2191 2414 2375 2534 2401 2097 2204 2151
15 12 89 527 1071 1150 1170 1129 1130 983 1034 1100 1380 1627 1734 1598 1592 1350 1421 741 1462 1911 2022 2074 2294 2451 2393 1965 1562 1816 2350 2390 2259 2079 2200 2205 2400 2371 2627 2772 2829 2745 2661
47 19 24 130 541 1240 1460 1427 1286 1284 1168 1124 1314 1415 1690 1699 1673 1438 1522 1646 1476 1716 2118 2303 2335 2550 2535 2031 1463 1600 1725 2353 2359 2246 2161 2477 2068 1850 1668 1731 2182 2394 2382
262 308 241 265 270 274 545 1782 1727 1460 1417 1362 1340 1400 1659 1796 1700 1846 1506 2003 1837 2052 2172 2317 2455 2558 2660 1971 1306 1298 1632 1759 2135 2344 2325 2354 2206 2061 2212 1858 1501 1560 1723
431 285 240 204 195 1 39 2071 2061 1839 1846 1530 1673 1532 1514 1712 1905 1890 2046 1831 2214 2114 2304 2402 2466 2567 2663 2436 1483 1022 1307 1586 1819 1883 2110 2290 2247 1890 2261 2488 2558 2430 2340
3 324 384 412 554 645 741 1020 2073 2081 1765 2102 1699 1965 1578 1827 1912 2039 1993 2130 2126 2353 2362 2548 2596 2523 2649 2470 2043 1180 1000 1235 1330 1410 1782 2431 2441 2192 1628 1270 1527 2104 2555
0 128 430 626 914 849 863 858 981 2536 2089 1783 2250 1950 2050 1870 2112 2134 2162 2236 2286 2362 2538 2498 2654 2814 2792 2579 2174 1689 1578 1254 1372 1560 1675 1481 1283 1575 2279 2539 2391 2087 1821
1 2 37 332 869 1781 1383 1068 937 1121 2631 2265 1926 2467 2470 2092 2397 2421 2427 2500 2559 2646 2710 2718 2775 2996 3008 3078 2348 1603 2019 1693 1731 1568 1714 1990 1770 1461 1186 1098 1544 1824 2204
0 1 3 339 1996 2524 2401 1588 1508 1183 1588 2660 2406 2421 2517 2724 2499 2855 2914 2822 2843 2897 2904 2946 3011 3030 3344 3107 2633 2169 1633 2021 2015 1905 1997 1830 1556 1528 1357 1106 1069 1215 1354
0 1 3 122 159 408 1512 2824 2361 2111 1560 2045 2669 2654 2923 2903 2739 3005 3119 3231 3178 3164 3090 3074 3194 3204 3218 3465 2834 2204 2048 1891 2101 2149 2011 1428 1221 719 442 430 731 797 1089
2 0 4 2 3 2 3 602 1322 2640 2463 1543 3010 2858 3156 3139 2970 3074 3240 3347 3327 3318 3265 2998 3301 3196 3144 3204 3529 2519 1806 1779 1786 1950 2110 1870 1702 1612 1991 2238 1319 1314 1864
0 1 1 1 1 2 4 5 155 1156 2446 2379 3082 3170 3244 3099 3171 2834 3311 3321 3233 3228 3197 3169 2868 3169 2981 2672 2610 2792 2269 2058 1913 2087 2139 2196 2078 1816 2058 2572 3074 2900 2881
0 2 0 0 0 2 3 7 1 119 1733 3296 3301 3188 3176 3163 3204 2889 2520 1554 2667 2348 2777 2534 2897 2029 1760 1395 1461 1090 2073 1867 1859 1940 2360 2401 2387 2352 2211 2231 2660 3347 3552

GFSMW_con_mlcape_063.txt.gz
CAPE
11 21 6 0 0 0 0 0 41 54 128 244 39 310 236 305 657 846 973 1177 963 1249 682 1012 912 424 37 152 460 237 179 49 64 67 152 148 202 161 195 273 452 547 623
17 6 10 0 0 0 0 0 76 85 126 450 182 292 393 156 394 662 378 1099 1076 1232 1005 581 821 686 26 252 152 53 45 395 24 51 179 86 3 33 81 139 201 118 525
27 1 4 0 0 0 0 0 205 97 155 266 215 799 372 91 93 559 794 1177 1242 1042 1246 869 995 427 621 421 489 244 366 305 67 21 81 87 62 174 101 102 136 28 237
29 2 0 0 0 0 0 0 347 125 189 133 43 378 502 231 25 514 926 1158 1406 980 1010 1089 1027 858 547 681 558 622 544 386 115 47 23 91 80 61 18 54 208 62 322
36 18 0 0 28 0 0 29 380 254 116 409 146 155 359 756 407 524 891 1127 1359 1211 1147 1084 1367 886 621 561 604 781 578 1034 857 495 192 45 7 75 70 125 289 199 206
173 50 11 7 4 0 0 0 309 304 127 97 440 77 269 416 563 622 1013 842 1389 1244 1377 1144 1011 970 683 961 920 1222 1008 631 1012 899 777 117 42 96 158 236 251 155 119
312 208 51 26 3 109 8 27 190 339 263 68 283 338 194 221 504 650 522 881 938 1241 1441 1283 1206 1236 977 1229 1123 1231 1507 1020 965 841 514 504 522 90 218 233 406 304 174
68 324 154 74 72 155 134 108 98 297 408 138 57 286 392 93 198 804 806 777 1006 905 1096 1417 1216 1090 1404 930 1145 1096 1260 1134 1147 756 934 347 348 611 129 58 195 295 397
93 362 305 168 111 139 168 245 208 152 413 284 12 165 464 121 80 225 884 1024 1089 1026 767 1485 1318 1070 1217 981 1210 1113 1258 1448 1333 1186 824 561 297 395 599 138 160 263 299
341 252 161 284 191 154 216 198 398 266 440 484 224 6 202 443 116 109 229 832 311 827 1033 1552 1270 1243 1248 1252 1368 1069 1171 1218 1105 947 1156 649 48 85 909 1119 433 498 422
59 30 171 324 265 148 161 267 559 440 487 458 724 135 11 378 342 163 60 515 448 810 994 1482 1528 1583 1408 1614 1702 1315 1264 1321 1037 1186 1354 1415 1215 613 821 1628 1582 775 533
35 176 139 132 197 234 366 250 463 725 617 665 595 790 125 15 348 122 108 107 330 490 1435 1401 1322 1655 1713 1671 1629 1563 1294 1262 1588 1322 1426 1690 1920 1390 1455 1337 1363 1443 1642
282 218 174 269 199 61 93 441 402 893 932 975 770 934 849 122 15 38 30 14 110 251 694 1646 1733 1571 1406 1239 1452 1698 1482 1267 1378 1583 1628 1466 1425 2095 2190 1990 1906 1800 1777
345 227 121 0 0 12 69 449 462 570 1207 1273 1335 1054 1009 932 218 55 0 269 139 568 402 1028 1369 1296 1205 1291 1379 1541 1532 1357 1386 1874 1988 1862 1744 1624 1677 1808 1949 1896 1836
506 213 147 27 106 64 367 578 563 528 771 1461 1517 1423 1242 1082 1032 487 324 0 664 361 1410 1046 1623 1605 1452 1427 1227 1331 1545 1540 1547 1351 1489 2117 1970 1878 2126 2269 2283 2391 2324
208 183 43 0 69 246 320 197 634 746 653 1072 1567 1563 1406 1334 1224 1133 835 488 31 1214 580 1251 1407 1730 1931 1651 1392 1255 1421 2028 1991 1693 1690 1665 1921 1963 1833 1917 2277 2563 2604
0 0 41 86 69 24 32 0 461 781 898 885 1373 1482 1461 1449 1367 1280 1124 1132 623 590 1584 1187 1204 1339 1632 1788 1679 1439 1255 1226 1789 2006 1985 1892 1921 1915 2109 2012 1771 1599 1420
0 0 0 0 1 6 108 128 180 760 745 941 992 1388 1481 1435 1492 1401 1320 1128 1130 747 615 1331 1657 1687 1733 1871 1765 1650 1366 1376 1353 1582 1928 2016 1889 1820 1781 1842 1920 1911 1697
0 0 0 0 0 38 23 224 441 483 642 1014 1191 1269 1387 1527 1617 1433 1441 1244 1325 1322 1073 1281 1536 1765 1942 1881 1892 1567 1205 1240 1398 1470 1501 1726 1875 1928 1894 1762 1522 1854 2515
0 0 0 0 1 48 283 402 4 136 472 1328 1589 1390 1383 1496 1559 1643 1420 1577 1270 1328 1696 1477 1788 1936 1964 1957 1855 1681 1566 1014 1067 1278 1447 1535 1697 1665 1728 1810 1776 1631 1262
0 0 0 0 18 52 73 1210 827 621 974 1481 1972 1731 1558 1422 1609 1637 1754 1566 1725 1654 1598 1898 1850 2027 2142 2211 1849 1680 2029 1530 1039 1061 1114 1242 1153 980 894 1028 1447 1714 1932
0 0 0 0 0 0 20 39 762 713 1297 1088 1850 2138 2036 1651 1734 1727 1757 1832 1736 1829 1838 1867 2062 2040 2199 2161 2091 1825 1520 2039 1700 1293 1190 1126 1164 1092 992 782 816 924 934
0 0 0 0 0 0 1 35 93 100 587 1668 1759 2034 2287 2192 1895 2040 1921 1953 1980 1966 1982 2050 2066 2173 2276 2502 2237 1976 1739 1626 1979 1831 1538 1497 1372 1197 1033 1037 1074 857 878
0 0 0 0 0 0 0 3 1 1 56 1132 2379 2011 2376 2513 2225 2415 2183 2163 2159 2233 2176 2266 2293 2315 2335 2584 2770 2191 1730 1695 1516 1880 1638 1378 1334 1191 1192 1237 635 263 632
0 0 2 0 0 0 0 1 4 6 11 685 2310 2493 2298 2571 2640 2440 2682 2519 2533 2446 2453 2429 2449 2434 2695 2545 2791 2762 2248 2218 1831 1833 1672 1583 1589 1668 1591 1636 1623 1286 1231
0 0 0 0 0 0 0 0 1 6 8 259 1555 2554 2659 2866 2780 2610 2080 1463 2168 2547 2523 2530 2729 2668 2298 2750 2408 2471 2505 2245 1888 1520 1856 1770 1759 1743 1697 1550 1629 1845 1876

GFSMW_con_mlcape_066.txt.gz
CAPE
9 12 1 0 0 0 0 0 87 69 82 190 200 48 246 258 400 299 520 815 694 599 475 248 313 147 46 208 98 38 178 81 44 62 105 124 150 315 326 409 596 752 655
52 11 0 1 11 0 0 0 20 0 88 169 71 154 212 359 528 443 829 845 831 892 459 531 454 114 43 203 52 41 58 59 32 52 84 39 0 137 180 185 294 437 623
96 16 3 0 0 0 6 11 32 28 96 181 75 291 220 134 478 579 569 947 815 1100 764 696 635 257 3 138 95 39 136 27 15 24 111 79 0 84 46 65 115 181 171
85 13 0 15 0 0 0 4 73 55 68 105 82 204 217 118 151 434 479 685 1049 944 994 782 605 302 301 111 306 652 278 70 20 15 15 76 49 25 3 3 85 23 198
111 7 0 25 0 0 0 37 77 88 111 128 48 111 472 257 52 230 667 582 1104 920 992 992 849 401 184 459 331 342 408 574 393 128 124 38 0 39 81 100 96 145 68
187 61 4 0 0 0 0 57 69 72 116 90 79 34 381 488 290 121 558 681 1083 995 729 919 1045 684 400 373 437 701 643 445 742 599 472 154 42 52 169 141 172 179 107
248 89 28 1 0 0 0 52 81 67 101 89 85 22 140 309 639 454 419 732 1110 1052 1030 905 897 656 316 699 632 682 984 634 584 678 378 376 344 87 152 96 252 246 183
190 157 20 12 18 0 0 82 79 52 67 98 90 166 168 139 382 644 607 805 941 914 1072 1061 963 902 728 715 816 843 878 847 800 807 716 463 220 431 282 37 81 176 228
198 256 74 28 27 9 0 0 108 51 41 24 0 19 215 217 196 614 687 844 749 737 933 1182 1123 1001 884 645 942 781 843 958 812 724 493 439 366 182 254 757 56 93 138
214 350 156 81 81 82 15 0 13 57 59 38 3 0 0 233 254 227 492 890 808 807 794 1174 1225 1044 918 861 665 795 837 982 985 786 708 208 180 79 74 969 805 324 245
216 367 246 125 97 184 177 68 18 51 178 130 75 0 0 101 309 199 125 381 908 854 988 1112 912 1134 1023 906 895 729 730 943 938 767 796 788 885 430 621 668 1219 1301 835
212 286 338 249 151 106 203 200 172 134 104 225 211 75 0 2 175 254 170 69 238 690 1021 869 1143 1153 1111 972 1058 1009 1020 898 1135 918 814 1127 1393 1193 1259 1232 1144 1091 1132
155 85 71 248 286 248 174 218 261 305 247 272 263 255 88 0 8 187 255 186 37 421 1164 1017 1025 1351 1166 1193 1228 1291 1140 1107 1071 1266 1248 1045 1183 1365 1602 1555 1749 1620 1654
71 32 67 136 115 71 57 142 290 472 415 397 377 392 440 182 3 5 177 124 169 30 482 1136 1234 1218 1217 1395 1457 1429 1322 1239 1187 1151 1125 1417 1440 1366 1221 1547 1525 1490 1545
3 47 101 88 79 3 0 24 170 421 618 534 583 445 571 657 344 12 0 24 16 122 158 482 1065 1421 1312 1256 1172 1173 1077 1014 1009 1121 1160 1359 1715 1771 1603 1701 1769 1854 1830
0 0 0 19 10 60 3 4 94 267 729 765 743 833 608 749 741 542 67 0 0 0 105 287 451 953 1415 1276 1142 1136 1150 1108 966 801 866 1245 1245 1358 1781 1823 1870 1954 1917
1 0 0 0 0 1 20 28 59 278 438 1000 1049 1084 1156 965 863 869 654 336 178 0 0 193 573 724 1025 1238 1125 1008 1021 1040 1026 935 938 1173 1409 1405 1462 1403 1635 1578 1735
0 0 0 0 0 0 36 53 90 55 509 600 1258 1483 1437 1369 1271 1038 943 759 562 300 64 264 366 649 1125 1364 1209 1135 1144 1023 1045 1194 1183 1308 1384 1427 1471 1452 1426 1445 1481
0 0 0 0 0 5 14 348 373 67 140 431 688 1059 1587 1511 1436 1343 1189 1077 960 798 406 370 730 578 617 758 1024 1104 1182 1106 1079 1087 1080 1257 1269 1205 1229 1556 1391 1330 1452
0 0 0 0 0 0 0 209 476 53 0 11 310 460 950 1414 1509 1435 1361 1256 1148 1099 954 660 536 995 1127 1189 984 903 1163 1014 1060 1132 1146 1075 1325 1291 1141 1244 1279 1208 1235
0 0 0 0 0 0 0 26 70 158 150 176 485 784 884 1180 1401 1441 1420 1370 1307 1171 1168 1091 896 750 849 1056 924 873 1281 1260 1006 959 915 967 930 944 961 1004 1217 1211 1331
0 0 0 0 0 0 0 0 1 0 1 2 21 332 1220 1447 1349 1448 1493 1393 1354 1322 1183 1302 1365 1162 1219 1286 1166 1011 1042 1501 1418 1230 967 861 716 601 650 707 999 1197 1169
0 0 0 0 0 0 0 0 0 0 0 0 8 32 676 1749 1408 1453 1515 1535 1388 1445 1481 1252 1242 1477 1557 1529 1355 1167 1032 1121 1547 1643 1452 994 733 597 446 414 557 454 329
0 0 0 0 0 0 0 0 0 0 0 0 0 2 348 1743 1865 1510 1554 1535 1631 1499 1497 1616 1541 1468 1553 1704 1761 1324 1001 1040 1027 1425 1628 1503 1112 926 906 797 632 420 624
0 0 0 0 0 0 0 0 0 0 0 0 0 24 383 1758 2116 1901 1802 1680 1673 1667 1613 1575 1573 1606 1604 1629 1817 1892 1573 1391 1330 1468 1380 1230 1222 1373 1148 1031 994 733 508
5 0 1 1 0 0 0 0 0 0 0 5 5 8 13 653 2249 2358 1902 998 1228 1583 1544 1548 1634 1698 1659 1685 1697 1686 1829 1758 1580 1140 1454 1530 1562 1435 1481 1418 1286 1192 1069

GFSMW_con_mlcape_069.txt.gz
CAPE
0 2 0 0 8 61 48 57 220 231 270 246 125 213 263 298 267 171 394 535 649 160 0 102 167 0 80 110 75 38 88 83 59 103 149 117 107 301 390 315 326 452 500
0 0 1 0 4 35 38 71 189 85 147 275 183 128 281 312 324 233 434 620 710 623 354 256 453 30 77 75 61 41 113 56 33 55 25 40 0 1 191 236 231 302 488
3 0 0 0 0 0 0 85 123 73 96 178 193 144 208 289 442 355 514 757 705 717 542 544 432 357 35 34 19 45 33 22 15 12 73 52 0 13 4 11 49 82 157
2 3 0 0 0 0 0 33 0 7 62 82 127 120 195 225 351 438 504 898 944 1044 830 652 525 286 20 169 198 217 70 13 17 11 3 35 6 2 0 0 0 13 30
67 7 0 0 0 0 0 0 0 0 11 34 112 103 129 157 159 445 524 522 889 941 1067 794 626 378 238 117 274 432 323 257 32 37 126 13 0 0 14 29 23 40 70
91 0 0 0 0 0 0 0 0 0 6 53 101 55 89 168 156 132 360 520 618 950 879 908 863 680 233 386 290 285 370 441 450 381 355 63 6 22 93 96 78 120 97
148 42 0 0 0 0 0 0 0 0 0 34 22 35 29 165 264 201 131 455 574 737 977 776 928 684 450 391 468 493 646 370 481 550 273 274 183 52 41 36 129 226 115
190 167 2 0 0 0 0 3 0 0 0 36 50 23 0 12 289 402 431 276 572 747 966 850 848 915 706 454 643 667 816 907 467 613 698 481 195 326 291 0 34 78 108
64 181 50 0 0 0 0 13 0 0 0 1 36 53 1 0 118 255 444 535 452 763 942 1013 894 913 864 643 665 737 662 909 719 610 648 471 512 221 102 598 34 33 36
78 102 112 11 22 15 11 40 41 3 0 0 21 37 40 0 4 103 277 618 688 649 826 1022 923 1003 1038 977 666 947 825 890 843 768 603 482 269 228 50 387 695 301 172
124 62 130 13 34 43 16 0 91 107 59 19 7 30 40 29 45 94 129 282 655 717 786 849 940 933 1063 1096 923 610 754 906 833 810 767 593 535 387 402 595 733 859 831
114 118 161 30 0 24 35 0 47 150 127 76 39 11 0 0 0 0 69 135 181 425 851 855 929 999 1042 1040 999 828 792 779 772 970 880 752 859 842 989 960 926 1004 936
111 73 96 54 18 5 37 3 0 69 159 152 112 38 2 0 0 0 0 7 117 94 211 532 954 1119 1065 960 1020 913 860 925 959 883 1181 1094 952 1031 1322 1322 1332 1390 1527
67 18 2 0 1 13 48 17 30 22 39 185 241 152 76 13 11 0 0 0 2 34 78 292 738 986 942 1020 1054 1042 1000 975 1064 1044 1034 1056 1159 1236 1204 1160 1276 1607 1442
0 0 0 0 0 8 0 0 1 78 106 46 157 227 227 141 3 4 0 0 0 0 6 120 450 998 1173 1127 1106 1061 1098 1084 1136 1200 1186 1188 1168 1161 1442 1478 1474 1255 1426
0 0 0 0 0 0 3 13 7 21 252 268 203 247 252 286 160 1 0 0 0 0 0 0 35 259 743 1078 1118 1106 1136 1228 1140 1084 1039 1098 1126 1066 1089 1356 1747 1912 1905
0 0 0 0 1 0 0 81 89 59 137 408 366 335 335 367 422 282 32 0 0 0 0 0 0 0 117 433 775 1010 1159 1108 988 944 929 876 1037 968 961 1093 1016 1138 1356
0 0 0 0 2 2 0 38 235 217 155 400 562 507 545 455 482 576 438 196 22 4 3 0 0 0 0 8 85 369 915 1109 1053 1026 1010 917 909 1018 1004 1177 1236 1245 1287
0 0 0 0 0 2 0 34 307 311 5 67 449 782 810 897 725 708 707 629 393 205 137 48 0 0 37 65 35 53 403 829 975 992 1022 1070 1051 1006 1003 1132 1197 1174 1325
0 0 0 0 0 0 0 0 49 62 30 55 94 354 367 1307 1259 1156 1004 881 742 649 473 367 110 89 230 111 91 261 533 498 812 1084 1036 893 866 829 938 1033 1136 1122 1117
0 0 0 0 0 0 0 0 0 0 0 3 0 28 155 482 559 1002 1274 1219 1076 947 875 794 552 319 334 507 185 96 607 535 552 642 758 859 573 467 623 754 1132 1161 1270
0 0 0 0 0 0 0 0 0 0 0 0 0 0 8 75 300 1199 1190 1306 1275 1159 1074 1034 978 792 511 378 493 373 332 653 658 717 863 794 695 516 414 294 451 745 856
0 0 0 0 0 0 0 0 0 0 0 0 0 0 0 0 101 729 1304 1272 1299 1325 1213 1154 1070 1035 958 791 399 281 312 478 932 1064 1032 1048 909 720 433 284 350 283 308
0 0 0 0 0 0 0 0 0 0 0 2 0 0 0 1 36 562 1256 1339 1353 1393 1304 1269 1181 1031 1115 1241 1117 660 331 308 403 771 1069 1240 1191 1012 899 637 357 221 402
0 0 0 10 2 0 0 0 0 0 0 0 0 0 0 0 0 36 1116 1427 1446 1454 1442 1332 1263 1211 1146 1131 1315 1339 1061 899 847 862 867 1130 1052 1261 1106 896 848 654 578
0 0 0 4 0 0 0 0 0 0 0 0 0 0 0 0 0 4 280 1069 1214 1259 1223 1212 1270 1278 1283 1208 1099 1150 1230 1053 797 749 1115 1151 1207 1206 1182 1289 1050 860 858

GFSMW_con_mlcape_072.txt.gz
CAPE
6 0 0 0 25 33 21 29 59 59 42 94 187 113 147 128 145 153 120 325 307 269 60 74 233 199 206 90 152 90 221 213 151 263 270 299 210 202 337 451 335 318 408
0 0 0 0 8 25 21 0 37 100 110 156 158 157 170 189 148 168 171 327 461 164 17 75 259 70 133 182 135 70 122 130 57 140 128 125 1 0 0 59 276 289 363
0 0 0 0 0 2 12 0 0 68 152 155 95 97 123 173 220 219 179 366 505 497 377 242 357 24 101 68 56 51 115 94 63 44 119 172 28 0 0 3 10 56 103
0 0 0 0 0 0 1 8 2 9 89 146 121 75 100 124 164 215 196 405 654 690 652 365 366 331 84 115 32 130 82 23 37 59 22 34 31 40 33 0 1 12 69
14 0 0 0 0 0 0 0 0 0 22 90 160 85 63 98 137 218 315 390 737 812 781 567 515 301 102 185 336 280 167 124 21 46 185 57 13 0 30 136 84 55 96
73 2 0 0 0 0 0 0 0 0 0 18 83 104 77 86 122 157 252 350 438 777 818 876 777 475 346 257 149 299 304 405 361 284 363 243 59 30 114 134 107 105 160
197 67 0 0 0 0 0 0 0 0 0 0 7 64 49 52 81 91 126 257 373 544 793 745 821 542 554 324 446 272 349 276 476 507 355 321 324 77 67 52 142 235 208
189 149 7 0 0 0 0 0 0 0 0 0 0 2 58 42 44 78 77 98 181 487 511 789 731 794 598 502 444 481 571 699 517 554 666 608 369 307 280 237 68 135 110
171 144 12 0 0 0 0 0 0 0 0 0 0 0 47 39 50 140 273 247 327 385 630 667 750 715 811 733 418 648 710 718 799 715 631 636 644 401 151 480 250 132 138
296 191 147 0 0 0 0 0 0 0 0 0 0 0 0 0 0 13 263 325 475 476 526 624 725 836 794 879 802 632 721 798 825 853 806 673 571 469 241 224 499 478 479
308 226 162 7 1 0 0 0 28 37 0 0 17 34 13 0 0 0 27 275 334 519 666 741 848 817 689 728 729 781 646 767 821 835 739 814 684 688 545 518 834 739 590
92 189 76 27 0 0 0 0 0 0 13 12 3 0 0 0 34 0 0 77 226 281 501 722 870 903 873 852 1010 1076 904 553 540 786 836 794 841 870 919 997 1075 1142 1104
36 66 80 50 5 0 0 0 0 0 4 0 8 13 0 0 6 0 0 0 71 163 260 425 778 961 988 940 1006 1085 1042 896 722 745 791 908 1049 953 991 1161 1314 1369 1461
2 0 0 0 19 24 14 50 5 0 24 20 0 3 6 0 0 0 0 0 0 0 96 206 268 513 659 916 1064 1007 992 990 870 834 887 987 977 1062 1200 1177 1297 1311 1335
0 0 1 2 1 12 16 24 54 20 0 27 68 25 0 0 0 0 0 0 0 0 0 57 177 244 429 672 860 901 880 1003 950 938 928 969 1043 1053 1092 1164 1185 1434 1490
0 0 0 1 1 3 3 28 46 43 55 43 82 147 132 73 0 0 0 0 0 0 0 0 0 34 288 419 570 930 1001 1030 1060 951 1021 1079 1052 1036 969 911 949 1190 1402
0 0 0 0 0 2 4 1 32 91 66 187 142 98 163 186 152 60 0 0 0 0 0 0 0 0 25 94 205 379 790 981 1051 1010 1030 1036 1021 914 976 837 742 670 776
0 0 0 0 0 0 0 0 46 270 163 159 305 259 197 241 265 246 125 20 0 0 0 0 0 0 0 0 0 13 243 592 759 964 1008 1022 1008 937 946 922 855 934 948
0 0 0 0 0 0 0 0 2 5 23 52 154 367 364 335 337 370 413 318 100 4 0 0 0 0 17 0 0 0 10 51 229 538 681 746 756 782 695 937 890 772 904
0 0 0 0 0 0 0 0 0 0 0 0 0 2 154 508 601 499 495 484 480 392 200 116 49 22 64 1 0 0 32 29 3 118 295 223 428 528 587 771 742 585 499
0 0 0 0 0 0 0 0 0 0 0 0 0 0 6 85 439 849 847 621 631 621 700 606 454 250 138 213 10 0 67 195 164 100 85 386 186 178 286 466 791 469 520
0 0 0 0 0 0 0 0 0 0 0 0 0 0 0 0 56 140 268 792 1102 967 892 907 839 681 478 227 178 46 30 235 351 320 333 407 311 235 91 33 194 240 342
0 0 0 0 0 0 0 0 0 0 0 0 0 0 0 0 0 15 74 340 994 1227 1183 1142 1078 1049 927 711 258 154 84 78 251 457 418 327 285 285 236 201 193 169 194
0 0 0 0 0 0 0 0 0 0 0 0 0 0 0 0 0 0 1 106 955 1187 1297 1358 1285 1188 1110 1044 899 342 84 63 68 199 414 566 593 533 598 473 254 178 364
0 0 0 0 0 0 0 0 0 0 0 0 0 0 0 0 0 0 0 10 198 1032 1295 1338 1334 1318 1284 1205 1044 937 595 384 267 154 297 640 727 774 749 667 694 514 462
0 0 0 0 0 0 4 0 0 0 0 0 0 0 0 0 0 0 0 0 0 136 621 722 1191 1381 1239 1115 861 674 592 533 320 260 628 748 777 922 900 957 1009 675 501

GFSMW_con_mlcape_075.txt.gz
CAPE
103 128 73 22 6 5 19 128 220 139 128 52 181 549 430 601 624 762 604 438 880 594 553 651 858 921 846 731 577 682 810 774 714 770 669 798 919 868 866 1044 1088 1031 994
47 43 67 27 11 3 11 104 186 144 160 220 489 557 568 618 617 746 695 680 986 901 606 314 658 651 730 565 699 473 465 597 480 597 593 405 296 278 311 473 661 957 972
21 15 27 25 13 18 24 17 120 211 188 264 470 414 562 626 549 524 647 660 900 1016 849 593 955 606 705 688 572 379 646 604 430 395 505 502 295 445 322 446 429 472 659
36 9 2 0 34 19 42 89 144 231 318 317 352 420 508 455 542 624 757 808 1008 1234 1103 983 990 760 576 449 281 501 509 331 372 351 306 325 393 368 327 536 345 449 530
65 31 3 0 0 13 90 110 133 191 335 437 407 474 536 574 715 741 756 813 994 1283 1373 1159 1004 850 847 814 861 654 545 408 183 238 662 514 354 281 569 548 653 689 722
80 45 48 7 26 29 38 106 176 191 242 376 516 449 392 395 293 522 642 843 1120 1496 1568 1290 1302 913 977 603 886 1204 1006 1156 1031 899 959 961 564 507 745 794 875 685 772
234 51 1 20 18 20 38 73 143 206 224 209 438 525 537 449 345 446 720 780 983 1109 1354 1443 935 942 1186 1127 1106 909 1093 1066 1086 1292 1213 1066 1143 804 781 527 685 731 896
373 247 56 48 45 40 84 76 121 147 221 244 292 446 580 537 480 640 645 847 878 1025 1292 1415 1498 1048 1262 1174 1107 1205 1218 1250 1197 1264 834 1496 1325 1161 1039 1229 751 543 650
131 345 293 68 75 72 102 120 161 183 215 247 345 332 393 403 379 523 645 645 752 856 1063 1247 1411 1445 1392 1375 1251 1110 881 1067 1325 1625 1383 1437 1545 1404 1085 1167 1080 898 617
380 372 516 167 149 132 129 122 147 187 188 227 282 341 272 315 438 542 510 675 790 881 1081 1270 1405 1054 1354 1414 1398 1264 1244 1345 1492 1426 1640 1536 1346 1360 1224 973 1091 1061 1172
327 579 487 232 169 129 111 120 123 151 158 199 236 224 185 173 357 456 473 764 918 1019 1167 1328 1307 1411 1388 1599 1542 1460 1587 1311 1673 1595 1606 1551 1693 1227 1227 1150 1273 1419 1212
98 388 500 238 189 123 100 90 122 160 150 155 177 148 214 220 214 220 290 413 660 991 1075 1285 1500 1544 1592 1647 1503 1379 1432 1143 1218 1403 1613 1449 1470 1504 1648 1657 1566 1430 1821
6 6 46 95 283 168 101 74 59 102 179 188 98 26 51 178 265 331 284 282 303 714 949 1089 1178 1511 1655 1674 1666 1676 1375 1615 1647 1448 1461 1499 1766 1737 1592 1728 1773 1639 1965
3 2 1 5 10 51 196 248 155 97 159 179 195 87 24 25 130 425 489 439 276 250 604 869 1033 1184 1578 1776 1759 1778 1770 1893 1885 1729 1601 1492 1594 1624 1979 2075 2127 1975 1993
0 1 1 2 3 2 4 58 186 185 196 296 273 312 321 67 24 162 364 456 476 365 337 524 745 978 1137 1239 1479 1608 1765 1712 1586 1797 1720 1612 1488 1185 1366 1452 1534 1842 1844
0 0 0 0 0 3 4 3 5 89 155 164 415 454 511 500 398 304 286 312 343 428 389 317 352 504 718 564 526 1028 1452 1583 1497 1496 1774 1717 1269 996 811 791 919 1241 1536
0 0 0 0 0 0 0 0 2 107 333 258 260 384 523 630 567 489 424 369 315 346 370 335 388 334 387 344 278 331 786 1413 1543 1508 1626 1737 1481 1380 1646 1160 707 648 641
0 0 0 0 0 0 0 0 0 3 122 548 465 589 559 549 678 686 605 524 453 396 383 407 401 372 382 135 16 33 360 997 1349 1432 1555 1636 1585 1726 1557 1580 1639 1683 1643
0 0 0 0 0 0 0 0 0 0 1 5 35 139 489 837 710 744 777 770 617 493 415 416 435 457 425 133 3 0 116 262 853 1183 1231 1375 1449 1449 787 956 1154 1377 1546
0 0 0 0 0 0 0 0 0 0 0 1 3 6 21 249 830 932 901 922 978 742 661 527 476 424 475 349 50 0 121 300 322 522 772 722 621 793 511 498 574 735 807
0 0 0 0 0 0 0 0 1 0 0 0 0 0 6 3 63 619 1131 1038 1057 1099 1115 1059 881 736 642 564 179 2 103 372 578 652 635 612 381 131 23 46 352 327 739
0 0 0 0 0 0 0 0 0 4 0 0 0 0 0 4 2 29 71 354 956 1057 1154 1277 1392 1373 1194 718 383 86 4 228 542 777 798 767 402 166 42 0 62 208 256
0 0 0 0 0 0 0 0 0 5 1 0 0 0 0 0 2 0 4 141 236 596 1093 1492 1278 1301 1390 1416 712 196 101 13 138 647 922 751 498 229 110 53 81 51 289
0 0 0 0 0 0 0 0 2 14 0 0 0 0 0 0 0 0 1 0 15 264 458 899 1569 1568 1405 1509 1559 960 166 4 4 67 415 539 482 371 450 394 77 177 540
4 3 5 4 1 0 0 0 0 16 1 0 0 0 0 0 0 0 0 0 0 2 261 729 1248 1530 1641 1659 1588 1560 1526 482 220 194 349 602 719 755 812 772 945 997 719
2 9 19 14 6 8 12 3 5 6 0 0 1 0 0 0 0 0 0 0 0 0 0 0 0 259 1077 1222 1211 1004 784 603 299 276 811 990 1096 1077 938 923 959 995 1023

GFSMW_con_mlcape_078.txt.gz
CAPE
139 173 234 133 0 0 0 175 346 352 474 547 300 310 423 619 704 952 1248 1269 1351 1391 1453 1053 1359 1400 1049 1221 1213 1164 1106 395 693 195 185 127 309 354 358 472 507 732 850
78 174 225 224 0 0 0 172 394 484 583 378 240 430 545 626 728 992 1240 1156 1399 1697 1364 1175 1139 1321 952 1396 1417 1270 469 222 433 448 385 100 186 153 146 184 290 457 587
146 263 302 236 6 0 0 170 409 472 385 349 764 1227 1110 1288 965 979 1047 1212 1426 1461 1553 1238 1164 1494 1350 655 1496 1228 1176 249 769 1077 666 402 148 414 210 493 223 538 406
300 289 337 292 180 2 10 182 480 509 522 824 752 866 672 382 489 742 773 1132 1467 1415 1380 1461 1583 1676 986 1089 1182 974 1233 942 253 547 400 843 693 414 291 284 226 288 312
283 286 303 243 212 151 116 209 466 757 444 794 741 873 857 567 668 681 1316 1299 1727 1089 1201 1414 1579 1598 1264 1660 1316 1381 1494 687 340 167 312 813 580 1091 743 225 79 133 316
425 302 246 193 158 232 226 275 512 782 996 997 1083 967 774 723 527 618 985 1036 1127 1259 1398 1110 1280 1354 1164 1640 1396 1211 1607 1435 1393 681 484 305 362 575 727 539 504 508 661
559 443 373 258 220 226 305 374 527 882 965 999 1155 1177 1181 1036 1075 916 124 825 903 1066 1724 1558 1090 1113 1331 1630 1548 1404 1360 1141 637 1214 693 580 681 1004 1154 876 636 754 742
885 601 438 403 344 304 316 396 509 882 995 951 1008 1256 1343 1003 809 780 499 635 806 998 1272 1907 1182 1263 1362 1579 1975 1011 795 1219 536 1012 1243 910 869 1216 1202 1226 1027 668 689
795 789 579 453 421 422 418 452 572 880 978 913 1001 1126 1346 1234 570 452 739 762 892 871 1378 1703 1588 1237 1284 1280 1723 1121 1333 1396 1324 1202 1072 1071 884 1208 1280 1281 1114 1022 754
677 849 880 572 466 487 517 597 662 816 1038 938 900 1014 1102 1248 1130 861 785 834 658 1146 1006 1783 1806 1422 1670 1743 1813 1303 1282 1482 1320 1173 1241 1571 840 1174 1218 1132 1127 1132 1039
534 680 666 824 586 534 558 602 728 789 1000 1016 875 888 917 1021 1143 929 835 1065 914 1046 1522 1848 1741 1589 1639 1711 2157 1789 1477 1772 1427 1579 1666 1803 1641 1255 854 1009 978 1034 1148
6 34 152 735 798 673 718 673 648 654 782 859 918 951 1066 969 788 963 850 986 1090 1102 1577 1879 1710 1144 1427 1681 2097 1864 1328 1517 1470 1541 1662 1692 1320 1702 1487 1234 1236 1157 1210
4 5 5 5 26 217 745 694 662 632 588 613 618 667 770 873 781 759 983 948 1068 1056 989 1521 1917 1604 1319 1798 1938 2127 2011 1700 1631 1518 1727 1571 1573 1634 1024 1448 1124 1223 1438
1 2 3 3 3 5 51 199 638 599 517 588 691 575 652 745 661 686 914 1018 1109 1150 967 1054 1470 1811 1467 1493 1896 2206 2274 1885 1678 1949 2031 1917 1433 1532 1893 1980 1986 1931 1794
0 0 0 0 1 2 3 4 4 164 769 659 689 732 853 792 694 538 718 948 1143 1189 1194 964 1040 1397 1540 1607 1860 2181 2133 1938 1928 2071 2320 2123 1891 1338 1436 1329 1647 1720 1787
0 0 0 0 0 0 0 0 2 6 238 702 767 910 842 927 1041 849 486 903 1072 1250 1256 1225 971 808 565 523 885 1271 1906 2088 2221 2115 2072 2159 1851 1673 1244 910 640 828 1477
0 0 0 0 0 0 0 0 0 2 2 435 948 704 785 1068 1063 1152 1127 1038 976 1091 1216 1221 1169 1107 977 301 101 455 836 1040 1446 1791 1801 1657 1305 1769 1892 1410 889 744 667
0 0 0 0 0 0 0 0 0 0 0 0 0 14 589 897 958 1004 1105 1204 1194 1132 1126 1165 1265 1241 1271 791 382 94 434 608 996 1256 1466 1809 1640 1187 1477 1714 1620 1890 1796
0 0 0 0 0 0 0 0 0 0 0 0 0 1 2 32 601 1079 978 1059 1192 1177 1189 1160 1218 1347 1390 969 521 262 508 436 653 877 1252 1465 1769 1754 1435 1468 1335 1251 1364
0 0 0 0 0 0 0 0 0 0 0 0 0 0 3 2 1 134 773 952 1133 1173 1332 1216 1228 1245 1319 1294 754 270 514 515 599 779 1025 1015 1139 1240 1222 1522 1479 1381 1231
0 0 0 0 0 0 0 0 0 0 0 0 0 0 0 0 2 1 8 487 1161 1245 1219 1307 1369 1442 1390 1317 731 357 563 632 662 730 756 829 634 536 397 588 1415 1022 867
0 0 0 0 0 0 0 0 0 0 0 0 0 0 0 0 0 6 1 4 191 674 1151 1286 1342 1652 1829 1535 1144 499 223 609 856 941 886 1025 865 525 359 260 384 488 521
0 0 0 0 0 0 0 0 0 0 0 0 0 0 0 0 0 0 0 1 10 337 620 661 868 1334 1578 1923 1463 923 456 202 213 988 1145 1039 836 550 272 128 160 98 257
0 0 1 0 0 0 0 0 0 0 0 0 0 0 0 0 0 0 0 0 0 0 39 270 639 738 1085 1360 1695 1316 599 181 90 166 262 608 762 845 999 863 239 151 401
2 3 9 8 0 0 1 7 13 9 0 0 0 0 0 0 0 0 0 0 0 0 0 3 0 40 481 1096 252 314 1427 1610 1092 537 662 791 805 953 1147 1212 1111 1085 803
2 6 7 13 10 6 6 5 2 0 10 18 0 0 0 0 0 0 0 0 0 0 0 0 0 0 0 0 0 0 92 296 820 631 955 1239 1364 1409 1449 1522 1540 1411 1227

GFSMW_con_mlcape_084.txt.gz
CAPE
23 2 7 5 7 4 191 361 241 431 801 601 612 337 445 813 1027 1316 1654 1180 1148 1483 1565 1554 1154 354 760 837 1595 1334 1301 815 826 1380 704 157 21 202 340 629 713 572 921
24 15 15 14 8 8 169 390 448 194 810 301 481 646 815 768 924 1051 1253 1448 1440 1330 1468 1157 1312 928 949 1434 1312 407 1332 539 521 858 1098 474 398 408 266 272 337 386 654
38 93 34 31 22 30 113 382 639 290 500 502 474 886 828 897 963 956 1255 1186 1390 1531 1375 1570 1400 1107 442 1109 1315 1418 327 561 540 789 504 909 805 1193 251 177 238 314 642
72 186 88 75 32 3 77 374 967 495 577 920 393 583 534 590 536 826 1317 1279 1168 1389 1317 1486 1609 1096 504 222 1108 1002 1127 1051 849 864 183 727 315 986 790 267 90 449 466
99 154 196 132 12 0 16 360 837 692 487 933 750 413 374 638 303 1148 841 1286 1361 1544 1181 1551 1536 1436 1278 757 1454 1131 1116 1332 1225 1545 486 502 1031 701 1002 242 134 342 585
194 188 207 180 48 3 10 363 721 953 995 504 630 770 805 405 179 302 406 926 1179 1332 1411 1631 1665 1463 519 68 1681 1396 1435 1480 1748 1069 939 1088 208 580 1094 950 779 422 682
110 219 312 183 171 4 73 581 945 1083 1082 445 850 1469 1156 1005 1002 662 381 959 267 740 1198 1414 1588 1586 1169 1183 1520 1641 1505 1975 908 1329 1006 1300 1413 578 970 1101 1296 751 793
41 195 349 317 314 6 66 460 1103 1241 1047 1078 1105 1128 970 1175 899 1166 1172 178 395 605 1413 1343 1727 1688 1434 1610 1595 1871 1278 1490 983 594 762 1198 1507 1518 906 813 985 1100 1329
524 309 438 351 376 131 141 329 909 1318 1596 1459 1575 1876 1787 1444 368 346 821 710 1112 502 1101 934 1478 1337 1540 1448 1525 1304 1527 1595 1620 1307 992 912 874 937 739 710 337 804 1118
325 317 176 136 577 224 233 656 988 1301 1522 1517 1762 1908 2049 1789 1569 1680 963 1351 1526 573 516 604 978 1372 1600 1544 1527 1643 1204 1519 1559 1252 1486 990 678 1090 1394 699 725 998 887
21 119 58 1 299 401 226 496 1320 1372 1707 1755 1771 1675 1833 2022 2015 1667 1493 930 1169 1167 425 0 370 1350 1449 1461 1500 1109 1166 1340 1095 1378 1153 1476 1364 1227 1403 1921 1633 677 790
0 3 5 31 8 11 345 327 337 1031 1424 1697 1787 1803 1912 1685 1893 1853 1767 1597 1228 1254 1210 1372 1519 1599 1495 1526 1459 1491 1175 1222 1409 1404 1243 1227 1612 1434 1503 1286 1070 1317 1076
3 3 4 0 45 0 0 6 217 303 642 1558 1806 1862 1711 1770 1772 1926 1825 1946 1799 1584 1562 1162 1513 1750 1800 1630 1576 1398 1416 1629 1521 1725 1546 1242 1568 1512 1188 1692 1678 1625 1618
1 2 5 3 7 4 0 4 10 0 165 685 187 1859 1738 1750 1607 1864 2037 1887 2015 1879 1859 1685 1786 1755 1847 1916 1752 1893 1696 1861 1644 1849 2010 2087 1917 1616 1472 1456 1460 1549 1634
0 0 0 0 1 0 0 0 2 0 5 149 344 485 778 1571 1616 1601 1519 1787 1960 2029 2094 2054 1739 1923 2154 1803 1538 1683 1957 1523 1389 1644 1914 2147 2126 1696 1957 1769 1652 1733 1492
0 0 0 0 0 0 0 0 1 0 0 0 24 102 356 569 871 1032 1222 1453 1594 1902 2072 2063 2176 1916 1470 1181 1071 1205 1207 2076 1979 1488 1772 2054 1964 1783 1366 1021 1012 929 1342
0 0 0 0 0 0 0 0 0 0 0 0 0 0 7 102 183 537 1078 1173 1199 1290 1636 1959 2136 2120 2180 1544 932 448 1330 2054 1988 1843 1982 2034 1696 1329 1548 1359 1244 1050 576
0 0 0 0 0 0 0 0 0 0 0 0 0 0 0 0 0 88 159 349 730 1172 1289 1477 1857 2016 2260 2097 1791 1118 831 770 1160 1336 1783 2042 1787 1650 1899 2310 2332 1928 1651
0 0 0 0 0 0 0 0 0 0 0 0 0 0 0 0 0 0 0 1 67 435 1059 1353 1433 1660 1977 2019 1495 1493 1308 1155 936 846 1173 1425 1486 2156 2116 1249 1155 1774 2568
0 0 0 0 0 0 0 0 0 0 0 0 0 0 0 0 0 0 0 0 0 0 168 658 1354 1530 1350 1814 1584 1142 1662 1530 1497 1402 1147 741 712 1219 933 990 2004 1764 1225
0 0 0 0 0 0 0 0 0 0 0 0 0 0 0 0 0 0 0 0 0 0 5 145 678 1191 1469 1766 1325 1152 1326 1764 1680 1552 1458 1501 1213 852 571 522 793 830 1520
0 0 0 0 0 0 0 0 0 0 0 0 0 0 0 0 0 0 0 0 0 0 0 5 115 980 974 864 706 323 198 520 742 1228 1527 1574 406 202 250 369 441 391 421
0 0 0 0 0 0 0 0 0 0 0 0 0 1 0 0 0 0 0 0 0 0 3 8 28 30 32 15 43 0 0 0 0 6 106 199 557 580 414 509 362 23 90
0 0 0 0 0 0 0 0 0 0 0 0 0 0 0 0 0 0 0 0 0 0 0 0 0 0 0 0 0 0 0 0 0 0 0 0 0 362 608 557 718 327 300
1 0 0 0 1 0 0 0 0 0 0 0 0 0 0 0 0 0 0 0 0 0 0 0 0 0 0 0 0 0 0 0 0 0 0 0 85 1007 1315 1544 1296 1215 827
1 2 4 5 3 1 1 0 0 0 0 1 0 0 0 0 0 0 0 0 0 0 0 0 0 0 0 0 0 0 0 0 0 0 0 0 0 94 199 539 898 1107 1226

GFSMW_con_mlcape_087.txt.gz
CAPE
15 10 4 16 163 10 39 85 199 0 97 457 542 471 82 397 751 912 989 748 842 1364 1141 1110 249 572 467 642 1286 985 1135 1122 790 807 634 360 9 180 510 536 587 513 813
9 0 0 0 88 29 33 133 311 524 95 507 272 391 485 545 838 911 1044 746 826 1163 1085 1131 735 695 736 1383 983 506 620 485 484 545 330 272 134 166 207 535 656 562 834
2 2 0 12 18 60 0 355 199 293 330 138 512 1034 713 633 924 1183 897 1355 1331 1216 1021 1048 927 486 462 624 908 1387 422 633 563 458 530 663 516 701 124 107 316 53 634
2 9 5 1 5 61 93 393 107 65 50 604 285 574 542 481 587 608 777 1033 1049 1320 1358 1291 1032 1023 466 485 430 1325 1212 154 440 840 398 576 287 716 407 272 69 327 549
22 6 24 3 58 0 134 462 216 51 39 410 865 492 632 321 397 723 914 894 1097 1178 1193 1121 1127 597 681 177 686 1333 935 1120 1398 1207 1039 849 680 1253 891 416 63 125 334
38 89 52 60 71 60 144 437 406 287 70 518 821 560 419 271 290 703 560 573 1025 1136 914 1357 1192 984 571 442 841 1342 1201 1085 1017 1333 1033 951 740 738 1034 968 815 221 326
23 44 102 131 41 49 142 231 630 348 122 588 505 526 759 511 454 514 304 779 627 814 970 1283 1353 1085 767 61 708 1377 1189 1621 521 513 715 507 1088 1462 1252 719 982 917 943
13 33 16 163 55 4 153 230 580 551 291 485 338 470 713 621 504 515 427 751 125 173 530 900 996 1356 912 1113 1385 1170 1092 1102 1126 485 386 66 484 798 898 1308 521 705 992
1 0 5 81 250 12 191 285 477 565 501 848 247 600 998 848 593 832 811 442 354 800 985 837 960 1251 1342 996 1319 1167 1353 1226 982 866 560 326 342 339 732 1374 429 802 560
50 16 17 42 75 46 253 448 632 494 586 1101 774 721 773 810 1004 1075 1068 974 692 562 407 690 811 1124 1300 1256 1073 1014 1021 1145 1193 1395 965 1115 1260 1072 903 1055 1468 1313 929
252 212 112 51 34 19 140 587 848 839 691 751 1014 954 1317 1230 1097 1137 1536 1217 809 491 449 345 482 872 1172 1227 1252 1122 971 1234 1215 803 1333 933 1416 954 1105 777 984 986 1334
14 86 54 142 90 18 30 91 75 523 968 1205 1429 1595 1748 1807 1661 1401 1346 1546 814 687 702 240 0 417 1011 1449 1336 967 1119 913 1102 842 1192 661 985 990 1537 1316 822 1204 1222
1 0 1 2 1 0 40 4 56 171 348 664 1295 1300 1793 1819 1858 1751 1485 1366 1378 1060 1049 813 819 1042 1133 1058 1510 1261 1073 1342 1187 1077 1115 1366 950 929 1307 856 829 1225 1087
3 3 2 1 0 0 6 0 13 45 77 221 307 545 654 832 1542 2005 1912 1767 1687 1557 1311 1298 1214 1341 1367 1463 1697 1471 1116 985 1335 1530 1611 1698 1188 1180 1231 1232 974 878 897
0 0 1 2 1 0 3 1 0 17 9 18 53 12 38 368 933 1146 1861 1746 1730 1845 1627 1452 1499 1746 1705 1406 1278 1545 1651 1580 1393 1280 1429 1620 1780 2041 1699 1690 1418 1211 966
0 0 0 0 0 0 1 1 0 0 0 0 2 13 11 219 333 700 1078 1289 1279 1241 1760 1704 1736 1494 1522 1941 1660 1562 1361 1365 1631 1477 1348 1411 1449 1900 2008 1394 1382 1570 1221
0 0 0 0 0 0 0 0 0 0 0 0 0 0 2 26 120 157 294 468 647 1160 1240 1271 1440 1461 1717 1539 1110 827 848 1096 1168 1348 1636 1390 1464 1509 1793 1560 1054 989 816
0 0 0 0 0 0 0 0 0 0 0 0 0 0 0 0 0 2 20 85 148 395 790 991 1122 1314 1393 1374 1371 1264 739 790 972 1108 1502 1790 1701 1656 1570 1417 1564 1768 1480
0 0 0 0 0 0 0 0 0 0 0 0 0 0 0 0 0 0 0 0 0 6 117 363 675 931 1143 1240 1121 960 919 1072 1040 997 1001 955 1008 1292 1460 1660 1706 1701 1762
0 0 0 0 0 0 0 0 0 0 0 0 0 0 0 0 0 0 0 0 0 0 0 0 88 339 698 980 820 846 923 1054 1237 1390 1325 1126 968 790 660 616 743 732 748
0 0 0 0 0 0 0 0 0 0 0 0 0 0 0 0 0 0 0 0 0 0 0 0 0 12 600 204 109 232 588 741 884 1127 1126 1297 741 438 354 162 342 621 593
0 0 0 0 0 0 0 0 0 0 0 0 0 0 0 0 0 0 0 0 0 0 0 0 1 168 0 0 0 0 0 0 13 166 313 315 189 128 172 380 521 366 272
0 0 0 0 0 0 0 0 0 0 0 0 0 0 0 0 0 0 0 0 0 0 0 0 0 0 0 0 0 0 0 0 0 0 0 0 0 1 143 329 460 245 177
0 0 0 0 0 0 0 0 0 0 0 0 0 0 0 0 0 0 0 0 0 0 0 0 0 0 0 0 0 0 0 0 0 0 0 0 0 0 0 47 175 349 557
0 0 0 0 0 0 0 0 0 0 0 0 0 0 0 0 0 0 0 0 0 0 0 0 0 0 0 0 0 0 0 0 0 0 0 0 0 0 0 4 630 1126 1099
0 0 0 0 0 0 0 0 0 0 0 0 0 0 0 0 0 0 0 0 0 0 0 0 0 0 0 0 0 0 0 0 0 0 0 0 0 0 0 0 0 29 187

GFSMW_con_mlcape_093.txt.gz
CAPE
127 151 205 190 144 28 0 285 136 184 99 150 182 227 224 381 471 470 624 790 812 1003 853 1032 660 500 375 535 943 782 637 689 575 439 390 265 159 429 455 453 571 663 722
165 191 163 197 118 52 52 124 10 170 116 88 131 226 178 256 359 429 703 814 838 987 976 935 281 494 681 921 816 912 344 399 559 521 195 132 47 163 176 383 568 586 494
130 163 123 151 112 82 40 23 0 62 246 117 135 319 320 417 570 619 747 683 554 903 944 910 519 641 610 595 604 927 877 514 709 648 470 490 381 413 180 178 371 638 598
73 128 110 138 155 37 22 0 0 0 105 276 284 349 363 391 346 503 682 702 823 915 836 875 771 589 327 421 333 988 687 719 713 757 774 614 582 899 428 183 328 373 451
11 80 129 117 112 45 45 26 0 16 53 242 322 430 289 346 391 351 457 521 704 1013 812 866 801 646 465 131 292 1017 987 1175 953 721 801 632 612 722 841 631 292 119 37
1 90 132 101 54 76 117 86 0 0 60 124 159 304 359 352 378 426 401 607 444 562 841 996 908 646 561 389 408 986 1069 1013 802 660 624 620 1004 988 1102 814 795 519 183
8 22 74 98 61 140 177 207 126 74 105 207 168 162 330 390 373 393 512 487 539 564 657 1018 911 732 676 366 444 865 834 927 935 557 316 348 453 622 1056 867 445 754 888
5 0 13 29 110 134 239 205 178 130 88 111 186 308 466 325 183 341 430 535 463 458 745 907 1022 926 888 543 134 805 915 900 883 730 774 430 577 422 759 1156 857 645 557
4 11 67 35 98 147 270 218 165 78 69 74 171 364 493 482 408 398 420 473 590 519 467 747 960 741 819 857 705 830 943 1130 966 831 831 918 841 937 1050 744 981 910 617
8 32 58 70 113 99 166 406 272 179 127 111 117 247 503 519 450 430 499 409 419 622 317 251 602 838 1000 1064 577 808 988 860 818 965 1024 978 1042 1163 1053 973 687 774 742
7 4 44 52 26 64 126 243 434 410 299 269 249 144 384 478 540 479 457 698 712 591 517 726 691 820 754 952 1131 897 851 852 868 898 932 888 708 890 824 1198 978 795 891
28 40 7 20 5 41 81 164 274 271 250 286 363 342 310 463 438 392 590 498 863 591 493 640 516 532 567 743 994 1131 1063 922 729 698 828 911 890 613 655 920 1059 777 847
76 104 47 26 70 86 123 100 59 99 62 121 234 371 453 558 511 377 550 616 811 757 708 502 333 270 344 498 752 900 788 961 915 874 913 935 806 929 1000 760 715 853 934
9 47 54 27 52 67 117 90 61 94 49 52 67 160 186 215 342 491 623 623 848 814 825 609 396 328 291 46 213 643 906 941 960 962 952 870 949 1001 1050 1132 1083 1143 1159
1 2 14 32 33 7 43 98 113 94 57 56 38 35 62 115 158 193 261 414 706 941 870 733 721 720 745 829 928 1015 1066 1137 1057 1000 1005 994 1113 1050 979 995 927 1150 1149
1 1 1 0 7 3 15 31 59 30 18 54 53 69 42 11 14 22 63 148 229 325 578 806 970 914 1199 1316 1267 1225 1165 1253 1243 1137 1172 1100 1050 1147 1164 1020 947 1072 962
1 1 1 1 0 1 1 0 0 0 1 0 5 5 3 8 8 1 0 5 16 51 148 327 521 718 818 916 930 1063 1089 1032 917 922 1016 1028 1022 1022 1058 1111 998 1033 885
0 0 0 0 2 2 1 0 0 0 0 1 3 3 3 0 1 0 0 0 2 0 6 78 118 240 377 395 534 601 557 721 699 663 700 758 836 941 1025 1044 999 947 950
0 0 0 0 0 0 0 0 0 0 0 0 0 0 0 0 0 0 0 0 0 0 0 0 23 63 118 82 192 480 540 628 647 554 616 695 763 759 359 729 898 887 895
0 0 0 0 0 0 0 0 0 0 0 0 0 0 0 0 0 0 0 0 0 0 0 0 77 45 0 0 0 0 0 0 0 0 28 13 92 6 0 68 273 578 592
0 0 0 0 0 0 0 0 0 0 0 0 0 0 0 0 0 0 0 0 0 0 6 0 0 0 0 0 0 0 0 0 0 0 0 0 0 0 0 0 0 1 0
0 0 0 0 0 0 0 0 0 0 0 0 0 0 0 0 0 0 0 0 0 0 0 0 0 0 0 0 0 0 0 0 0 0 0 0 0 0 0 0 0 0 0
0 0 0 0 0 0 0 0 0 0 0 0 0 0 0 0 0 0 0 0 0 0 0 0 0 0 0 0 0 0 0 0 0 0 0 0 0 0 0 0 0 0 0
0 0 0 0 0 0 0 0 0 0 0 0 0 0 0 0 0 0 0 0 0 0 0 0 0 0 0 0 0 0 0 0 0 0 0 0 0 0 0 0 0 0 0
0 0 0 0 0 0 0 0 0 0 0 0 0 0 0 0 0 0 0 0 0 0 0 0 0 0 0 0 0 0 0 0 0 0 0 0 0 0 0 0 0 0 0
0 0 0 0 0 0 0 0 0 0 0 0 0 0 0 0 0 0 0 0 0 0 0 0 0 0 0 0 0 0 0 0 0 0 0 0 0 0 0 0 0 0 0

GFSMW_con_mlcape_096.txt.gz
CAPE
60 97 165 190 147 88 2 84 211 237 254 282 249 280 181 126 351 411 619 591 682 760 725 711 652 532 427 701 492 648 561 431 481 442 465 189 159 152 565 613 598 671 690
46 73 153 161 172 98 79 145 228 143 193 190 131 189 140 230 446 349 528 653 811 877 683 666 349 468 795 826 894 629 517 518 622 569 255 336 200 489 489 375 550 653 665
84 138 119 151 170 84 71 113 163 91 83 98 193 204 254 307 362 399 519 659 559 687 592 621 388 542 551 521 563 973 464 789 723 645 493 523 528 527 215 331 380 495 572
116 128 113 158 164 57 31 133 73 95 56 76 182 206 185 258 286 434 533 569 685 687 863 866 642 555 388 390 398 1003 635 874 790 798 652 603 700 1016 642 359 297 220 210
111 139 137 175 168 69 31 57 76 33 133 120 148 237 212 260 285 322 431 535 450 640 662 724 746 619 532 124 234 941 987 1050 838 621 826 721 760 827 866 640 712 509 31
58 161 173 174 186 91 61 22 0 11 108 179 197 222 225 148 200 356 281 387 376 564 715 863 692 584 548 315 267 938 951 880 658 575 473 453 717 1057 1205 844 660 760 568
9 147 154 151 166 138 105 29 0 0 0 140 160 240 211 243 213 311 320 302 446 384 443 689 790 605 545 421 291 691 791 859 873 664 445 234 307 649 1005 864 511 677 705
2 93 123 97 116 105 120 79 32 0 0 59 110 128 132 196 251 282 309 384 422 426 421 602 902 797 716 459 257 450 871 763 787 825 717 532 573 424 724 940 966 717 689
11 49 74 60 89 70 159 118 99 26 13 72 183 166 189 205 209 216 306 362 427 383 376 607 762 791 773 786 558 433 734 991 958 821 758 957 808 897 986 724 819 964 672
0 30 33 0 12 44 130 147 152 121 94 86 124 153 318 318 324 301 322 329 241 403 398 317 330 675 698 777 725 549 799 887 776 852 946 978 965 1064 1097 1020 713 653 738
14 9 40 33 27 44 106 262 203 125 137 122 56 86 207 388 402 362 350 471 500 478 342 327 326 459 589 794 903 807 764 789 825 837 867 866 821 713 765 895 1112 774 704
14 20 52 57 34 4 106 159 206 124 160 183 150 154 135 201 391 356 320 464 504 366 282 339 509 543 555 603 730 851 877 623 680 713 702 622 820 797 636 679 918 938 842
26 1 47 63 58 40 24 97 98 65 37 91 180 281 314 329 313 369 401 410 509 478 380 291 411 320 249 334 496 623 733 743 793 669 788 765 722 819 842 923 887 727 856
48 85 13 36 68 56 49 62 41 13 1 39 71 80 167 174 207 272 332 382 436 563 570 475 559 501 335 220 159 248 545 687 814 788 766 842 815 704 811 798 874 865 924
33 128 112 56 42 91 113 120 109 84 47 45 6 19 19 4 11 20 91 135 247 405 652 736 619 514 360 388 479 437 651 890 946 1035 1078 1016 998 991 997 1055 1028 961 952
1 6 25 26 31 46 82 85 76 74 60 44 12 4 18 9 0 12 0 0 0 21 112 298 498 662 694 809 820 938 1049 1125 1104 1196 1271 1207 1153 1143 987 922 856 975 1106
4 22 10 1 1 0 0 5 8 9 0 0 4 7 4 20 3 4 0 0 0 0 0 2 32 138 272 180 356 542 779 1018 1012 956 899 868 929 885 912 867 876 837 775
0 0 2 2 1 1 0 0 0 0 0 0 0 1 3 2 2 0 0 0 0 0 0 0 5 62 46 20 120 188 327 451 410 399 465 519 561 166 279 588 866 941 957
0 0 0 0 0 0 0 0 0 0 0 0 0 0 0 0 0 0 0 0 0 0 0 0 62 0 0 0 0 24 107 82 63 67 37 32 5 0 0 65 315 412 527
0 0 0 0 0 0 0 0 0 0 0 0 0 0 0 0 0 0 0 0 0 0 0 2 0 0 0 0 0 0 0 0 0 0 0 0 0 0 0 0 0 0 6
0 0 0 0 0 0 0 0 0 0 0 0 0 0 0 0 0 0 0 0 0 0 0 0 0 0 0 0 0 0 0 0 0 0 0 0 0 0 0 0 0 0 0
0 0 0 0 0 0 0 0 0 0 0 0 0 0 0 0 0 0 0 0 0 0 0 0 0 0 0 0 0 0 0 0 0 0 0 0 0 0 0 0 0 0 0
0 0 0 0 0 0 0 0 0 0 0 0 0 0 0 0 0 0 0 0 0 0 0 0 0 0 0 0 0 0 0 0 0 0 0 0 0 0 0 0 0 0 0
0 0 0 0 0 0 0 0 0 0 0 0 0 0 0 0 0 0 0 0 0 0 0 0 0 0 0 0 0 0 0 0 0 0 0 0 0 0 0 0 0 0 0
0 0 0 0 0 0 0 0 0 0 0 0 0 0 0 0 0 0 0 0 0 0 0 0 0 0 0 0 0 0 0 0 0 0 0 0 0 0 0 0 0 0 0
0 0 0 0 0 0 0 0 0 0 0 0 0 0 0 0 0 0 0 0 0 0 0 0 0 0 0 0 0 0 0 0 0 0 0 0 0 0 0 0 0 0 0

GFSMW_con_mlcape_099.txt.gz
CAPE
110 170 273 291 303 306 242 303 378 579 563 558 543 627 465 641 800 972 1015 954 1205 1265 905 1356 1267 1088 1439 1328 1242 1180 1104 1308 1255 1295 935 826 637 834 1088 1379 1398 1335 1346
97 100 215 279 320 193 175 231 302 549 585 786 646 729 640 516 965 906 1107 1199 1344 1257 1398 1338 915 1046 1448 1441 1574 1379 1187 1370 1350 1107 886 797 793 1172 1117 1071 1035 1164 1270
110 157 174 230 334 287 197 199 320 500 539 695 591 556 649 633 808 834 774 789 1145 1166 1280 1117 984 1144 1171 1189 1249 1459 1344 1417 1438 1366 1322 1105 978 1304 998 873 975 977 1160
77 160 161 192 283 297 269 312 392 494 410 458 581 324 484 389 736 583 504 660 1220 1192 1032 1218 1172 1158 1145 1040 1174 1610 1512 1695 1421 1654 1510 1449 1586 1606 846 1294 991 1061 723
25 114 194 185 258 300 217 265 321 436 319 322 644 403 527 725 717 779 519 660 843 891 797 866 1341 1186 1131 755 935 1690 1295 1607 1394 1280 1673 1742 1706 1830 1724 1077 1263 1233 1134
52 121 191 205 268 263 185 187 232 326 383 297 410 534 545 524 562 717 725 801 882 1176 1207 1278 1165 1316 1294 992 904 1626 1732 1464 1160 1122 1120 1105 1398 1720 1852 1548 1422 1495 1699
64 120 156 138 252 226 188 174 180 250 247 393 429 558 365 508 269 479 862 695 411 476 751 834 816 1187 1172 1165 988 1339 1440 1617 1494 1192 1180 944 1068 1404 1714 1951 1521 1320 1509
43 107 158 103 176 219 231 231 221 168 198 276 413 586 452 580 677 767 801 931 927 881 1067 1030 918 1300 1234 1053 917 1129 1526 1394 1413 1310 1253 1244 1381 1295 1512 1455 1728 1466 1560
45 42 171 207 270 151 200 261 271 227 177 180 347 465 274 439 500 566 669 824 923 1012 937 1146 1038 1058 1124 1356 1101 793 1244 1605 1622 1363 1331 1536 1523 1622 1720 1787 1389 1531 1135
53 99 63 113 110 155 146 242 318 219 204 177 350 384 475 417 602 664 707 766 809 862 924 874 934 1153 1147 1004 826 1280 1318 1316 1496 1315 1537 1684 1541 1599 1767 1746 1727 1405 1241
76 209 128 77 80 77 46 156 222 245 240 156 188 279 391 647 718 648 664 812 791 832 900 803 634 674 811 1039 1303 1167 1199 845 1134 1149 1418 1527 1597 1391 1292 1454 1718 1609 1465
200 220 219 148 67 0 18 170 357 238 257 307 244 257 199 351 677 771 567 865 624 697 769 754 855 1011 964 1224 1342 1237 1267 972 754 736 912 880 1287 1497 1454 1247 1403 1423 1656
207 226 276 258 132 36 24 68 155 241 156 212 317 156 161 318 526 726 909 894 566 487 980 806 718 846 755 654 868 806 927 967 744 807 925 879 920 826 1287 1266 1001 1311 1502
280 234 233 241 232 115 76 119 81 50 43 79 135 182 215 329 629 691 619 818 846 624 1014 997 909 1006 750 644 639 678 953 912 889 689 901 796 974 912 874 1025 1021 1069 978
261 289 287 280 298 269 194 129 67 43 21 4 0 37 141 209 320 354 365 398 642 798 1021 1070 1130 1100 928 687 702 797 787 740 1259 1229 1087 1191 1093 1019 912 1078 886 948 853
191 186 226 186 147 211 187 140 88 65 30 46 48 41 26 60 116 159 172 190 246 334 403 453 533 584 832 177 344 577 1259 1491 1538 1559 1329 1568 1123 1154 759 645 560 717 996
113 159 121 71 67 115 84 76 84 43 53 83 67 18 4 0 3 44 66 48 44 68 80 119 217 124 0 0 84 254 903 918 1223 1311 1158 1076 1049 499 701 1118 908 835 617
19 15 0 0 0 0 0 0 0 0 0 0 0 2 2 0 0 11 25 22 15 6 7 132 0 0 0 0 42 217 648 859 612 340 247 189 1 0 0 191 856 1198 1319
0 1 2 2 1 0 0 0 0 0 0 0 0 0 2 1 1 1 0 0 0 0 40 0 0 0 0 0 0 1 1 5 1 0 0 0 0 0 0 0 0 26 276
1 2 3 3 0 0 0 0 0 0 0 0 0 0 0 0 0 0 0 0 0 3 3 1 0 0 0 0 0 0 0 0 0 0 0 0 0 0 0 0 0 0 0
0 0 0 0 0 0 0 0 0 0 0 0 0 0 0 0 0 0 0 0 0 0 0 0 0 0 0 0 0 0 0 0 0 0 0 0 0 0 0 0 0 0 0
0 0 0 0 0 0 0 0 0 0 0 0 0 0 0 0 0 0 0 0 0 0 0 0 0 0 0 0 0 0 0 0 0 0 0 0 0 0 0 0 0 0 0
0 0 0 0 0 0 0 0 0 0 0 0 0 0 0 0 0 0 0 0 0 0 0 0 0 0 0 0 0 0 0 0 0 0 0 0 0 0 0 0 0 0 0
0 0 0 0 0 0 0 0 0 0 0 0 0 0 0 0 0 0 0 0 0 0 0 0 0 0 0 0 0 0 0 0 0 0 0 0 0 0 0 0 0 0 0
0 0 0 0 0 0 0 0 0 0 0 0 0 0 0 0 0 0 0 0 0 0 0 0 0 0 0 0 0 0 0 0 0 0 0 0 0 0 0 0 0 0 0
0 0 0 0 0 0 0 0 0 0 0 0 0 0 0 0 0 0 0 0 0 0 0 0 0 0 0 0 0 0 0 0 0 0 0 0 0 0 0 0 0 0 0

GFSMW_con_mlcape_102.txt.gz
CAPE
138 250 337 220 200 235 334 347 391 742 694 554 446 580 472 823 919 1021 1379 1593 1471 1350 1459 1425 1648 1539 1470 1933 1784 1352 1273 729 1036 803 610 615 882 938 1052 1045 1039 1059 1084
136 222 337 342 236 308 344 545 555 929 923 701 650 677 497 564 636 840 1283 1380 1498 1227 1369 1696 1359 1626 1433 2032 2213 1993 964 1041 1611 744 819 618 643 807 777 899 834 967 1189
83 170 308 370 366 263 368 497 670 729 1067 916 1039 1235 1122 965 1006 956 837 1228 1372 1250 1294 1590 1543 1715 1371 1289 1784 1714 1990 920 1581 1984 1467 728 905 729 629 814 743 949 1231
207 121 234 388 406 399 331 409 674 681 1084 1363 809 802 566 630 846 970 849 820 845 1077 1056 1522 1572 1805 1332 1599 1604 1662 1899 1960 1124 1463 1879 2315 2511 1083 708 606 776 696 737
131 238 228 265 391 461 471 456 730 705 548 1281 957 619 428 526 738 966 975 824 880 1094 1290 1285 1818 1723 1300 1453 1631 1800 1650 1656 1324 1337 1563 2125 2101 2212 1153 798 872 553 886
117 154 233 294 349 491 485 425 813 1087 825 1069 1008 753 571 765 741 792 792 619 695 738 801 927 1186 1524 1521 1727 1196 1408 1363 1792 1769 1372 1296 1248 1439 1580 1423 1174 1295 1237 1493
166 122 289 435 420 490 510 420 690 932 966 906 840 825 519 507 626 717 437 1004 884 760 747 935 970 1029 1238 1637 1312 1398 1368 1564 1670 1800 1311 1106 1143 1463 1763 1645 1495 1350 1486
184 183 257 411 484 504 594 423 555 755 835 721 866 937 621 309 226 393 1028 544 874 771 1292 891 1083 1252 1058 1479 1693 1416 1041 1311 1100 1567 1797 1158 1243 1171 1206 1435 1448 1251 1342
149 192 310 471 482 488 618 499 505 699 735 608 805 619 404 420 596 699 596 851 706 1185 1106 1300 1092 1249 1192 1494 1544 1066 1467 1733 1690 1301 1397 1219 1035 1162 1238 1259 1136 1185 845
51 173 282 444 362 395 657 594 610 759 612 520 589 542 508 481 267 486 338 682 783 1037 1417 1543 1450 1086 1114 1024 1263 1090 1169 1558 1191 1062 1441 1456 931 1181 1036 1054 951 967 897
229 151 209 448 569 613 522 342 729 802 685 514 375 402 542 417 568 526 396 748 561 787 1228 1283 1586 1323 1076 1231 1602 1493 1230 1422 1089 1216 1395 1577 2026 1049 772 722 781 788 796
355 353 149 265 539 549 197 233 219 518 701 541 584 393 257 455 372 603 466 775 636 987 924 1019 1176 1172 925 1055 1472 1228 865 1139 910 876 980 1204 1024 1710 1467 1062 1058 903 1149
485 526 576 366 311 165 71 74 186 449 526 713 607 599 246 265 400 529 602 761 586 711 857 1092 1147 783 1183 782 1000 1115 1199 1104 969 809 910 883 955 1113 899 1366 1137 729 1066
721 757 818 734 662 356 137 53 20 50 301 490 619 339 347 386 420 603 833 773 1020 569 583 774 1181 955 836 991 1012 1078 1165 1096 919 1103 932 1015 1003 1092 1224 1071 1237 1096 1029
600 643 630 659 682 570 381 176 30 12 30 88 95 327 632 696 794 726 945 969 981 651 931 888 1235 1274 1074 737 1443 1471 1401 1431 1234 1270 1141 1034 1138 855 787 988 1134 1165 997
603 691 673 700 701 584 475 291 185 131 86 6 7 31 42 191 483 729 914 967 1130 1307 1364 1448 1417 1297 1000 63 201 469 1336 1553 1259 1212 1409 1144 1099 1282 1166 980 792 783 999
579 700 852 759 749 777 624 516 268 122 74 13 3 6 44 43 135 221 416 576 676 804 823 873 884 185 25 0 32 156 1019 1439 1130 1336 1454 1303 480 477 521 687 712 933 905
257 196 140 101 83 173 341 304 212 187 164 95 43 49 23 4 1 21 42 148 215 315 436 256 47 0 0 0 95 337 1179 788 393 299 204 111 0 0 0 170 598 1031 1216
22 3 4 2 1 0 2 4 1 1 1 0 2 4 1 0 0 0 14 44 106 199 281 45 0 0 0 0 0 227 198 138 19 0 0 0 0 0 0 0 0 3 40
2 3 5 6 2 2 1 0 1 0 0 0 0 0 0 10 13 17 0 0 70 45 0 0 0 0 0 0 0 0 10 0 0 0 0 0 0 0 0 0 0 0 0
5 5 2 3 4 0 0 0 0 0 0 0 0 0 0 0 1 0 3 3 0 0 0 0 0 0 0 0 0 0 0 0 0 0 0 0 0 0 0 0 0 0 0
1 0 0 0 0 0 0 0 0 0 0 0 0 0 0 0 0 3 5 1 0 0 0 0 0 0 0 0 0 0 0 0 0 0 0 0 0 0 0 0 0 0 0
0 0 0 0 0 0 0 0 0 0 0 0 0 0 0 0 0 0 0 0 0 0 0 0 0 0 0 0 0 0 0 0 0 0 0 0 0 0 0 0 0 0 0
0 0 0 0 0 0 0 0 0 0 0 0 0 0 0 0 0 0 0 0 0 0 0 0 0 0 0 0 0 0 0 0 0 0 0 0 0 0 0 0 0 0 0
0 0 0 0 0 0 0 0 0 0 0 0 0 0 0 0 0 0 0 0 0 0 0 0 0 0 0 0 0 0 0 0 0 0 0 0 0 0 0 0 0 0 0
0 0 0 0 0 0 0 0 0 0 0 0 0 0 0 0 0 0 0 0 0 0 0 0 0 0 0 0 0 0 0 0 0 0 0 0 0 0 0 0 0 0 0

GFSMW_con_mlcape_105.txt.gz
CAPE
76 81 69 44 51 101 118 70 188 298 583 283 402 514 829 791 938 1402 1324 1391 1432 1525 1817 1654 1482 1707 1542 1793 1636 1656 1218 660 643 1204 620 662 915 1170 1076 979 963 955 1114
124 122 127 96 53 82 43 93 432 527 858 386 787 880 622 606 712 952 1153 1419 1291 1566 1364 1856 1576 1616 1443 1812 2137 1907 1624 611 604 1130 1025 722 859 933 891 900 768 935 1089
41 167 212 136 135 61 190 260 455 674 921 608 932 1128 1033 1065 521 810 1017 1132 1288 1316 1740 1737 2089 1489 1793 1578 2060 1500 1659 825 653 1797 2043 1135 1246 774 634 709 839 869 1274
63 86 211 221 121 187 205 487 652 881 921 1212 782 794 726 397 774 795 826 1019 1206 1200 1307 1505 1710 1870 1859 1875 1724 1597 2405 1820 644 721 1099 2196 2034 2270 746 472 796 718 883
69 58 171 122 122 230 248 369 792 893 806 919 682 1035 543 681 468 835 1172 1323 1149 1084 1078 1416 1624 1750 1630 1496 2013 1677 2023 1718 1656 1035 967 1135 1347 881 1273 993 995 518 701
133 103 114 197 137 228 200 310 662 952 804 1162 1183 1194 861 771 867 813 893 923 810 1024 1054 1213 1453 1500 1545 1529 1324 1740 1634 2101 2211 1805 1131 950 1239 1617 1583 1185 842 1183 1399
58 131 100 165 272 428 361 217 624 821 790 1041 771 947 968 934 957 726 628 627 782 515 925 1175 1221 1166 1440 1848 1356 1635 2109 1526 1786 2129 1836 582 735 848 1185 1191 1286 968 1088
191 104 168 240 246 255 252 240 655 810 867 825 847 843 865 555 333 512 771 797 828 656 1229 1200 1081 1118 1588 1471 1695 1389 967 1283 1312 1634 2003 1722 812 769 873 1028 946 931 1145
13 132 162 276 145 281 316 370 663 810 792 818 899 936 775 656 577 203 945 1175 853 991 1501 974 1064 1132 1118 1355 1594 1261 1628 1710 1681 1159 1389 1269 980 591 778 834 801 841 596
84 140 215 208 212 366 417 497 543 675 611 543 540 649 603 591 648 699 682 305 585 825 1167 1188 1333 1388 1390 1453 1501 1061 1214 1361 1316 698 957 1623 823 1276 782 656 581 566 621
211 115 271 224 326 513 489 547 489 788 643 591 451 393 316 291 368 261 394 596 666 791 1104 1320 1319 1166 1513 1483 1445 1735 1294 1523 1248 1160 1244 962 1221 1221 907 1000 717 385 389
290 203 124 184 871 718 749 808 1270 785 573 657 688 589 585 396 281 296 373 734 899 1045 1084 1434 1252 971 1258 1329 1519 1732 901 982 1078 1044 1071 1112 788 1422 1567 1190 1161 665 819
368 206 141 216 882 1143 1226 917 1017 799 912 979 866 949 573 444 368 291 339 470 874 892 1041 1029 1014 1130 1206 1064 1354 1518 1056 1049 854 792 938 1088 1104 1162 1271 1515 1138 709 1215
534 745 572 360 599 585 599 724 489 257 265 241 743 867 943 517 569 598 355 533 894 858 818 968 1037 1160 1102 1237 1037 1211 1314 1296 1063 1070 1088 999 996 1193 1362 1322 1415 1289 1089
866 701 904 656 576 702 542 424 245 166 66 42 230 315 701 915 790 835 932 486 533 626 711 761 1040 962 952 565 913 1087 1326 1519 1223 969 1130 916 941 898 849 808 1094 1583 1133
1069 1078 1117 989 921 1034 915 644 459 369 149 96 149 334 489 879 931 831 938 879 788 669 735 818 1025 1038 742 0 130 377 1344 1317 1546 1431 1083 825 1185 1284 1132 1036 799 897 1239
881 1014 816 885 950 1015 949 793 520 300 276 160 111 106 175 91 135 435 675 742 759 901 1040 958 1069 940 282 0 0 170 629 1193 1555 1383 1455 1427 599 841 975 830 671 635 622
910 753 645 599 678 902 910 837 641 640 364 360 135 39 7 5 58 69 125 262 395 599 585 526 216 43 0 0 0 39 1013 1385 1349 1271 1058 882 387 0 0 14 510 686 864
146 70 24 16 6 68 460 703 579 487 424 340 278 204 148 58 15 11 25 47 125 218 177 116 58 0 0 0 0 0 893 464 272 53 19 19 0 0 0 1 8 10 27
7 7 7 8 3 3 4 13 17 26 17 28 29 16 9 0 0 0 0 0 8 17 27 0 0 0 0 0 0 0 253 303 46 0 0 0 0 0 0 0 0 0 0
7 6 4 6 6 2 1 4 2 3 2 0 0 0 0 0 1 1 12 2 1 0 0 0 0 0 0 0 0 0 0 0 9 1 0 0 0 0 0 0 0 0 0
5 2 1 1 0 0 0 1 1 0 0 0 0 0 0 0 0 8 1 1 2 0 0 0 0 0 0 0 0 0 0 0 0 0 0 0 0 0 0 0 0 0 0
0 0 0 0 0 0 0 0 0 0 0 0 0 0 0 1 11 6 4 1 0 0 0 0 0 0 0 0 0 0 0 0 0 0 0 0 0 0 0 0 0 0 0
0 0 0 0 0 0 0 0 0 0 0 0 0 0 0 0 4 8 0 1 7 7 6 2 0 0 0 0 0 0 0 0 0 0 0 0 0 0 0 0 0 0 0
0 0 0 0 0 0 0 0 0 0 0 0 0 0 0 0 0 0 0 0 0 0 0 0 0 0 0 0 0 0 0 0 0 0 0 0 0 0 0 0 0 0 0
0 0 0 0 0 0 0 0 0 0 0 0 0 0 0 0 0 0 0 0 0 0 0 0 0 0 0 0 0 0 0 0 0 0 0 0 0 0 0 0 0 0 0

GFSMW_con_mlcape_108.txt.gz
CAPE
49 27 53 33 42 67 25 19 242 329 397 379 213 747 166 819 636 901 1448 1579 1465 1349 1878 1742 1640 68 807 1575 1982 2082 1975 1115 1062 1660 816 702 1026 1217 1307 1097 1146 876 1486
57 35 34 39 13 93 96 258 154 406 484 457 550 699 516 784 1195 1341 1156 1275 1229 1500 1730 1809 1477 1009 1838 1632 2091 1950 2215 1245 723 1252 2073 878 992 994 975 947 859 715 925
32 44 32 28 9 58 210 130 522 59 662 859 396 848 362 738 695 741 1192 1150 1227 1287 1272 1789 1458 1365 1494 1763 2145 2074 2346 1816 817 898 2205 2074 1580 1023 594 448 821 305 1066
102 144 76 31 25 113 99 512 673 74 587 773 562 224 779 703 772 851 789 1006 997 1202 1064 1338 1593 1661 872 1175 2086 1931 1979 2363 1937 1015 959 1744 745 433 391 472 543 612 1078
78 101 43 114 100 107 175 479 866 602 602 79 924 852 573 335 260 351 814 1241 1083 1170 1185 1245 1301 1670 1609 1494 1975 1855 1800 2339 2251 2072 1725 808 1940 760 784 73 143 646 852
49 86 63 95 198 64 175 687 739 632 637 622 467 509 441 45 371 342 514 938 1120 957 1237 1047 1590 1583 1596 1442 1268 1922 1608 1680 2005 1903 2397 1548 593 482 113 215 47 523 511
51 85 110 167 143 55 154 563 795 431 656 1008 821 851 471 522 292 418 537 331 402 893 1098 1384 1108 1251 1108 1640 1236 1795 1491 1565 1367 1837 1814 2180 511 20 430 504 385 13 410
9 90 94 123 194 147 78 605 929 531 607 782 905 873 820 874 739 532 400 41 0 253 983 1112 1163 1189 1593 1465 1461 1529 1122 1319 1436 1663 1197 1095 1149 930 608 789 607 908 1000
0 60 86 109 80 389 241 230 885 991 985 993 709 745 958 762 710 356 20 35 11 251 788 1074 1057 1161 1043 1329 1492 1335 1262 1162 849 1109 1256 892 1296 1102 1351 293 583 780 690
0 116 85 23 29 261 87 73 696 661 900 894 836 692 782 728 953 212 214 32 45 284 157 471 1029 1111 1099 872 1150 1063 1093 1026 1218 1330 1198 1620 1255 1114 1367 1165 1046 569 289
1 178 132 169 28 44 78 234 882 812 778 783 865 943 537 689 479 575 484 125 82 604 152 716 1355 1230 1197 1277 1451 1197 881 1141 1087 1209 1110 1027 964 1181 1042 875 887 491 588
143 125 81 369 116 227 418 135 698 757 714 272 619 626 366 296 421 308 498 357 902 1099 899 957 1228 1083 1194 1247 1371 1204 1115 940 782 914 1014 1001 1115 1135 1506 1337 1401 1051 1178
570 245 200 167 62 35 0 278 333 497 692 700 693 576 458 664 282 211 114 396 773 907 971 1098 823 1013 1074 1082 1459 1292 1084 1103 1015 898 794 850 1046 930 826 1120 1254 1166 1223
655 434 249 178 63 0 0 131 116 565 407 196 450 141 504 496 397 430 556 561 690 733 866 807 759 944 819 1178 1141 1332 1118 1109 1248 1068 847 621 833 972 930 1011 919 1100 987
694 566 355 301 250 108 81 638 575 471 559 533 574 460 487 648 646 614 561 432 805 741 608 794 769 968 502 110 269 1081 1083 894 933 1464 1414 1126 902 565 549 694 609 881 1209
683 861 922 658 668 617 407 288 335 390 321 136 81 43 80 144 369 415 584 781 756 563 585 583 659 684 22 0 0 96 917 883 1045 550 684 992 917 967 883 855 712 628 563
1131 1073 1067 956 950 878 943 624 806 693 494 291 123 146 165 73 170 215 468 636 405 384 579 737 890 371 0 0 0 0 263 623 967 1237 1123 914 202 19 103 294 412 722 730
737 683 812 975 895 587 641 753 911 733 395 344 312 205 151 53 21 84 105 133 177 235 390 228 71 14 0 0 0 0 135 497 890 810 1001 216 0 0 0 14 287 264 351
71 9 3 3 34 169 674 644 700 589 528 379 214 159 78 0 0 8 11 41 82 90 29 1 0 0 0 0 0 0 1169 513 44 0 0 0 0 0 0 0 0 0 0
2 3 6 2 0 2 74 193 290 347 274 284 223 186 139 25 2 0 0 0 32 7 0 0 0 0 0 0 0 0 269 196 0 0 0 0 0 0 0 0 0 0 0
6 4 5 5 5 3 1 0 2 1 2 0 19 35 25 4 0 0 8 0 0 0 0 0 0 0 0 0 0 0 0 0 0 0 0 0 0 0 0 0 0 0 0
4 3 2 3 3 2 0 3 3 1 0 0 0 0 0 0 0 0 0 0 0 0 0 0 0 0 0 0 0 0 0 0 0 0 0 0 0 0 0 0 0 0 0
4 1 0 0 0 0 0 0 0 0 0 0 0 0 2 0 0 0 0 0 0 0 0 0 0 0 0 0 0 0 0 0 0 0 0 0 0 0 0 0 0 0 0
0 0 0 0 0 0 0 0 0 0 0 0 0 0 0 0 0 0 0 0 0 0 0 0 0 0 0 0 0 0 0 0 0 0 0 0 0 0 0 0 0 0 0
0 0 0 0 0 0 0 0 0 0 0 0 0 0 0 0 0 0 0 0 0 0 0 0 0 0 0 0 0 0 0 0 0 0 0 0 0 0 0 0 0 0 0
0 0 0 0 0 0 0 0 0 0 0 0 0 0 0 0 0 0 0 0 0 0 0 0 0 0 0 0 0 0 0 0 0 0 0 0 0 0 0 0 0 0 0

GFSMW_con_mlcape_111.txt.gz
CAPE
0 0 19 7 0 0 37 68 9 223 59 300 296 385 276 498 818 748 979 1098 1086 1204 1608 1589 0 229 701 1494 1890 1656 1794 1466 908 1135 1259 816 773 908 885 967 1048 748 1155
1 2 10 5 0 0 0 66 23 51 10 262 285 492 410 631 757 1112 1212 964 1356 1103 1429 1384 952 782 1380 1705 1727 1869 2167 1748 791 1116 1847 544 424 628 927 867 982 869 862
7 5 8 6 0 0 18 93 76 6 254 647 604 557 261 784 809 909 733 998 1124 869 1105 1557 1077 974 1042 1214 1911 2023 2022 1820 1871 1264 1568 1404 1310 962 423 468 368 291 514
37 21 9 0 12 0 166 45 48 24 443 467 440 354 236 281 436 533 810 739 927 1028 876 1260 1475 1134 1007 1070 1651 1727 1636 1896 1805 1683 1618 473 234 72 259 444 79 219 256
33 43 16 0 37 73 65 204 56 1 285 295 479 314 294 343 331 337 592 594 972 1080 939 885 998 1321 1216 1029 1521 1823 1384 1589 1720 1789 1560 681 311 371 0 3 1 0 185
27 29 26 33 33 29 86 211 160 60 68 235 394 450 343 270 86 197 210 387 523 768 888 1024 1198 1041 1020 1148 1025 1532 1141 1398 1310 1545 1475 832 287 222 45 0 0 8 105
16 24 27 37 80 66 121 406 249 191 87 188 260 324 455 96 1 42 11 248 90 417 453 700 958 1117 871 1049 1314 1274 874 1275 1075 1306 1274 891 157 6 0 0 83 91 247
41 24 42 40 80 99 286 461 453 261 128 279 393 315 460 396 267 139 10 23 0 133 288 598 841 782 1227 1021 1445 886 1329 999 943 896 880 1278 1253 633 786 564 213 26 240
37 57 46 53 68 69 426 654 476 326 331 547 785 481 554 393 258 222 196 61 0 14 359 496 670 822 1024 1003 1116 1125 853 991 703 660 1134 1132 1278 933 1015 1114 955 827 364
5 16 61 61 85 113 426 913 571 379 267 745 712 544 567 593 274 93 2 0 0 0 71 424 570 922 730 477 971 840 674 1065 954 1043 861 1056 782 673 936 819 1212 896 528
0 1 39 94 163 186 260 544 812 653 535 902 575 527 682 562 375 227 155 49 0 63 142 76 468 950 728 866 976 902 533 851 657 895 608 700 990 993 913 1202 1215 899 1072
0 0 19 81 48 87 198 429 402 257 814 495 731 616 394 420 539 509 266 2 0 157 82 9 656 770 792 1010 707 734 1031 729 583 630 726 697 705 865 673 872 919 718 929
0 37 177 53 83 105 127 155 247 463 614 442 903 599 557 451 413 305 436 305 305 615 666 756 615 774 912 837 836 1108 684 663 959 748 751 652 620 769 473 594 830 575 717
51 109 240 167 123 31 16 9 116 98 418 677 553 684 521 564 539 491 196 552 705 506 422 805 744 493 592 356 849 962 906 652 790 973 962 621 469 597 626 638 772 680 482
125 256 210 186 153 52 14 2 0 22 33 345 481 413 273 510 660 533 418 663 471 657 508 666 680 182 60 17 69 294 858 768 468 448 514 732 697 459 425 435 427 355 256
511 467 456 204 39 31 47 0 0 0 161 256 262 298 248 283 364 310 379 355 345 352 354 447 427 0 0 0 0 20 340 687 573 494 531 145 101 154 296 314 421 385 545
570 709 804 595 363 94 1 49 7 79 163 184 169 166 125 96 141 121 197 256 125 147 117 172 25 0 0 0 0 0 65 349 552 497 401 57 0 0 0 10 221 201 121
30 178 387 412 496 823 363 359 244 307 267 228 264 250 154 104 76 79 73 110 113 96 100 25 0 0 0 0 0 0 34 50 17 1 0 0 0 0 0 0 0 0 0
0 2 4 2 2 87 574 563 429 349 311 336 344 267 150 62 18 0 0 49 38 4 0 0 0 0 0 0 0 43 79 17 0 0 0 0 0 0 0 0 0 0 0
0 1 4 2 1 2 1 254 428 421 458 352 281 230 110 24 0 0 0 0 0 0 0 0 0 0 0 0 0 6 74 0 0 0 0 0 0 0 0 0 0 0 0
1 2 4 3 3 2 1 0 2 2 0 211 295 236 117 32 15 1 0 0 0 0 0 0 0 0 0 0 0 0 0 0 0 0 0 0 0 0 0 0 0 0 0
2 2 3 3 2 2 2 2 2 2 1 1 2 2 7 0 0 1 0 0 0 0 0 0 0 0 0 0 0 0 0 0 0 0 0 0 0 0 0 0 0 0 0
1 0 0 0 0 0 0 0 1 0 0 0 0 0 0 0 0 0 0 0 0 0 0 0 0 0 0 0 0 0 0 0 0 0 0 0 0 0 0 0 0 0 0
0 0 0 0 0 0 0 0 0 0 0 0 0 0 0 0 0 0 0 0 0 0 0 0 0 0 0 0 0 0 0 0 0 0 0 0 0 0 0 0 0 0 0
0 0 0 0 0 0 0 0 0 0 0 0 0 0 0 0 0 0 0 0 0 0 0 0 0 0 0 0 0 0 0 0 0 0 0 0 0 0 0 0 0 0 0
0 0 0 0 0 0 0 0 0 0 0 0 0 0 0 0 0 0 0 0 0 0 0 0 0 0 0 0 0 0 0 0 0 0 0 0 0 0 0 0 0 0 0

GFSMW_con_mlcape_114.txt.gz
CAPE
9 11 6 0 0 0 0 0 0 14 80 346 473 365 454 597 793 1087 911 1277 931 1213 1393 942 0 698 1411 1714 1829 2027 1865 966 579 971 1046 508 439 529 575 481 495 611 535
21 13 0 0 0 17 0 0 0 83 115 231 435 273 462 423 616 873 998 1177 1241 1239 1419 1109 867 822 1077 1326 1817 1758 1685 1802 1396 1160 1091 408 337 321 351 468 447 445 338
0 3 0 0 0 6 0 0 11 5 0 248 380 362 518 522 583 721 790 951 1117 909 1104 1193 943 983 836 1094 1485 1538 1702 1465 1466 1103 1303 1177 976 461 129 133 224 251 360
13 5 0 0 0 0 35 53 0 0 227 422 421 305 302 465 377 429 599 759 1062 723 986 1255 931 1012 1076 1005 1586 1465 1512 1466 1497 881 377 303 251 199 353 110 4 82 154
0 0 0 0 0 0 0 0 29 29 202 339 353 289 237 196 289 317 374 550 702 1096 912 874 1216 1152 990 934 1206 1340 1374 1397 1344 662 393 130 44 8 0 0 0 0 42
0 0 0 8 5 3 0 0 0 75 127 191 363 254 212 247 253 192 315 305 295 495 757 906 966 812 822 1003 935 1123 1125 1303 1127 1231 639 354 157 118 6 0 0 1 75
4 9 0 47 9 43 81 0 0 28 52 90 301 269 227 161 117 122 193 167 169 361 420 612 599 941 949 961 1236 1102 687 991 1060 1235 712 128 158 164 0 0 54 177 116
56 6 0 62 49 61 133 100 0 3 45 60 191 206 268 234 98 80 0 61 139 194 225 446 550 838 912 680 1168 804 1047 840 736 725 1075 522 259 201 283 156 173 199 80
29 32 26 50 62 79 144 117 56 40 55 38 103 105 325 260 245 91 58 14 29 14 187 458 410 718 690 906 944 942 922 874 668 955 1000 918 582 366 612 499 243 263 147
43 92 71 54 54 81 165 192 159 114 110 45 182 123 244 226 223 125 140 120 3 0 61 319 338 462 763 861 820 814 625 665 729 798 624 729 559 730 826 514 560 566 312
42 86 81 96 63 107 239 268 275 216 183 126 376 266 279 312 256 211 69 0 0 0 0 55 269 465 769 625 728 829 504 535 780 703 619 480 767 824 1093 901 867 826 668
7 41 102 112 97 160 282 339 372 301 229 274 375 372 250 319 198 232 94 101 0 0 24 68 239 354 772 727 581 610 912 325 397 434 573 625 701 730 558 648 713 554 543
0 1 50 97 112 135 278 505 447 392 320 250 381 354 197 341 251 147 141 102 61 0 121 115 84 307 694 499 460 468 392 636 674 626 644 609 487 436 471 517 577 469 462
14 0 4 51 92 136 158 262 285 275 301 353 418 468 322 404 229 210 288 160 14 71 181 333 352 425 298 191 268 326 705 570 502 507 705 695 630 573 407 532 526 553 393
16 41 47 44 68 81 104 136 233 196 114 150 283 347 294 233 331 334 276 330 295 261 504 460 309 93 72 39 43 131 328 622 499 413 495 381 346 356 439 340 389 326 159
1 223 185 121 70 66 77 81 146 238 187 86 163 314 233 311 277 234 222 277 221 139 215 261 152 65 0 0 0 8 123 499 395 308 120 71 178 169 133 208 276 325 392
0 37 186 127 63 33 25 14 0 3 1 32 122 200 175 139 134 225 130 160 151 108 94 15 0 0 0 0 0 0 9 270 451 290 84 0 0 0 15 101 0 0 0
1 20 1 1 1 6 10 4 0 0 36 73 95 132 149 139 81 111 139 204 137 114 67 1 0 0 0 0 0 0 0 15 59 33 0 0 0 0 0 0 0 0 0
4 3 1 0 0 0 6 48 55 40 45 52 116 160 134 75 19 20 68 62 56 16 0 0 0 0 0 0 0 40 0 0 0 0 0 0 0 0 0 0 0 0 0
3 2 3 1 0 0 52 96 147 120 91 140 146 141 97 48 33 43 34 4 0 0 0 0 0 0 0 0 0 2 0 0 0 0 0 0 0 0 0 0 0 0 0
2 2 1 1 3 2 2 5 16 15 2 102 170 89 61 25 13 22 0 0 0 0 0 0 0 0 0 0 0 0 0 0 0 0 0 0 0 0 0 0 0 0 0
2 1 2 1 1 1 1 1 1 2 2 3 37 6 17 5 8 4 0 0 0 0 0 0 0 0 0 0 0 0 0 0 0 0 0 0 0 0 0 0 0 0 0
0 0 0 0 0 0 0 2 2 0 0 0 0 1 0 0 0 0 0 0 0 0 0 0 0 0 0 0 0 0 0 0 0 0 0 0 0 0 0 0 0 0 0
0 0 0 0 0 0 0 0 0 0 0 0 0 0 0 0 0 0 0 0 0 0 0 0 0 0 0 0 0 0 0 0 0 0 0 0 0 0 0 0 0 0 0
0 0 0 0 0 0 0 0 0 0 0 0 0 0 0 0 0 0 0 0 0 0 0 0 0 0 0 0 0 0 0 0 0 0 0 0 0 0 0 0 0 0 0
0 0 0 0 0 0 0 0 0 0 0 0 0 0 0 0 0 0 0 0 0 0 0 0 0 0 0 0 0 0 0 0 0 0 0 0 0 0 0 0 0 0 0

GFSMW_con_mlcape_117.txt.gz
CAPE
14 35 9 52 67 0 0 0 43 89 163 390 295 301 367 472 520 828 943 1163 1031 1263 1329 119 132 1068 1241 1459 1778 1822 1609 1032 469 676 548 319 238 261 382 472 522 534 447
3 11 14 0 22 21 0 0 0 19 73 238 308 216 333 422 429 770 857 1024 1022 1276 1142 990 701 831 934 1313 1440 1562 1228 1006 757 1200 549 281 249 232 322 394 380 334 319
0 0 2 4 0 0 0 0 0 0 62 177 394 232 417 456 580 692 740 798 1008 1047 1076 951 847 806 736 1112 1252 1389 1265 920 525 642 949 747 496 214 88 126 171 295 254
12 29 16 0 0 0 0 0 0 0 84 189 313 198 192 347 354 441 596 680 798 753 1040 982 833 839 912 1188 1343 1206 1200 1066 836 457 311 160 146 203 316 123 14 65 114
0 0 27 20 0 2 0 0 0 27 82 222 193 216 241 175 210 294 427 504 685 886 1027 953 995 946 831 890 1145 1078 993 1091 588 480 282 93 8 0 11 35 1 0 0
0 5 26 32 5 10 5 0 0 14 121 228 261 208 172 196 237 237 274 302 374 561 885 764 925 896 716 925 880 879 1027 868 1071 572 321 201 131 110 0 0 3 7 13
0 4 0 6 5 0 1 0 0 0 68 164 238 220 191 174 199 181 187 251 206 283 402 633 724 772 795 783 924 919 666 872 836 732 312 72 147 57 0 0 97 189 47
0 6 29 43 41 1 0 0 0 0 0 87 152 233 165 145 102 106 73 157 179 162 222 373 553 512 897 547 761 733 926 715 685 626 737 180 101 87 185 160 145 135 24
2 8 32 69 72 60 51 3 0 0 60 29 97 117 181 191 152 120 8 10 32 76 119 343 445 543 682 768 783 865 725 675 550 720 700 592 325 138 344 341 73 213 46
17 19 30 73 91 95 110 60 16 0 0 50 74 103 142 183 200 211 49 13 0 4 6 285 385 298 534 698 814 788 722 591 552 719 609 648 446 517 534 339 399 298 218
31 21 38 73 98 130 144 122 103 31 0 73 60 95 99 158 182 176 33 78 35 11 0 2 261 246 484 637 579 689 671 411 591 660 494 465 602 626 753 679 627 613 453
34 68 62 85 65 107 134 170 169 96 53 80 99 87 150 174 183 149 145 38 0 0 0 0 40 228 487 511 501 582 679 663 359 408 432 417 519 500 518 495 553 452 427
13 14 49 77 112 95 156 176 221 165 148 182 174 146 328 232 267 219 178 71 0 0 0 62 43 185 305 567 567 388 354 368 406 421 400 467 533 450 459 351 394 367 431
11 15 30 83 125 154 221 233 269 284 244 252 274 207 276 345 290 238 190 176 0 51 0 27 159 139 271 286 306 348 410 333 392 383 464 620 578 421 364 340 447 469 331
61 47 16 70 146 176 233 337 400 346 331 333 336 287 306 391 291 285 295 231 162 82 0 95 238 145 87 54 58 89 153 0 307 374 371 260 319 285 336 412 360 302 129
54 64 75 86 130 183 208 266 283 295 316 350 369 310 334 454 401 347 298 339 227 131 159 183 159 0 0 0 0 0 28 163 294 359 202 153 133 144 170 258 286 235 227
32 50 29 43 31 36 7 32 110 136 190 204 190 189 255 211 195 208 249 212 152 63 53 23 0 0 0 0 0 0 1 92 160 197 137 6 0 0 70 0 0 0 0
0 0 0 20 33 10 1 0 0 5 66 104 51 137 143 151 155 142 194 156 102 80 49 1 0 0 0 0 0 0 0 10 15 37 3 0 0 0 24 0 0 0 0
0 2 2 3 3 9 30 21 12 0 0 4 36 70 76 119 116 97 84 61 123 97 39 0 0 0 0 0 0 23 1 0 0 0 0 0 0 0 0 0 0 0 0
0 0 1 2 0 4 11 90 61 110 84 47 41 102 94 72 60 21 16 19 28 29 5 0 0 0 0 0 0 0 0 0 0 0 0 0 0 0 0 0 0 0 0
0 2 2 1 2 2 6 54 15 36 2 70 105 85 81 48 40 23 17 2 7 6 0 0 0 0 0 0 0 0 0 0 0 0 0 0 0 0 0 0 0 0 0
0 0 1 1 1 1 1 1 1 2 0 27 24 33 74 13 3 7 15 0 0 0 0 0 0 0 0 0 0 0 0 0 0 0 0 0 0 0 0 0 0 0 0
0 0 0 0 0 1 1 0 1 1 2 0 0 1 0 0 1 6 6 1 0 0 0 0 0 0 0 0 0 0 0 0 0 0 0 0 0 0 0 0 0 0 0
0 0 0 0 0 0 0 0 1 1 0 0 1 1 0 2 2 0 0 0 0 0 0 0 0 0 0 0 0 0 0 0 0 0 0 0 0 0 0 0 0 0 0
0 0 0 0 0 0 0 0 0 0 0 0 0 0 0 0 0 0 0 0 0 0 0 0 0 0 0 0 0 0 0 0 0 0 0 0 0 0 0 0 0 0 0
0 0 0 0 0 0 0 0 0 0 0 0 0 0 0 0 0 0 0 0 0 0 0 0 0 0 0 0 0 0 0 0 0 0 0 0 0 0 0 0 0 0 0

GFSMW_con_mlcape_120.txt.gz
CAPE
23 30 36 62 8 66 85 75 119 185 207 250 238 213 376 409 398 467 763 898 1014 1207 591 22 596 1070 1218 1363 1453 1471 1045 749 453 661 361 297 299 365 402 436 464 512 477
0 6 31 40 5 0 22 41 48 95 167 161 149 162 289 381 366 598 823 950 776 1042 919 547 691 793 1007 1172 1275 1187 992 642 616 1021 289 383 284 314 325 399 386 298 249
0 1 13 14 0 0 0 0 0 49 95 195 200 194 315 394 422 622 733 775 952 986 910 659 583 598 790 1014 1072 1140 1093 601 429 437 804 627 408 283 169 183 175 242 265
0 35 31 6 0 0 0 0 0 0 0 168 251 171 157 269 323 416 497 571 801 763 953 816 693 729 688 1017 1036 1022 1017 899 532 342 226 203 209 363 376 215 98 85 109
0 3 16 24 0 0 0 0 0 0 15 155 225 165 180 170 262 308 401 513 505 689 832 859 810 752 650 822 949 843 887 661 524 385 228 63 12 6 25 35 1 1 3
0 1 20 31 12 0 0 0 0 0 24 106 139 161 155 137 186 177 187 309 414 585 756 764 804 782 622 783 740 735 816 734 777 382 254 153 107 116 0 3 49 59 65
0 0 5 19 15 0 0 0 0 0 14 64 127 151 169 179 218 195 187 205 220 366 445 643 560 647 619 652 783 697 622 680 629 524 209 66 112 29 0 6 67 153 85
0 5 0 0 3 0 0 0 0 0 35 110 180 184 183 186 177 152 175 147 173 166 227 332 526 551 596 651 659 642 671 497 652 523 560 148 47 37 50 97 90 116 25
3 11 0 0 8 0 27 0 0 0 0 85 173 180 182 165 166 117 75 90 79 98 95 134 330 472 476 668 589 600 607 567 479 409 511 545 137 46 139 272 56 225 29
0 21 28 5 10 35 35 27 0 25 0 33 81 150 190 175 146 130 110 42 17 15 93 85 290 368 444 561 558 650 671 556 463 520 570 615 462 345 331 342 321 91 212
35 33 33 35 29 59 74 44 35 25 23 37 39 77 105 149 168 168 159 106 0 0 5 16 76 221 230 412 540 648 618 495 416 490 486 343 361 474 479 575 538 494 351
44 59 63 73 71 74 98 94 60 51 34 31 44 37 44 109 134 123 145 82 0 0 0 0 0 31 138 413 464 401 547 549 436 302 405 407 318 345 592 489 516 366 406
50 61 77 85 101 129 148 144 122 87 80 71 31 43 80 60 82 116 136 78 57 0 0 0 0 0 87 348 368 354 463 463 388 330 276 301 356 490 446 340 367 333 429
16 65 98 103 104 125 132 180 181 175 146 133 91 60 100 98 123 143 174 176 131 32 0 0 36 8 24 161 317 340 400 375 311 407 409 405 330 395 386 271 341 417 344
38 22 34 62 94 134 113 157 193 249 232 191 173 150 163 157 175 215 179 189 123 109 0 0 0 160 118 66 33 93 200 190 10 89 377 284 240 217 274 291 306 328 198
77 99 40 86 125 173 182 239 306 301 314 233 221 225 184 202 213 255 271 214 236 168 114 122 86 120 0 0 0 0 57 112 18 157 288 134 82 59 64 133 137 264 130
13 68 85 46 109 79 142 148 132 178 193 232 220 271 215 230 172 177 273 257 289 247 101 18 21 1 0 0 0 0 0 27 110 189 188 50 0 0 0 0 0 0 0
0 1 1 1 28 47 53 24 26 58 104 124 130 123 133 193 103 103 119 188 157 113 37 12 13 0 0 0 0 0 0 10 25 78 39 0 0 0 0 0 0 0 0
2 0 2 0 1 0 11 35 24 15 24 49 41 60 20 10 51 93 78 84 117 99 82 1 0 0 0 0 0 0 0 1 1 0 0 0 0 0 0 0 0 0 0
2 1 1 2 2 1 9 70 98 82 1 16 0 9 13 56 61 47 47 17 36 25 2 0 0 1 0 0 0 0 0 0 0 0 0 0 0 0 0 0 0 0 0
1 1 1 1 1 1 31 97 46 4 15 0 0 44 107 49 26 9 1 0 1 0 0 0 0 0 0 0 0 0 0 0 0 0 0 0 0 0 0 0 0 0 0
0 0 0 1 1 1 1 2 4 0 0 0 22 35 40 13 8 0 0 0 0 0 0 0 0 0 0 0 0 0 0 0 0 0 0 0 0 0 0 0 0 0 0
0 0 0 0 0 0 0 0 2 1 0 0 0 0 0 0 0 0 0 0 1 0 0 0 0 0 0 0 0 0 0 0 0 0 0 0 0 0 0 0 0 0 0
0 0 0 0 0 0 0 1 2 1 1 1 1 2 2 2 3 2 0 1 3 3 1 0 0 0 0 0 0 0 0 0 0 0 0 0 0 0 0 0 0 0 0
0 0 0 0 0 0 0 0 0 0 0 1 1 1 1 1 2 2 3 1 1 0 0 0 0 0 0 0 0 0 0 0 0 0 0 0 0 0 0 0 0 0 0
0 0 0 0 0 0 0 0 0 0 0 0 0 0 0 0 0 0 0 0 0 0 0 0 0 0 0 0 0 0 0 0 0 0 0 0 0 0 0 0 0 0 0

GFSMW_con_mlcape_123.txt.gz
CAPE
25 48 156 166 170 248 268 500 586 559 558 605 656 758 642 787 409 534 1016 1227 1482 1910 1481 859 1278 1792 1861 2094 2214 2000 1456 1195 1163 956 878 808 833 958 967 1076 1085 1172 1078
15 49 101 115 124 197 238 326 353 469 633 668 675 739 850 937 1042 1008 1317 1590 1317 1676 1626 931 1380 1357 1795 1916 1942 1834 1421 1172 1303 1774 883 949 816 851 847 1037 1070 1080 909
0 56 84 107 127 142 136 177 192 366 513 616 532 537 719 825 894 931 827 1476 1472 1568 1495 1168 1238 1193 1524 1803 1849 1924 1691 1058 848 1037 1729 1034 737 860 662 727 635 590 677
2 36 29 70 125 80 131 130 115 194 331 506 369 424 446 514 468 560 893 1077 1479 1523 1571 1385 1295 1390 1426 1707 1700 1801 1683 1471 1009 759 566 603 709 752 762 701 534 520 331
0 0 16 79 114 49 73 82 69 93 228 339 458 285 350 296 432 824 682 660 929 1358 1368 1327 1343 1280 1305 1545 1581 1566 1639 1341 1190 884 594 365 226 201 302 267 175 363 167
0 0 25 91 107 0 20 63 8 0 76 173 451 502 501 281 484 653 670 796 859 1142 1429 1369 1535 1213 1274 1187 1370 1389 1464 1432 1446 873 634 570 491 474 218 220 415 387 547
0 0 14 63 105 57 37 72 56 0 0 78 300 463 475 443 442 523 518 558 693 741 1006 1063 1091 911 1265 1172 1282 1358 1319 1352 1266 1171 746 485 531 351 187 229 417 466 527
0 0 0 59 92 76 103 79 46 25 47 78 232 398 489 509 533 624 581 584 633 729 829 808 712 758 828 1317 1420 1336 1271 1117 1201 1291 1260 810 479 431 445 524 604 414 570
9 1 24 66 81 97 115 104 67 53 64 136 209 248 387 461 426 484 478 459 455 483 486 545 705 988 1104 748 1134 983 1079 1182 1237 1067 1022 1069 915 416 545 778 645 673 206
19 27 25 56 73 100 128 125 111 50 28 120 221 276 383 439 491 485 431 376 372 267 274 389 502 778 1051 1184 1166 1126 1258 1235 1193 868 1172 1153 1187 995 834 824 896 679 586
74 50 24 56 100 93 90 113 152 142 58 71 154 288 346 346 372 385 439 486 392 203 48 224 380 533 783 969 856 747 959 1114 1014 1090 1000 1132 1103 873 1082 1200 1100 1072 999
103 74 41 77 98 93 94 80 147 189 129 181 161 117 209 280 294 307 335 437 407 259 254 112 89 115 443 740 690 626 802 790 925 975 941 926 835 858 883 885 937 910 965
29 56 52 57 94 128 99 146 201 196 202 219 211 192 206 231 206 271 302 264 293 188 118 0 0 7 29 267 719 878 603 549 656 915 913 597 939 757 854 719 936 681 1078
17 64 60 108 143 155 133 200 243 124 246 248 188 200 182 212 231 226 233 251 271 244 147 44 0 10 193 233 492 799 567 630 662 467 364 555 504 340 406 503 476 419 460
163 152 171 192 176 159 161 185 277 159 156 219 180 148 328 275 265 327 276 276 339 324 306 144 67 100 480 316 315 467 445 363 690 670 698 890 446 186 273 509 428 372 376
35 209 203 181 178 228 281 280 169 163 287 182 227 284 355 263 414 425 438 490 461 561 433 291 219 223 246 0 0 0 157 292 422 174 227 489 109 118 23 84 161 334 383
24 40 37 119 227 165 81 328 421 349 259 381 367 323 349 298 213 178 315 197 467 470 381 451 432 225 70 0 0 0 0 115 186 401 254 315 119 25 142 0 0 0 0
1 1 1 1 6 17 74 147 220 288 259 305 240 194 278 230 217 176 78 107 203 173 330 387 133 14 0 0 0 0 0 3 112 96 306 329 27 4 19 0 0 0 0
0 1 2 2 2 0 0 30 127 169 149 133 80 89 74 57 58 40 79 98 159 101 74 67 99 67 8 0 0 0 0 0 0 0 0 1 22 0 0 0 0 0 0
1 2 2 3 2 1 1 47 83 126 128 166 42 8 3 26 21 11 40 21 112 99 44 6 4 0 0 1 0 0 0 0 0 0 0 0 0 0 0 0 0 0 0
0 1 1 1 2 2 50 73 56 33 28 75 48 13 48 63 57 38 17 24 22 0 0 0 0 0 0 0 0 1 0 0 0 0 0 0 0 0 0 0 0 0 0
0 0 0 0 1 2 1 1 0 0 0 6 3 8 31 22 20 5 0 0 0 0 0 0 0 0 0 0 0 0 0 0 0 0 0 0 0 0 0 0 0 0 0
0 0 0 0 0 4 4 0 3 2 2 1 0 0 0 1 1 0 0 0 1 0 0 0 0 0 0 0 0 0 0 0 0 0 0 0 0 0 0 0 0 0 0
0 0 0 0 0 0 2 4 4 2 2 1 0 1 0 0 1 0 0 1 3 4 4 0 0 0 0 0 0 0 0 0 0 0 0 0 0 0 0 0 0 0 0
0 0 0 0 0 0 0 0 0 0 0 2 1 1 1 1 1 1 1 0 1 0 1 2 0 0 0 0 0 0 0 0 0 0 0 0 0 0 0 0 0 0 0
0 0 0 0 0 0 0 0 0 0 0 0 0 0 0 0 0 0 0 0 2 0 0 0 0 0 0 0 0 0 0 0 0 0 0 0 0 0 0 0 0 0 0

GFSMW_con_mlcape_126.txt.gz
CAPE
206 271 245 183 300 270 417 873 986 1069 1197 1023 819 724 726 818 675 841 1167 1459 1695 2035 2031 1436 1669 2193 1816 2880 2454 1965 1934 1508 1876 1220 1042 1105 1233 1082 1139 1263 1297 1612 1660
85 270 219 240 298 371 363 625 691 833 1100 1076 883 880 973 820 748 991 1332 1447 1520 1850 1969 1743 1699 2004 1737 2409 2852 2601 1338 1488 1969 1828 1010 850 856 720 1038 1317 1482 1644 1477
29 201 269 212 204 290 398 519 850 952 1076 1064 1058 1326 1241 957 1014 1198 991 1367 1559 1495 2179 1979 1891 1910 1871 1445 2158 2454 2307 1144 1550 2135 2021 1017 813 920 1261 1253 1259 1323 1122
14 74 228 261 201 227 330 439 763 869 787 693 825 718 631 482 685 1046 813 1189 1462 1655 1837 1688 1947 2013 1591 1950 1678 1898 2386 2079 1248 1266 1223 1432 1236 807 613 958 681 787 650
17 21 118 240 229 262 325 373 661 673 664 847 939 598 406 573 646 676 1108 1147 1323 1608 1653 1737 1763 1777 1339 1970 1827 1738 2253 1892 1566 1127 1107 1270 770 713 588 322 406 726 479
16 10 3 151 283 267 290 362 552 641 786 934 469 496 506 540 421 731 819 628 630 791 1313 1493 1671 1878 1436 1604 1665 1836 1887 1645 1836 1458 1269 865 666 588 452 375 504 408 716
3 3 12 75 243 285 283 296 466 617 506 569 554 414 577 650 556 702 418 780 742 743 828 1177 1137 867 803 858 1386 1679 1573 1662 1518 1855 1197 939 977 779 632 453 329 327 283
13 4 39 83 263 315 320 295 380 555 396 308 393 618 822 504 514 839 465 854 633 768 919 1167 1123 1065 1143 1157 1316 1164 1195 1181 1174 1567 1705 948 628 723 675 550 318 4 223
48 0 26 139 240 334 332 350 375 510 345 208 255 437 778 779 707 770 1084 679 1005 944 1304 1339 1305 1150 1127 1229 1107 1241 1178 1265 1278 859 1172 1137 515 572 372 472 376 240 2
128 27 22 134 256 310 345 400 399 432 334 180 236 330 560 795 833 1202 730 998 1062 1110 979 1002 1031 1144 1151 1221 1345 876 1051 1243 1084 705 612 1160 391 693 622 538 457 372 185
169 145 77 129 240 248 287 341 413 376 375 267 221 282 361 440 836 930 975 951 1119 1142 1173 952 850 1088 1273 1191 1380 1292 814 1032 1156 1200 1002 1089 1095 609 363 424 359 293 349
129 164 67 213 210 274 302 297 362 401 435 293 285 336 362 502 517 790 751 821 1029 1212 1160 920 971 1010 1020 1123 1268 1066 747 864 881 912 868 1006 849 997 1065 448 276 369 634
202 261 208 83 121 244 441 387 402 397 519 477 347 420 440 480 402 395 634 694 871 1038 966 970 868 601 544 623 968 1120 881 879 826 883 931 951 994 917 610 759 667 629 824
268 253 182 128 110 319 402 625 483 514 537 556 504 551 586 439 371 447 631 709 786 890 934 954 717 422 296 372 411 736 970 982 785 834 829 754 797 910 907 616 767 667 888
388 287 112 153 70 154 315 410 228 583 522 624 688 697 798 798 709 621 677 880 809 696 877 1050 889 647 551 652 683 841 954 847 769 732 831 458 713 338 426 561 687 510 394
44 67 255 226 292 381 420 492 280 212 511 208 300 613 701 655 538 568 778 861 960 843 890 908 941 732 456 59 176 182 719 832 831 823 824 730 333 150 92 81 112 186 434
12 1 0 18 93 272 378 385 642 849 290 687 404 260 369 717 588 700 603 402 547 674 588 786 777 509 602 39 0 0 167 464 682 727 828 825 494 263 810 91 27 4 20
4 5 3 5 21 114 228 218 354 658 977 793 461 899 1025 662 438 600 622 631 182 84 202 374 426 529 853 0 0 0 12 80 263 638 701 866 812 494 578 351 228 109 17
4 4 4 3 3 18 63 178 200 244 410 454 586 416 529 518 621 176 254 320 227 102 85 76 102 280 267 0 0 0 27 6 23 26 17 197 356 0 0 224 128 69 0
5 5 5 6 2 3 42 149 186 179 289 385 242 191 110 51 39 52 30 46 107 91 62 38 42 7 0 0 0 0 0 1 0 0 0 0 0 0 0 124 78 15 0
0 1 3 4 5 4 81 101 102 82 51 199 254 211 253 279 265 182 38 43 52 64 1 0 2 0 1 1 0 0 0 1 0 0 0 0 0 0 0 0 0 0 0
1 1 1 3 4 3 1 1 0 3 14 57 9 5 7 0 17 19 2 0 0 0 1 0 0 3 4 1 0 1 1 0 1 0 1 0 0 0 0 0 0 0 0
1 0 1 2 4 4 5 0 2 3 3 0 0 1 0 1 1 1 3 4 4 2 2 5 4 3 3 2 0 0 0 0 0 0 0 0 0 0 0 0 0 0 0
0 0 0 1 2 3 2 5 5 3 1 1 6 5 1 3 3 2 4 3 4 3 2 5 3 0 0 0 0 1 0 0 0 0 0 0 0 0 0 0 0 0 0
0 0 0 0 0 0 0 0 0 1 5 5 4 3 2 2 2 3 3 1 1 0 2 3 2 0 0 0 0 0 0 0 0 0 0 0 0 0 0 0 0 0 0
0 0 0 0 0 0 0 0 0 0 0 0 0 1 1 1 0 0 1 0 0 0 0 0 0 0 0 0 0 0 0 0 0 0 0 0 0 0 0 0 0 0 0